Wetterdaten: Freitag, 19.04.2019
Datum Zeit Temp. A. Pool Temp. Temp. 5cm Feuchte A. Luftdruck Regen Wind Richtung Richtung Sonnenschein ET UV Solar Taupunkt Windchill Windben Empfang
19.04.2019 00:00 10,2 C 12,2 C 7,2 C 63 % 1026,2 hPa 0,0 l/m 13,6 km/h (3 Bft) O 94 0 min 0,000 mm 0,0 UV-I 0 W/m 3,5 C 6,0 C 20,9 km/h (4 Bft) 100,00 %
19.04.2019 00:02 10,2 C 12,2 C 7,8 C 63 % 1026,2 hPa 0,0 l/m 11,9 km/h (2 Bft) O 94 0 min 0,000 mm 0,0 UV-I 0 W/m 3,5 C 6,8 C 17,7 km/h (3 Bft) 100,00 %
19.04.2019 00:04 10,2 C 12,2 C 7,8 C 63 % 1026,1 hPa 0,0 l/m 13,3 km/h (3 Bft) O 89 0 min 0,000 mm 0,0 UV-I 0 W/m 3,5 C 6,1 C 19,3 km/h (3 Bft) 100,00 %
19.04.2019 00:06 10,2 C 12,2 C 7,8 C 63 % 1026,1 hPa 0,0 l/m 13,9 km/h (3 Bft) O 90 0 min 0,000 mm 0,0 UV-I 0 W/m 3,5 C 5,8 C 17,7 km/h (3 Bft) 100,00 %
19.04.2019 00:08 10,1 C 12,2 C 7,8 C 64 % 1026,1 hPa 0,0 l/m 11,6 km/h (2 Bft) O 88 0 min 0,000 mm 0,0 UV-I 0 W/m 3,6 C 6,8 C 16,1 km/h (3 Bft) 100,00 %
19.04.2019 00:10 10,0 C 12,2 C 7,2 C 64 % 1026,1 hPa 0,0 l/m 13,3 km/h (3 Bft) O-SO 102 0 min 0,000 mm 0,0 UV-I 0 W/m 3,5 C 5,9 C 16,1 km/h (3 Bft) 100,00 %
19.04.2019 00:12 9,9 C 12,2 C 7,2 C 64 % 1026,1 hPa 0,0 l/m 12,2 km/h (2 Bft) O 85 0 min 0,000 mm 0,0 UV-I 0 W/m 3,4 C 6,3 C 14,5 km/h (3 Bft) 100,00 %
19.04.2019 00:14 9,8 C 12,2 C 7,2 C 65 % 1026,2 hPa 0,0 l/m 9,8 km/h (2 Bft) O 82 0 min 0,000 mm 0,0 UV-I 0 W/m 3,5 C 7,5 C 17,7 km/h (3 Bft) 100,00 %
19.04.2019 00:16 9,8 C 12,2 C 7,2 C 65 % 1026,2 hPa 0,0 l/m 10,2 km/h (2 Bft) O 81 0 min 0,000 mm 0,0 UV-I 0 W/m 3,5 C 7,3 C 16,1 km/h (3 Bft) 97,92 %
19.04.2019 00:18 9,8 C 12,2 C 7,2 C 65 % 1026,1 hPa 0,0 l/m 11,4 km/h (2 Bft) O-NO 78 0 min 0,000 mm 0,0 UV-I 0 W/m 3,5 C 6,6 C 16,1 km/h (3 Bft) 95,92 %
19.04.2019 00:20 9,7 C 12,2 C 7,2 C 65 % 1026,1 hPa 0,0 l/m 11,4 km/h (2 Bft) O-NO 77 0 min 0,000 mm 0,0 UV-I 0 W/m 3,4 C 6,5 C 17,7 km/h (3 Bft) 97,92 %
19.04.2019 00:22 9,7 C 12,2 C 7,2 C 65 % 1026,1 hPa 0,0 l/m 13,5 km/h (3 Bft) O-NO 73 0 min 0,000 mm 0,0 UV-I 0 W/m 3,4 C 5,4 C 16,1 km/h (3 Bft) 97,14 %
19.04.2019 00:24 9,7 C 12,2 C 7,2 C 65 % 1026,1 hPa 0,0 l/m 11,7 km/h (2 Bft) O-NO 70 0 min 0,000 mm 0,0 UV-I 0 W/m 3,4 C 6,3 C 16,1 km/h (3 Bft) 98,21 %
19.04.2019 00:26 9,6 C 12,2 C 7,2 C 65 % 1026,2 hPa 0,0 l/m 12,5 km/h (3 Bft) O-NO 59 0 min 0,000 mm 0,0 UV-I 0 W/m 3,4 C 5,8 C 16,1 km/h (3 Bft) 97,73 %
19.04.2019 00:28 9,6 C 12,2 C 7,2 C 66 % 1026,2 hPa 0,0 l/m 12,4 km/h (3 Bft) O 86 0 min 0,000 mm 0,0 UV-I 0 W/m 3,6 C 5,9 C 17,7 km/h (3 Bft) 97,87 %
19.04.2019 00:30 9,4 C 12,2 C 7,2 C 66 % 1026,3 hPa 0,0 l/m 12,6 km/h (3 Bft) O-SO 102 0 min 0,000 mm 0,0 UV-I 0 W/m 3,4 C 5,5 C 16,1 km/h (3 Bft) 97,87 %
19.04.2019 00:32 9,4 C 12,2 C 7,2 C 66 % 1026,2 hPa 0,0 l/m 11,4 km/h (2 Bft) O-NO 76 0 min 0,000 mm 0,0 UV-I 0 W/m 3,4 C 6,1 C 14,5 km/h (3 Bft) 98,00 %
19.04.2019 00:34 9,4 C 12,2 C 6,7 C 66 % 1026,2 hPa 0,0 l/m 12,0 km/h (2 Bft) O-NO 73 0 min 0,000 mm 0,0 UV-I 0 W/m 3,4 C 5,8 C 16,1 km/h (3 Bft) 94,00 %
19.04.2019 00:36 9,4 C 12,2 C 6,7 C 66 % 1026,2 hPa 0,0 l/m 10,5 km/h (2 Bft) O-NO 65 0 min 0,000 mm 0,0 UV-I 0 W/m 3,4 C 6,6 C 12,9 km/h (3 Bft) 97,37 %
19.04.2019 00:38 9,4 C 12,2 C 6,7 C 66 % 1026,2 hPa 0,0 l/m 11,3 km/h (2 Bft) O 89 0 min 0,000 mm 0,0 UV-I 0 W/m 3,4 C 6,2 C 14,5 km/h (3 Bft) 98,00 %
19.04.2019 00:40 9,4 C 12,2 C 7,2 C 66 % 1026,2 hPa 0,0 l/m 10,7 km/h (2 Bft) O-NO 72 0 min 0,000 mm 0,0 UV-I 0 W/m 3,4 C 6,5 C 14,5 km/h (3 Bft) 98,00 %
19.04.2019 00:42 9,4 C 12,2 C 6,7 C 66 % 1026,2 hPa 0,0 l/m 10,4 km/h (2 Bft) O 90 0 min 0,000 mm 0,0 UV-I 0 W/m 3,4 C 6,7 C 16,1 km/h (3 Bft) 97,37 %
19.04.2019 00:44 9,4 C 12,2 C 6,7 C 66 % 1026,2 hPa 0,0 l/m 10,5 km/h (2 Bft) O 80 0 min 0,000 mm 0,0 UV-I 0 W/m 3,4 C 6,6 C 12,9 km/h (3 Bft) 98,11 %
19.04.2019 00:46 9,4 C 12,2 C 6,7 C 66 % 1026,2 hPa 0,0 l/m 9,6 km/h (2 Bft) O 93 0 min 0,000 mm 0,0 UV-I 0 W/m 3,4 C 7,2 C 12,9 km/h (3 Bft) 97,87 %
19.04.2019 00:48 9,4 C 12,2 C 6,7 C 66 % 1026,3 hPa 0,0 l/m 9,0 km/h (2 Bft) O 92 0 min 0,000 mm 0,0 UV-I 0 W/m 3,4 C 7,6 C 12,9 km/h (3 Bft) 95,12 %
19.04.2019 00:50 9,4 C 12,2 C 6,7 C 66 % 1026,3 hPa 0,0 l/m 10,1 km/h (2 Bft) O-NO 75 0 min 0,000 mm 0,0 UV-I 0 W/m 3,4 C 6,9 C 14,5 km/h (3 Bft) 98,00 %
19.04.2019 00:52 9,4 C 12,2 C 6,7 C 66 % 1026,2 hPa 0,0 l/m 10,0 km/h (2 Bft) O-NO 62 0 min 0,000 mm 0,0 UV-I 0 W/m 3,4 C 6,9 C 14,5 km/h (3 Bft) 98,11 %
19.04.2019 00:54 9,4 C 12,2 C 6,7 C 66 % 1026,3 hPa 0,0 l/m 9,8 km/h (2 Bft) O-NO 66 0 min 0,000 mm 0,0 UV-I 0 W/m 3,4 C 7,1 C 12,9 km/h (3 Bft) 96,30 %
19.04.2019 00:56 9,3 C 12,2 C 6,7 C 66 % 1026,3 hPa 0,0 l/m 9,7 km/h (2 Bft) O-NO 78 0 min 0,000 mm 0,0 UV-I 0 W/m 3,3 C 7,0 C 12,9 km/h (3 Bft) 98,44 %
19.04.2019 00:58 9,3 C 12,2 C 6,7 C 66 % 1026,4 hPa 0,0 l/m 8,0 km/h (2 Bft) O 95 0 min 0,000 mm 0,0 UV-I 0 W/m 3,3 C 8,1 C 11,3 km/h (2 Bft) 91,67 %
19.04.2019 01:00 9,3 C 12,2 C 6,1 C 67 % 1026,3 hPa 0,0 l/m 7,6 km/h (2 Bft) O 96 0 min 0,051 mm 0,0 UV-I 0 W/m 3,5 C 8,4 C 11,3 km/h (2 Bft) 96,00 %
19.04.2019 01:02 9,2 C 12,2 C 6,1 C 67 % 1026,3 hPa 0,0 l/m 7,2 km/h (2 Bft) O 90 0 min 0,000 mm 0,0 UV-I 0 W/m 3,4 C 8,6 C 11,3 km/h (2 Bft) 94,74 %
19.04.2019 01:04 9,2 C 12,2 C 6,1 C 67 % 1026,3 hPa 0,0 l/m 7,5 km/h (2 Bft) O 96 0 min 0,000 mm 0,0 UV-I 0 W/m 3,4 C 8,4 C 11,3 km/h (2 Bft) 98,00 %
19.04.2019 01:06 9,1 C 12,2 C 5,6 C 67 % 1026,4 hPa 0,0 l/m 8,2 km/h (2 Bft) O-SO 105 0 min 0,000 mm 0,0 UV-I 0 W/m 3,3 C 7,8 C 12,9 km/h (3 Bft) 96,00 %
19.04.2019 01:08 9,1 C 12,2 C 5,6 C 67 % 1026,3 hPa 0,0 l/m 9,1 km/h (2 Bft) O-SO 113 0 min 0,000 mm 0,0 UV-I 0 W/m 3,3 C 7,2 C 12,9 km/h (3 Bft) 97,44 %
19.04.2019 01:10 9,0 C 12,2 C 5,6 C 68 % 1026,4 hPa 0,0 l/m 7,3 km/h (2 Bft) O-SO 109 0 min 0,000 mm 0,0 UV-I 0 W/m 3,4 C 8,3 C 11,3 km/h (2 Bft) 97,87 %
19.04.2019 01:12 9,1 C 12,2 C 5,6 C 67 % 1026,4 hPa 0,0 l/m 5,4 km/h (1 Bft) O-SO 106 0 min 0,000 mm 0,0 UV-I 0 W/m 3,3 C 9,1 C 11,3 km/h (2 Bft) 98,11 %
19.04.2019 01:14 9,1 C 12,2 C 5,6 C 67 % 1026,4 hPa 0,0 l/m 6,1 km/h (2 Bft) O-SO 105 0 min 0,000 mm 0,0 UV-I 0 W/m 3,3 C 9,1 C 11,3 km/h (2 Bft) 98,00 %
19.04.2019 01:16 9,1 C 12,2 C 5,0 C 67 % 1026,4 hPa 0,0 l/m 6,4 km/h (2 Bft) O 93 0 min 0,000 mm 0,0 UV-I 0 W/m 3,3 C 9,1 C 9,7 km/h (2 Bft) 97,37 %
19.04.2019 01:18 9,2 C 12,2 C 5,0 C 67 % 1026,4 hPa 0,0 l/m 6,7 km/h (2 Bft) O 95 0 min 0,000 mm 0,0 UV-I 0 W/m 3,4 C 9,0 C 11,3 km/h (2 Bft) 98,11 %
19.04.2019 01:20 9,2 C 12,2 C 5,6 C 67 % 1026,3 hPa 0,0 l/m 6,2 km/h (2 Bft) O 98 0 min 0,000 mm 0,0 UV-I 0 W/m 3,4 C 9,2 C 11,3 km/h (2 Bft) 97,73 %
19.04.2019 01:22 9,3 C 12,2 C 5,6 C 67 % 1026,4 hPa 0,0 l/m 7,7 km/h (2 Bft) SO 128 0 min 0,000 mm 0,0 UV-I 0 W/m 3,5 C 8,3 C 11,3 km/h (2 Bft) 96,23 %
19.04.2019 01:24 9,2 C 12,2 C 5,6 C 66 % 1026,4 hPa 0,0 l/m 6,9 km/h (2 Bft) S-SO 151 0 min 0,000 mm 0,0 UV-I 0 W/m 3,2 C 8,8 C 11,3 km/h (2 Bft) 94,29 %
19.04.2019 01:26 9,1 C 12,2 C 5,6 C 67 % 1026,3 hPa 0,0 l/m 7,3 km/h (2 Bft) O-SO 121 0 min 0,000 mm 0,0 UV-I 0 W/m 3,3 C 8,4 C 11,3 km/h (2 Bft) 98,31 %
19.04.2019 01:29 8,7 C 12,2 C 5,6 C 68 % 1026,4 hPa 0,0 l/m 10,2 km/h (2 Bft) O-SO 105 0 min 0,000 mm 0,0 UV-I 0 W/m 3,1 C 6,0 C 12,9 km/h (3 Bft) 96,92 %
19.04.2019 01:30 8,7 C 12,2 C 5,6 C 68 % 1026,4 hPa 0,0 l/m 10,1 km/h (2 Bft) O-SO 104 0 min 0,000 mm 0,0 UV-I 0 W/m 3,1 C 6,1 C 12,9 km/h (3 Bft) 100,00 %
19.04.2019 01:32 8,8 C 12,2 C 5,6 C 68 % 1026,3 hPa 0,0 l/m 10,1 km/h (2 Bft) O-SO 108 0 min 0,000 mm 0,0 UV-I 0 W/m 3,2 C 6,2 C 12,9 km/h (3 Bft) 97,62 %
19.04.2019 01:34 9,1 C 12,2 C 5,6 C 67 % 1026,3 hPa 0,0 l/m 13,8 km/h (3 Bft) O 101 0 min 0,000 mm 0,0 UV-I 0 W/m 3,3 C 4,6 C 16,1 km/h (3 Bft) 97,87 %
19.04.2019 01:36 9,3 C 12,2 C 6,1 C 66 % 1026,3 hPa 0,0 l/m 12,7 km/h (3 Bft) O 92 0 min 0,000 mm 0,0 UV-I 0 W/m 3,3 C 5,4 C 16,1 km/h (3 Bft) 97,73 %
19.04.2019 01:38 9,4 C 12,2 C 6,1 C 66 % 1026,3 hPa 0,0 l/m 10,8 km/h (2 Bft) O 98 0 min 0,000 mm 0,0 UV-I 0 W/m 3,4 C 6,5 C 14,5 km/h (3 Bft) 96,23 %
19.04.2019 01:40 9,4 C 12,2 C 6,1 C 65 % 1026,2 hPa 0,0 l/m 9,7 km/h (2 Bft) O 90 0 min 0,000 mm 0,0 UV-I 0 W/m 3,2 C 7,1 C 12,9 km/h (3 Bft) 96,00 %
19.04.2019 01:42 9,3 C 12,2 C 6,1 C 66 % 1026,3 hPa 0,0 l/m 9,9 km/h (2 Bft) O 86 0 min 0,000 mm 0,0 UV-I 0 W/m 3,3 C 6,9 C 12,9 km/h (3 Bft) 97,37 %
19.04.2019 01:44 9,3 C 12,2 C 5,6 C 66 % 1026,3 hPa 0,0 l/m 8,3 km/h (2 Bft) O 91 0 min 0,000 mm 0,0 UV-I 0 W/m 3,3 C 7,9 C 12,9 km/h (3 Bft) 98,00 %
19.04.2019 01:46 9,2 C 12,2 C 5,6 C 66 % 1026,3 hPa 0,0 l/m 8,8 km/h (2 Bft) O 96 0 min 0,000 mm 0,0 UV-I 0 W/m 3,2 C 7,5 C 14,5 km/h (3 Bft) 97,87 %
19.04.2019 01:48 9,1 C 12,2 C 5,6 C 66 % 1026,3 hPa 0,0 l/m 7,9 km/h (2 Bft) O-NO 78 0 min 0,000 mm 0,0 UV-I 0 W/m 3,1 C 8,0 C 12,9 km/h (3 Bft) 98,11 %
19.04.2019 01:50 9,1 C 12,2 C 6,1 C 66 % 1026,3 hPa 0,0 l/m 8,1 km/h (2 Bft) O-NO 65 0 min 0,000 mm 0,0 UV-I 0 W/m 3,1 C 7,8 C 12,9 km/h (3 Bft) 97,87 %
19.04.2019 01:52 9,1 C 12,2 C 6,1 C 66 % 1026,3 hPa 0,0 l/m 8,1 km/h (2 Bft) O-NO 74 0 min 0,000 mm 0,0 UV-I 0 W/m 3,1 C 7,8 C 12,9 km/h (3 Bft) 97,37 %
19.04.2019 01:54 9,0 C 12,2 C 6,1 C 67 % 1026,3 hPa 0,0 l/m 8,5 km/h (2 Bft) O-NO 78 0 min 0,000 mm 0,0 UV-I 0 W/m 3,2 C 7,5 C 12,9 km/h (3 Bft) 97,56 %
19.04.2019 01:56 9,0 C 12,2 C 6,1 C 67 % 1026,3 hPa 0,0 l/m 9,2 km/h (2 Bft) O-NO 69 0 min 0,000 mm 0,0 UV-I 0 W/m 3,2 C 7,0 C 12,9 km/h (3 Bft) 96,61 %
19.04.2019 01:58 9,1 C 12,2 C 6,1 C 67 % 1026,2 hPa 0,0 l/m 9,4 km/h (2 Bft) O-NO 69 0 min 0,000 mm 0,0 UV-I 0 W/m 3,3 C 7,0 C 12,9 km/h (3 Bft) 95,74 %
19.04.2019 02:00 9,1 C 12,2 C 6,1 C 66 % 1026,2 hPa 0,0 l/m 11,9 km/h (2 Bft) O-NO 73 0 min 0,025 mm 0,0 UV-I 0 W/m 3,1 C 5,5 C 19,3 km/h (3 Bft) 97,87 %
19.04.2019 02:02 9,2 C 12,2 C 6,1 C 65 % 1026,3 hPa 0,0 l/m 9,5 km/h (2 Bft) O-NO 77 0 min 0,000 mm 0,0 UV-I 0 W/m 3,0 C 7,0 C 14,5 km/h (3 Bft) 97,37 %
19.04.2019 02:04 9,2 C 12,2 C 6,1 C 66 % 1026,3 hPa 0,0 l/m 9,6 km/h (2 Bft) O 79 0 min 0,000 mm 0,0 UV-I 0 W/m 3,2 C 7,0 C 12,9 km/h (3 Bft) 95,74 %
19.04.2019 02:06 9,1 C 12,2 C 6,1 C 66 % 1026,3 hPa 0,0 l/m 8,2 km/h (2 Bft) O-NO 65 0 min 0,000 mm 0,0 UV-I 0 W/m 3,1 C 7,8 C 12,9 km/h (3 Bft) 92,45 %
19.04.2019 02:08 8,9 C 12,2 C 6,1 C 66 % 1026,3 hPa 0,0 l/m 7,5 km/h (2 Bft) O-NO 72 0 min 0,000 mm 0,0 UV-I 0 W/m 2,9 C 8,1 C 11,3 km/h (2 Bft) 95,24 %
19.04.2019 02:10 8,9 C 12,2 C 6,1 C 66 % 1026,3 hPa 0,0 l/m 7,8 km/h (2 Bft) NO 55 0 min 0,000 mm 0,0 UV-I 0 W/m 2,9 C 7,8 C 11,3 km/h (2 Bft) 94,34 %
19.04.2019 02:12 8,6 C 12,2 C 5,6 C 67 % 1026,3 hPa 0,0 l/m 7,8 km/h (2 Bft) NO 54 0 min 0,000 mm 0,0 UV-I 0 W/m 2,8 C 7,5 C 9,7 km/h (2 Bft) 94,74 %
19.04.2019 02:14 8,3 C 12,2 C 5,6 C 68 % 1026,3 hPa 0,0 l/m 8,4 km/h (2 Bft) O-NO 67 0 min 0,000 mm 0,0 UV-I 0 W/m 2,7 C 6,8 C 11,3 km/h (2 Bft) 96,00 %
19.04.2019 02:16 8,2 C 12,2 C 5,6 C 68 % 1026,3 hPa 0,0 l/m 7,3 km/h (2 Bft) NO 41 0 min 0,000 mm 0,0 UV-I 0 W/m 2,7 C 7,5 C 11,3 km/h (2 Bft) 96,00 %
19.04.2019 02:18 8,2 C 12,2 C 5,6 C 69 % 1026,3 hPa 0,0 l/m 7,5 km/h (2 Bft) NO 54 0 min 0,000 mm 0,0 UV-I 0 W/m 2,9 C 7,3 C 9,7 km/h (2 Bft) 96,00 %
19.04.2019 02:20 8,2 C 12,2 C 5,6 C 69 % 1026,3 hPa 0,0 l/m 8,0 km/h (2 Bft) O-NO 61 0 min 0,000 mm 0,0 UV-I 0 W/m 2,9 C 7,0 C 9,7 km/h (2 Bft) 95,12 %
19.04.2019 02:22 8,2 C 12,2 C 5,0 C 69 % 1026,3 hPa 0,0 l/m 7,5 km/h (2 Bft) O-NO 71 0 min 0,000 mm 0,0 UV-I 0 W/m 2,9 C 7,3 C 9,7 km/h (2 Bft) 95,12 %
19.04.2019 02:24 8,3 C 12,2 C 5,0 C 68 % 1026,4 hPa 0,0 l/m 6,2 km/h (2 Bft) O-NO 66 0 min 0,000 mm 0,0 UV-I 0 W/m 2,7 C 8,3 C 8,0 km/h (2 Bft) 96,30 %
19.04.2019 02:26 8,4 C 12,2 C 4,4 C 68 % 1026,4 hPa 0,0 l/m 5,9 km/h (2 Bft) O-NO 67 0 min 0,000 mm 0,0 UV-I 0 W/m 2,8 C 8,4 C 6,4 km/h (2 Bft) 96,23 %
19.04.2019 02:28 8,6 C 12,2 C 4,4 C 68 % 1026,4 hPa 0,0 l/m 8,1 km/h (2 Bft) O-NO 76 0 min 0,000 mm 0,0 UV-I 0 W/m 3,0 C 7,3 C 12,9 km/h (3 Bft) 97,14 %
19.04.2019 02:30 8,7 C 12,2 C 4,4 C 67 % 1026,3 hPa 0,0 l/m 7,3 km/h (2 Bft) O-NO 69 0 min 0,000 mm 0,0 UV-I 0 W/m 2,9 C 8,0 C 11,3 km/h (2 Bft) 98,00 %
19.04.2019 02:32 8,7 C 12,2 C 4,4 C 66 % 1026,4 hPa 0,0 l/m 8,0 km/h (2 Bft) O 91 0 min 0,000 mm 0,0 UV-I 0 W/m 2,7 C 7,5 C 11,3 km/h (2 Bft) 96,00 %
19.04.2019 02:34 8,3 C 12,2 C 4,4 C 68 % 1026,3 hPa 0,0 l/m 7,1 km/h (2 Bft) O 90 0 min 0,000 mm 0,0 UV-I 0 W/m 2,7 C 7,8 C 11,3 km/h (2 Bft) 95,12 %
19.04.2019 02:36 8,2 C 12,2 C 3,9 C 68 % 1026,3 hPa 0,0 l/m 9,0 km/h (2 Bft) O 98 0 min 0,000 mm 0,0 UV-I 0 W/m 2,7 C 6,3 C 12,9 km/h (3 Bft) 96,43 %
19.04.2019 02:38 8,2 C 12,2 C 3,9 C 69 % 1026,3 hPa 0,0 l/m 9,9 km/h (2 Bft) O 93 0 min 0,000 mm 0,0 UV-I 0 W/m 2,9 C 5,7 C 14,5 km/h (3 Bft) 98,00 %
19.04.2019 02:40 8,5 C 12,2 C 4,4 C 67 % 1026,3 hPa 0,0 l/m 10,9 km/h (2 Bft) O 85 0 min 0,000 mm 0,0 UV-I 0 W/m 2,7 C 5,4 C 14,5 km/h (3 Bft) 97,37 %
19.04.2019 02:42 8,7 C 12,2 C 4,4 C 67 % 1026,3 hPa 0,0 l/m 11,1 km/h (2 Bft) O-NO 57 0 min 0,000 mm 0,0 UV-I 0 W/m 2,9 C 5,5 C 16,1 km/h (3 Bft) 98,11 %
19.04.2019 02:44 8,8 C 12,2 C 4,4 C 66 % 1026,3 hPa 0,0 l/m 10,3 km/h (2 Bft) O 86 0 min 0,000 mm 0,0 UV-I 0 W/m 2,8 C 6,1 C 14,5 km/h (3 Bft) 97,44 %
19.04.2019 02:46 8,9 C 12,2 C 5,0 C 66 % 1026,3 hPa 0,0 l/m 11,1 km/h (2 Bft) O 84 0 min 0,000 mm 0,0 UV-I 0 W/m 2,9 C 5,7 C 14,5 km/h (3 Bft) 97,87 %
19.04.2019 02:48 8,9 C 12,2 C 5,0 C 66 % 1026,3 hPa 0,0 l/m 11,1 km/h (2 Bft) O 94 0 min 0,000 mm 0,0 UV-I 0 W/m 2,9 C 5,7 C 14,5 km/h (3 Bft) 98,11 %
19.04.2019 02:50 8,9 C 12,2 C 5,6 C 66 % 1026,3 hPa 0,0 l/m 11,8 km/h (2 Bft) O-NO 76 0 min 0,000 mm 0,0 UV-I 0 W/m 2,9 C 5,4 C 16,1 km/h (3 Bft) 97,37 %
19.04.2019 02:52 9,0 C 12,2 C 5,6 C 65 % 1026,3 hPa 0,0 l/m 11,4 km/h (2 Bft) O 97 0 min 0,000 mm 0,0 UV-I 0 W/m 2,8 C 5,7 C 16,1 km/h (3 Bft) 98,11 %
19.04.2019 02:54 8,9 C 12,2 C 5,6 C 65 % 1026,3 hPa 0,0 l/m 8,9 km/h (2 Bft) O-SO 113 0 min 0,000 mm 0,0 UV-I 0 W/m 2,7 C 7,1 C 14,5 km/h (3 Bft) 96,23 %
19.04.2019 02:56 8,8 C 12,2 C 5,6 C 66 % 1026,3 hPa 0,0 l/m 9,9 km/h (2 Bft) O 80 0 min 0,000 mm 0,0 UV-I 0 W/m 2,8 C 6,3 C 12,9 km/h (3 Bft) 100,00 %
19.04.2019 02:58 8,8 C 12,2 C 5,6 C 66 % 1026,2 hPa 0,0 l/m 10,6 km/h (2 Bft) O-NO 68 0 min 0,000 mm 0,0 UV-I 0 W/m 2,8 C 5,9 C 14,5 km/h (3 Bft) 100,00 %
19.04.2019 03:00 8,8 C 12,2 C 5,6 C 66 % 1026,3 hPa 0,0 l/m 11,4 km/h (2 Bft) O 101 0 min 0,026 mm 0,0 UV-I 0 W/m 2,8 C 5,5 C 14,5 km/h (3 Bft) 98,00 %
19.04.2019 03:02 8,8 C 12,2 C 6,1 C 66 % 1026,4 hPa 0,0 l/m 13,2 km/h (3 Bft) O-NO 71 0 min 0,000 mm 0,0 UV-I 0 W/m 2,8 C 4,5 C 17,7 km/h (3 Bft) 97,37 %
19.04.2019 03:04 8,8 C 12,2 C 6,1 C 65 % 1026,3 hPa 0,0 l/m 11,6 km/h (2 Bft) O 92 0 min 0,000 mm 0,0 UV-I 0 W/m 2,6 C 5,3 C 16,1 km/h (3 Bft) 100,00 %
19.04.2019 03:06 8,8 C 12,2 C 6,1 C 66 % 1026,3 hPa 0,0 l/m 12,9 km/h (3 Bft) O 82 0 min 0,000 mm 0,0 UV-I 0 W/m 2,8 C 4,7 C 16,1 km/h (3 Bft) 100,00 %
19.04.2019 03:08 8,8 C 12,2 C 6,1 C 66 % 1026,3 hPa 0,0 l/m 13,3 km/h (3 Bft) O 95 0 min 0,000 mm 0,0 UV-I 0 W/m 2,8 C 4,5 C 16,1 km/h (3 Bft) 100,00 %
19.04.2019 03:10 8,7 C 12,2 C 5,6 C 66 % 1026,3 hPa 0,0 l/m 13,9 km/h (3 Bft) O 95 0 min 0,000 mm 0,0 UV-I 0 W/m 2,7 C 4,1 C 16,1 km/h (3 Bft) 100,00 %
19.04.2019 03:12 8,8 C 12,2 C 5,6 C 66 % 1026,3 hPa 0,0 l/m 13,5 km/h (3 Bft) O 96 0 min 0,000 mm 0,0 UV-I 0 W/m 2,8 C 4,4 C 19,3 km/h (3 Bft) 98,00 %
19.04.2019 03:14 8,9 C 12,2 C 6,1 C 66 % 1026,3 hPa 0,0 l/m 13,8 km/h (3 Bft) O 101 0 min 0,000 mm 0,0 UV-I 0 W/m 2,9 C 4,3 C 17,7 km/h (3 Bft) 100,00 %
19.04.2019 03:16 8,9 C 12,2 C 6,1 C 65 % 1026,2 hPa 0,0 l/m 13,6 km/h (3 Bft) O 94 0 min 0,000 mm 0,0 UV-I 0 W/m 2,7 C 4,4 C 16,1 km/h (3 Bft) 100,00 %
19.04.2019 03:18 8,8 C 12,2 C 6,1 C 65 % 1026,3 hPa 0,0 l/m 14,0 km/h (3 Bft) O 92 0 min 0,000 mm 0,0 UV-I 0 W/m 2,6 C 4,1 C 17,7 km/h (3 Bft) 100,00 %
19.04.2019 03:20 8,7 C 12,2 C 6,1 C 66 % 1026,3 hPa 0,0 l/m 12,9 km/h (3 Bft) O 99 0 min 0,000 mm 0,0 UV-I 0 W/m 2,7 C 4,6 C 16,1 km/h (3 Bft) 100,00 %
19.04.2019 03:22 8,6 C 12,2 C 6,1 C 66 % 1026,2 hPa 0,0 l/m 11,8 km/h (2 Bft) O 98 0 min 0,000 mm 0,0 UV-I 0 W/m 2,6 C 5,0 C 16,1 km/h (3 Bft) 100,00 %
19.04.2019 03:24 8,5 C 12,2 C 6,1 C 67 % 1026,3 hPa 0,0 l/m 11,1 km/h (2 Bft) O 93 0 min 0,000 mm 0,0 UV-I 0 W/m 2,7 C 5,3 C 16,1 km/h (3 Bft) 93,62 %
19.04.2019 03:26 8,4 C 12,2 C 6,1 C 67 % 1026,3 hPa 0,0 l/m 11,5 km/h (2 Bft) O 99 0 min 0,000 mm 0,0 UV-I 0 W/m 2,6 C 4,9 C 16,1 km/h (3 Bft) 96,23 %
19.04.2019 03:28 8,3 C 12,2 C 6,1 C 67 % 1026,3 hPa 0,0 l/m 10,3 km/h (2 Bft) O 96 0 min 0,000 mm 0,0 UV-I 0 W/m 2,5 C 5,5 C 14,5 km/h (3 Bft) 97,87 %
19.04.2019 03:30 8,2 C 12,2 C 5,6 C 68 % 1026,3 hPa 0,0 l/m 10,5 km/h (2 Bft) O 96 0 min 0,000 mm 0,0 UV-I 0 W/m 2,7 C 5,3 C 12,9 km/h (3 Bft) 97,44 %
19.04.2019 03:32 8,2 C 12,2 C 5,6 C 68 % 1026,3 hPa 0,0 l/m 8,0 km/h (2 Bft) O-NO 76 0 min 0,000 mm 0,0 UV-I 0 W/m 2,7 C 7,0 C 12,9 km/h (3 Bft) 98,11 %
19.04.2019 03:34 8,1 C 12,2 C 5,6 C 68 % 1026,3 hPa 0,0 l/m 8,2 km/h (2 Bft) O 83 0 min 0,000 mm 0,0 UV-I 0 W/m 2,6 C 6,7 C 12,9 km/h (3 Bft) 96,00 %
19.04.2019 03:36 8,1 C 12,2 C 5,6 C 69 % 1026,3 hPa 0,0 l/m 9,8 km/h (2 Bft) O-NO 77 0 min 0,000 mm 0,0 UV-I 0 W/m 2,8 C 5,6 C 12,9 km/h (3 Bft) 95,65 %
19.04.2019 03:38 8,1 C 12,2 C 5,6 C 69 % 1026,3 hPa 0,0 l/m 6,2 km/h (2 Bft) O-NO 67 0 min 0,000 mm 0,0 UV-I 0 W/m 2,8 C 8,1 C 11,3 km/h (2 Bft) 95,59 %
19.04.2019 03:40 7,9 C 12,2 C 5,0 C 69 % 1026,3 hPa 0,0 l/m 4,6 km/h (1 Bft) O-NO 69 0 min 0,000 mm 0,0 UV-I 0 W/m 2,6 C 7,9 C 8,0 km/h (2 Bft) 97,37 %
19.04.2019 03:42 7,7 C 12,2 C 4,4 C 69 % 1026,3 hPa 0,0 l/m 4,9 km/h (1 Bft) O-NO 58 0 min 0,000 mm 0,0 UV-I 0 W/m 2,4 C 7,7 C 6,4 km/h (2 Bft) 97,87 %
19.04.2019 03:44 7,6 C 12,2 C 3,9 C 70 % 1026,3 hPa 0,0 l/m 4,5 km/h (1 Bft) O-NO 61 0 min 0,000 mm 0,0 UV-I 0 W/m 2,5 C 7,6 C 6,4 km/h (2 Bft) 98,00 %
19.04.2019 03:46 7,4 C 12,2 C 3,9 C 71 % 1026,3 hPa 0,0 l/m 5,0 km/h (1 Bft) O-NO 71 0 min 0,000 mm 0,0 UV-I 0 W/m 2,5 C 7,4 C 6,4 km/h (2 Bft) 98,11 %
19.04.2019 03:48 7,3 C 12,2 C 3,9 C 71 % 1026,3 hPa 0,0 l/m 4,9 km/h (1 Bft) O 79 0 min 0,000 mm 0,0 UV-I 0 W/m 2,4 C 7,3 C 6,4 km/h (2 Bft) 97,73 %
19.04.2019 03:50 7,3 C 12,2 C 3,9 C 71 % 1026,3 hPa 0,0 l/m 4,2 km/h (1 Bft) O 79 0 min 0,000 mm 0,0 UV-I 0 W/m 2,4 C 7,3 C 6,4 km/h (2 Bft) 100,00 %
19.04.2019 03:52 7,3 C 12,2 C 3,9 C 71 % 1026,3 hPa 0,0 l/m 6,0 km/h (2 Bft) O 101 0 min 0,000 mm 0,0 UV-I 0 W/m 2,4 C 7,3 C 9,7 km/h (2 Bft) 100,00 %
19.04.2019 03:54 7,4 C 12,2 C 3,9 C 71 % 1026,3 hPa 0,0 l/m 7,4 km/h (2 Bft) O-SO 106 0 min 0,000 mm 0,0 UV-I 0 W/m 2,5 C 6,6 C 11,3 km/h (2 Bft) 100,00 %
19.04.2019 03:56 7,5 C 12,2 C 4,4 C 71 % 1026,3 hPa 0,0 l/m 5,9 km/h (2 Bft) O-NO 77 0 min 0,000 mm 0,0 UV-I 0 W/m 2,6 C 7,5 C 11,3 km/h (2 Bft) 97,56 %
19.04.2019 03:58 7,6 C 12,2 C 3,9 C 71 % 1026,3 hPa 0,0 l/m 4,2 km/h (1 Bft) O 92 0 min 0,000 mm 0,0 UV-I 0 W/m 2,7 C 7,6 C 6,4 km/h (2 Bft) 100,00 %
19.04.2019 04:00 7,7 C 12,2 C 3,9 C 70 % 1026,3 hPa 0,0 l/m 4,4 km/h (1 Bft) O 98 0 min 0,025 mm 0,0 UV-I 0 W/m 2,6 C 7,7 C 6,4 km/h (2 Bft) 100,00 %
19.04.2019 04:02 7,7 C 12,2 C 3,9 C 70 % 1026,3 hPa 0,0 l/m 3,5 km/h (1 Bft) O 98 0 min 0,000 mm 0,0 UV-I 0 W/m 2,6 C 7,7 C 6,4 km/h (2 Bft) 100,00 %
19.04.2019 04:04 7,7 C 12,2 C 3,9 C 70 % 1026,3 hPa 0,0 l/m 4,2 km/h (1 Bft) O 84 0 min 0,000 mm 0,0 UV-I 0 W/m 2,6 C 7,7 C 6,4 km/h (2 Bft) 100,00 %
19.04.2019 04:06 7,6 C 12,2 C 3,3 C 70 % 1026,3 hPa 0,0 l/m 4,2 km/h (1 Bft) O-NO 62 0 min 0,000 mm 0,0 UV-I 0 W/m 2,5 C 7,6 C 6,4 km/h (2 Bft) 100,00 %
19.04.2019 04:08 7,3 C 12,2 C 3,3 C 71 % 1026,3 hPa 0,0 l/m 6,2 km/h (2 Bft) O-NO 78 0 min 0,000 mm 0,0 UV-I 0 W/m 2,4 C 7,3 C 9,7 km/h (2 Bft) 98,39 %
19.04.2019 04:10 7,2 C 12,2 C 3,9 C 71 % 1026,3 hPa 0,0 l/m 5,0 km/h (1 Bft) O-NO 76 0 min 0,000 mm 0,0 UV-I 0 W/m 2,3 C 7,2 C 8,0 km/h (2 Bft) 100,00 %
19.04.2019 04:12 7,2 C 12,2 C 3,9 C 71 % 1026,3 hPa 0,0 l/m 5,2 km/h (1 Bft) O-NO 75 0 min 0,000 mm 0,0 UV-I 0 W/m 2,3 C 7,2 C 9,7 km/h (2 Bft) 100,00 %
19.04.2019 04:14 7,2 C 12,2 C 3,9 C 72 % 1026,3 hPa 0,0 l/m 4,5 km/h (1 Bft) O 98 0 min 0,000 mm 0,0 UV-I 0 W/m 2,5 C 7,2 C 6,4 km/h (2 Bft) 100,00 %
19.04.2019 04:16 7,2 C 12,2 C 3,3 C 72 % 1026,3 hPa 0,0 l/m 5,1 km/h (1 Bft) O 98 0 min 0,000 mm 0,0 UV-I 0 W/m 2,5 C 7,2 C 6,4 km/h (2 Bft) 100,00 %
19.04.2019 04:18 7,4 C 12,2 C 3,3 C 71 % 1026,2 hPa 0,0 l/m 5,4 km/h (1 Bft) O 96 0 min 0,000 mm 0,0 UV-I 0 W/m 2,5 C 7,4 C 6,4 km/h (2 Bft) 100,00 %
19.04.2019 04:20 7,6 C 12,2 C 3,9 C 70 % 1026,2 hPa 0,0 l/m 4,4 km/h (1 Bft) O-SO 103 0 min 0,000 mm 0,0 UV-I 0 W/m 2,5 C 7,6 C 6,4 km/h (2 Bft) 100,00 %
19.04.2019 04:22 7,7 C 12,2 C 3,3 C 70 % 1026,3 hPa 0,0 l/m 4,9 km/h (1 Bft) O 90 0 min 0,000 mm 0,0 UV-I 0 W/m 2,6 C 7,7 C 6,4 km/h (2 Bft) 98,00 %
19.04.2019 04:24 7,7 C 12,2 C 3,3 C 70 % 1026,3 hPa 0,0 l/m 4,9 km/h (1 Bft) O 90 0 min 0,000 mm 0,0 UV-I 0 W/m 2,6 C 7,7 C 8,0 km/h (2 Bft) 95,74 %
19.04.2019 04:26 7,7 C 12,2 C 3,3 C 69 % 1026,3 hPa 0,0 l/m 4,9 km/h (1 Bft) O 92 0 min 0,000 mm 0,0 UV-I 0 W/m 2,4 C 7,7 C 6,4 km/h (2 Bft) 100,00 %
19.04.2019 04:28 7,7 C 12,2 C 2,8 C 69 % 1026,2 hPa 0,0 l/m 5,6 km/h (1 Bft) O-NO 75 0 min 0,000 mm 0,0 UV-I 0 W/m 2,4 C 7,7 C 6,4 km/h (2 Bft) 98,00 %
19.04.2019 04:30 7,7 C 12,2 C 2,8 C 69 % 1026,3 hPa 0,0 l/m 6,1 km/h (2 Bft) O-NO 72 0 min 0,000 mm 0,0 UV-I 0 W/m 2,4 C 7,7 C 8,0 km/h (2 Bft) 97,14 %
19.04.2019 04:32 7,7 C 12,2 C 2,8 C 69 % 1026,3 hPa 0,0 l/m 6,2 km/h (2 Bft) O-NO 73 0 min 0,000 mm 0,0 UV-I 0 W/m 2,4 C 7,7 C 8,0 km/h (2 Bft) 96,00 %
19.04.2019 04:34 7,6 C 12,2 C 2,8 C 69 % 1026,3 hPa 0,0 l/m 6,3 km/h (2 Bft) O 79 0 min 0,000 mm 0,0 UV-I 0 W/m 2,3 C 7,6 C 11,3 km/h (2 Bft) 96,55 %
19.04.2019 04:36 7,5 C 12,2 C 2,8 C 70 % 1026,3 hPa 0,0 l/m 7,0 km/h (2 Bft) O 97 0 min 0,000 mm 0,0 UV-I 0 W/m 2,4 C 7,0 C 11,3 km/h (2 Bft) 97,56 %
19.04.2019 04:38 7,4 C 12,2 C 3,3 C 70 % 1026,3 hPa 0,0 l/m 8,1 km/h (2 Bft) O-NO 77 0 min 0,000 mm 0,0 UV-I 0 W/m 2,3 C 6,0 C 12,9 km/h (3 Bft) 95,74 %
19.04.2019 04:40 7,4 C 12,2 C 3,3 C 70 % 1026,3 hPa 0,0 l/m 8,6 km/h (2 Bft) O 80 0 min 0,000 mm 0,0 UV-I 0 W/m 2,3 C 5,7 C 11,3 km/h (2 Bft) 97,44 %
19.04.2019 04:42 7,4 C 11,7 C 3,9 C 70 % 1026,2 hPa 0,0 l/m 8,7 km/h (2 Bft) O 91 0 min 0,000 mm 0,0 UV-I 0 W/m 2,3 C 5,6 C 11,3 km/h (2 Bft) 94,64 %
19.04.2019 04:44 7,4 C 11,7 C 3,9 C 70 % 1026,3 hPa 0,0 l/m 9,7 km/h (2 Bft) O 100 0 min 0,000 mm 0,0 UV-I 0 W/m 2,3 C 4,9 C 12,9 km/h (3 Bft) 93,62 %
19.04.2019 04:46 7,4 C 11,7 C 3,9 C 71 % 1026,3 hPa 0,0 l/m 8,8 km/h (2 Bft) O 93 0 min 0,000 mm 0,0 UV-I 0 W/m 2,5 C 5,5 C 11,3 km/h (2 Bft) 95,45 %
19.04.2019 04:48 7,4 C 11,7 C 3,9 C 71 % 1026,3 hPa 0,0 l/m 7,8 km/h (2 Bft) O 82 0 min 0,000 mm 0,0 UV-I 0 W/m 2,5 C 6,3 C 11,3 km/h (2 Bft) 95,45 %
19.04.2019 04:50 7,4 C 11,7 C 3,9 C 70 % 1026,3 hPa 0,0 l/m 8,0 km/h (2 Bft) O 85 0 min 0,000 mm 0,0 UV-I 0 W/m 2,3 C 6,1 C 11,3 km/h (2 Bft) 92,45 %
19.04.2019 04:52 7,4 C 11,7 C 3,9 C 70 % 1026,3 hPa 0,0 l/m 8,3 km/h (2 Bft) O 93 0 min 0,000 mm 0,0 UV-I 0 W/m 2,3 C 5,9 C 12,9 km/h (3 Bft) 97,56 %
19.04.2019 04:54 7,4 C 11,7 C 3,9 C 70 % 1026,3 hPa 0,0 l/m 9,3 km/h (2 Bft) O-NO 68 0 min 0,000 mm 0,0 UV-I 0 W/m 2,3 C 5,2 C 12,9 km/h (3 Bft) 94,00 %
19.04.2019 04:56 7,3 C 11,7 C 3,9 C 70 % 1026,3 hPa 0,0 l/m 9,4 km/h (2 Bft) O-SO 111 0 min 0,000 mm 0,0 UV-I 0 W/m 2,2 C 5,0 C 14,5 km/h (3 Bft) 94,34 %
19.04.2019 04:58 7,2 C 11,7 C 3,9 C 70 % 1026,4 hPa 0,0 l/m 11,5 km/h (2 Bft) O 101 0 min 0,000 mm 0,0 UV-I 0 W/m 2,1 C 3,6 C 14,5 km/h (3 Bft) 94,74 %
19.04.2019 05:00 7,2 C 11,7 C 3,9 C 71 % 1026,4 hPa 0,0 l/m 11,8 km/h (2 Bft) O-SO 107 0 min 0,025 mm 0,0 UV-I 0 W/m 2,3 C 3,4 C 16,1 km/h (3 Bft) 91,49 %
19.04.2019 05:02 7,3 C 11,7 C 3,9 C 71 % 1026,4 hPa 0,0 l/m 11,7 km/h (2 Bft) O 101 0 min 0,000 mm 0,0 UV-I 0 W/m 2,4 C 3,6 C 14,5 km/h (3 Bft) 98,11 %
19.04.2019 05:04 7,5 C 11,7 C 4,4 C 70 % 1026,4 hPa 0,0 l/m 11,5 km/h (2 Bft) O-NO 78 0 min 0,000 mm 0,0 UV-I 0 W/m 2,4 C 3,9 C 16,1 km/h (3 Bft) 97,37 %
19.04.2019 05:06 7,6 C 11,7 C 4,4 C 70 % 1026,4 hPa 0,0 l/m 11,7 km/h (2 Bft) O 97 0 min 0,000 mm 0,0 UV-I 0 W/m 2,5 C 3,9 C 14,5 km/h (3 Bft) 97,56 %
19.04.2019 05:08 7,6 C 11,7 C 4,4 C 69 % 1026,4 hPa 0,0 l/m 11,3 km/h (2 Bft) O 80 0 min 0,000 mm 0,0 UV-I 0 W/m 2,3 C 4,1 C 14,5 km/h (3 Bft) 96,43 %
19.04.2019 05:10 7,6 C 11,7 C 5,0 C 69 % 1026,4 hPa 0,0 l/m 12,6 km/h (3 Bft) O-NO 71 0 min 0,000 mm 0,0 UV-I 0 W/m 2,3 C 3,4 C 17,7 km/h (3 Bft) 97,73 %
19.04.2019 05:12 7,4 C 11,7 C 5,0 C 69 % 1026,4 hPa 0,0 l/m 12,4 km/h (3 Bft) O 84 0 min 0,000 mm 0,0 UV-I 0 W/m 2,1 C 3,3 C 16,1 km/h (3 Bft) 96,00 %
19.04.2019 05:14 7,2 C 11,7 C 5,0 C 70 % 1026,4 hPa 0,0 l/m 13,8 km/h (3 Bft) O 100 0 min 0,000 mm 0,0 UV-I 0 W/m 2,1 C 2,3 C 17,7 km/h (3 Bft) 98,11 %
19.04.2019 05:16 6,9 C 11,7 C 4,4 C 71 % 1026,4 hPa 0,0 l/m 14,4 km/h (3 Bft) O 97 0 min 0,000 mm 0,0 UV-I 0 W/m 2,0 C 1,7 C 19,3 km/h (3 Bft) 97,22 %
19.04.2019 05:18 6,9 C 11,7 C 4,4 C 72 % 1026,4 hPa 0,0 l/m 13,7 km/h (3 Bft) O 94 0 min 0,000 mm 0,0 UV-I 0 W/m 2,2 C 2,0 C 19,3 km/h (3 Bft) 98,11 %
19.04.2019 05:20 7,1 C 11,7 C 4,4 C 72 % 1026,4 hPa 0,0 l/m 12,9 km/h (3 Bft) O-SO 111 0 min 0,000 mm 0,0 UV-I 0 W/m 2,4 C 2,7 C 19,3 km/h (3 Bft) 95,74 %
19.04.2019 05:22 7,3 C 11,7 C 4,4 C 72 % 1026,4 hPa 0,0 l/m 14,5 km/h (3 Bft) O-SO 102 0 min 0,000 mm 0,0 UV-I 0 W/m 2,6 C 2,1 C 17,7 km/h (3 Bft) 97,87 %
19.04.2019 05:24 7,4 C 11,7 C 5,0 C 71 % 1026,5 hPa 0,0 l/m 12,2 km/h (2 Bft) O-NO 78 0 min 0,000 mm 0,0 UV-I 0 W/m 2,5 C 3,4 C 16,1 km/h (3 Bft) 98,00 %
19.04.2019 05:26 7,6 C 11,7 C 5,0 C 71 % 1026,5 hPa 0,0 l/m 12,8 km/h (3 Bft) O-NO 78 0 min 0,000 mm 0,0 UV-I 0 W/m 2,7 C 3,3 C 16,1 km/h (3 Bft) 98,00 %
19.04.2019 05:28 7,6 C 11,7 C 5,0 C 70 % 1026,5 hPa 0,0 l/m 10,4 km/h (2 Bft) O 86 0 min 0,000 mm 0,0 UV-I 0 W/m 2,5 C 4,7 C 14,5 km/h (3 Bft) 93,62 %
19.04.2019 05:30 7,6 C 11,7 C 5,0 C 70 % 1026,5 hPa 0,0 l/m 11,0 km/h (2 Bft) O 96 0 min 0,000 mm 0,0 UV-I 0 W/m 2,5 C 4,3 C 17,7 km/h (3 Bft) 97,73 %
19.04.2019 05:32 7,6 C 11,7 C 5,0 C 70 % 1026,5 hPa 0,0 l/m 12,2 km/h (2 Bft) O-SO 104 0 min 0,000 mm 0,0 UV-I 0 W/m 2,5 C 3,6 C 17,7 km/h (3 Bft) 100,00 %
19.04.2019 05:34 7,7 C 11,7 C 5,0 C 70 % 1026,5 hPa 0,0 l/m 9,5 km/h (2 Bft) O 86 0 min 0,000 mm 0,0 UV-I 0 W/m 2,6 C 5,4 C 14,5 km/h (3 Bft) 96,23 %
19.04.2019 05:36 7,6 C 11,7 C 4,4 C 70 % 1026,5 hPa 0,0 l/m 9,4 km/h (2 Bft) O 92 0 min 0,000 mm 0,0 UV-I 0 W/m 2,5 C 5,3 C 14,5 km/h (3 Bft) 97,56 %
19.04.2019 05:38 7,5 C 11,7 C 4,4 C 71 % 1026,5 hPa 0,0 l/m 8,2 km/h (2 Bft) O 94 0 min 0,000 mm 0,0 UV-I 0 W/m 2,6 C 6,1 C 12,9 km/h (3 Bft) 96,00 %
19.04.2019 05:40 7,4 C 11,7 C 4,4 C 71 % 1026,5 hPa 0,0 l/m 8,3 km/h (2 Bft) O 87 0 min 0,000 mm 0,0 UV-I 0 W/m 2,5 C 5,9 C 12,9 km/h (3 Bft) 98,00 %
19.04.2019 05:42 7,4 C 11,7 C 4,4 C 71 % 1026,5 hPa 0,0 l/m 8,8 km/h (2 Bft) O 92 0 min 0,000 mm 0,0 UV-I 0 W/m 2,5 C 5,5 C 14,5 km/h (3 Bft) 98,00 %
19.04.2019 05:44 7,3 C 11,7 C 4,4 C 71 % 1026,6 hPa 0,0 l/m 6,9 km/h (2 Bft) O 92 0 min 0,000 mm 0,0 UV-I 0 W/m 2,4 C 6,9 C 9,7 km/h (2 Bft) 97,14 %
19.04.2019 05:46 7,2 C 11,7 C 4,4 C 72 % 1026,7 hPa 0,0 l/m 2,8 km/h (1 Bft) O-SO 103 0 min 0,000 mm 0,0 UV-I 0 W/m 2,5 C 7,2 C 6,4 km/h (2 Bft) 98,11 %
19.04.2019 05:48 7,1 C 11,7 C 3,9 C 72 % 1026,7 hPa 0,0 l/m 2,8 km/h (1 Bft) SO 136 0 min 0,000 mm 0,0 UV-I 0 W/m 2,4 C 7,1 C 4,8 km/h (1 Bft) 97,87 %
19.04.2019 05:50 6,9 C 11,7 C 3,9 C 73 % 1026,8 hPa 0,0 l/m 1,2 km/h (1 Bft) SO 136 0 min 0,000 mm 0,0 UV-I 0 W/m 2,4 C 6,9 C 4,8 km/h (1 Bft) 95,74 %
19.04.2019 05:52 6,9 C 11,7 C 3,3 C 73 % 1026,8 hPa 0,0 l/m 1,2 km/h (1 Bft) SO 136 0 min 0,000 mm 0,0 UV-I 1 W/m 2,4 C 6,9 C 1,6 km/h (1 Bft) 95,74 %
19.04.2019 05:54 6,8 C 11,7 C 2,8 C 74 % 1026,8 hPa 0,0 l/m 0,6 km/h (0 Bft) SO 136 0 min 0,000 mm 0,0 UV-I 5 W/m 2,5 C 6,8 C 1,6 km/h (1 Bft) 97,62 %
19.04.2019 05:56 6,6 C 11,7 C 2,2 C 74 % 1026,8 hPa 0,0 l/m 0,7 km/h (0 Bft) SO 136 0 min 0,000 mm 0,0 UV-I 5 W/m 2,3 C 6,6 C 3,2 km/h (1 Bft) 94,00 %
19.04.2019 05:58 6,6 C 11,7 C 2,2 C 74 % 1026,8 hPa 0,0 l/m 1,7 km/h (1 Bft) SO 136 0 min 0,000 mm 0,0 UV-I 5 W/m 2,3 C 6,6 C 4,8 km/h (1 Bft) 94,00 %
19.04.2019 06:00 6,6 C 11,7 C 1,7 C 75 % 1026,8 hPa 0,0 l/m 2,0 km/h (1 Bft) SO 135 0 min 0,026 mm 0,0 UV-I 6 W/m 2,5 C 6,6 C 3,2 km/h (1 Bft) 95,12 %
19.04.2019 06:02 6,7 C 11,7 C 2,2 C 75 % 1026,8 hPa 0,0 l/m 3,8 km/h (1 Bft) O 79 0 min 0,000 mm 0,0 UV-I 7 W/m 2,6 C 6,7 C 4,8 km/h (1 Bft) 95,74 %
19.04.2019 06:04 6,7 C 11,7 C 2,2 C 75 % 1026,8 hPa 0,0 l/m 4,3 km/h (1 Bft) O-NO 78 0 min 0,000 mm 0,0 UV-I 7 W/m 2,6 C 6,7 C 9,7 km/h (2 Bft) 96,43 %
19.04.2019 06:06 6,8 C 11,7 C 2,2 C 74 % 1026,9 hPa 0,0 l/m 4,1 km/h (1 Bft) O-SO 105 0 min 0,000 mm 0,0 UV-I 9 W/m 2,5 C 6,8 C 9,7 km/h (2 Bft) 94,29 %
19.04.2019 06:08 6,9 C 11,7 C 2,2 C 74 % 1026,9 hPa 0,0 l/m 4,0 km/h (1 Bft) O-NO 76 0 min 0,000 mm 0,0 UV-I 9 W/m 2,6 C 6,9 C 8,0 km/h (2 Bft) 96,23 %
19.04.2019 06:10 6,9 C 11,7 C 2,8 C 74 % 1026,9 hPa 0,0 l/m 4,6 km/h (1 Bft) O-NO 76 0 min 0,000 mm 0,0 UV-I 10 W/m 2,6 C 6,9 C 8,0 km/h (2 Bft) 95,74 %
19.04.2019 06:12 6,8 C 11,7 C 2,8 C 74 % 1026,9 hPa 0,0 l/m 5,6 km/h (1 Bft) O-NO 75 0 min 0,000 mm 0,0 UV-I 11 W/m 2,5 C 6,8 C 8,0 km/h (2 Bft) 97,87 %
19.04.2019 06:14 6,8 C 11,7 C 2,8 C 75 % 1026,9 hPa 0,0 l/m 6,1 km/h (2 Bft) O-NO 70 0 min 0,000 mm 0,0 UV-I 12 W/m 2,7 C 6,8 C 9,7 km/h (2 Bft) 93,62 %
19.04.2019 06:16 6,9 C 11,7 C 3,3 C 75 % 1026,9 hPa 0,0 l/m 8,2 km/h (2 Bft) O-NO 78 0 min 0,000 mm 0,0 UV-I 15 W/m 2,8 C 5,4 C 12,9 km/h (3 Bft) 95,74 %
19.04.2019 06:18 7,1 C 11,7 C 3,9 C 75 % 1027,0 hPa 0,0 l/m 6,9 km/h (2 Bft) O-NO 61 2 min 0,000 mm 0,0 UV-I 18 W/m 3,0 C 6,7 C 11,3 km/h (2 Bft) 100,00 %
19.04.2019 06:20 7,1 C 11,7 C 3,9 C 74 % 1027,0 hPa 0,0 l/m 7,6 km/h (2 Bft) O 90 2 min 0,000 mm 0,0 UV-I 21 W/m 2,8 C 6,1 C 14,5 km/h (3 Bft) 98,21 %
19.04.2019 06:22 7,2 C 11,7 C 3,9 C 74 % 1027,0 hPa 0,0 l/m 8,2 km/h (2 Bft) O 96 2 min 0,000 mm 0,0 UV-I 25 W/m 2,9 C 5,8 C 14,5 km/h (3 Bft) 100,00 %
19.04.2019 06:24 7,3 C 11,7 C 4,4 C 74 % 1027,0 hPa 0,0 l/m 7,8 km/h (2 Bft) O 94 2 min 0,000 mm 0,0 UV-I 28 W/m 3,0 C 6,2 C 12,9 km/h (3 Bft) 100,00 %
19.04.2019 06:26 7,3 C 11,7 C 4,4 C 74 % 1027,0 hPa 0,0 l/m 7,5 km/h (2 Bft) O 99 2 min 0,000 mm 0,0 UV-I 32 W/m 3,0 C 6,4 C 11,3 km/h (2 Bft) 100,00 %
19.04.2019 06:28 7,3 C 11,7 C 4,4 C 74 % 1027,1 hPa 0,0 l/m 9,4 km/h (2 Bft) O-SO 121 2 min 0,000 mm 0,0 UV-I 29 W/m 3,0 C 5,0 C 16,1 km/h (3 Bft) 100,00 %
19.04.2019 06:30 7,5 C 11,7 C 4,4 C 74 % 1027,1 hPa 0,0 l/m 7,4 km/h (2 Bft) O 90 2 min 0,000 mm 0,0 UV-I 33 W/m 3,2 C 6,7 C 14,5 km/h (3 Bft) 98,00 %
19.04.2019 06:32 7,6 C 11,7 C 4,4 C 73 % 1027,1 hPa 0,0 l/m 7,2 km/h (2 Bft) O-SO 108 2 min 0,000 mm 0,0 UV-I 34 W/m 3,1 C 7,0 C 11,3 km/h (2 Bft) 100,00 %
19.04.2019 06:34 7,6 C 11,7 C 4,4 C 73 % 1027,1 hPa 0,0 l/m 8,7 km/h (2 Bft) O 90 0 min 0,000 mm 0,0 UV-I 27 W/m 3,1 C 5,8 C 11,3 km/h (2 Bft) 96,36 %
19.04.2019 06:36 7,6 C 11,7 C 4,4 C 73 % 1027,2 hPa 0,0 l/m 9,7 km/h (2 Bft) O 87 0 min 0,000 mm 0,0 UV-I 28 W/m 3,1 C 5,1 C 12,9 km/h (3 Bft) 97,62 %
19.04.2019 06:38 7,7 C 11,7 C 4,4 C 73 % 1027,1 hPa 0,0 l/m 11,2 km/h (2 Bft) O 97 0 min 0,000 mm 0,0 UV-I 25 W/m 3,2 C 4,3 C 16,1 km/h (3 Bft) 95,12 %
19.04.2019 06:40 7,8 C 11,7 C 5,0 C 73 % 1027,1 hPa 0,0 l/m 11,1 km/h (2 Bft) O 90 0 min 0,000 mm 0,0 UV-I 25 W/m 3,3 C 4,5 C 20,9 km/h (4 Bft) 95,45 %
19.04.2019 06:42 7,9 C 11,7 C 5,6 C 73 % 1027,1 hPa 0,0 l/m 11,3 km/h (2 Bft) O 79 0 min 0,000 mm 0,0 UV-I 29 W/m 3,4 C 4,5 C 17,7 km/h (3 Bft) 96,43 %
19.04.2019 06:44 7,9 C 11,7 C 5,6 C 73 % 1027,2 hPa 0,0 l/m 11,3 km/h (2 Bft) O-NO 65 2 min 0,000 mm 0,0 UV-I 58 W/m 3,4 C 4,5 C 16,1 km/h (3 Bft) 97,87 %
19.04.2019 06:46 7,9 C 11,7 C 5,6 C 73 % 1027,2 hPa 0,0 l/m 11,2 km/h (2 Bft) O-NO 78 2 min 0,000 mm 0,0 UV-I 72 W/m 3,4 C 4,5 C 16,1 km/h (3 Bft) 95,74 %
19.04.2019 06:48 7,9 C 11,7 C 6,1 C 73 % 1027,1 hPa 0,0 l/m 11,5 km/h (2 Bft) O-NO 65 2 min 0,000 mm 0,0 UV-I 76 W/m 3,4 C 4,4 C 16,1 km/h (3 Bft) 96,00 %
19.04.2019 06:50 8,0 C 11,7 C 6,1 C 73 % 1027,2 hPa 0,0 l/m 14,6 km/h (3 Bft) O 80 2 min 0,000 mm 0,0 UV-I 80 W/m 3,5 C 2,9 C 19,3 km/h (3 Bft) 97,87 %
19.04.2019 06:52 8,1 C 11,7 C 6,1 C 73 % 1027,2 hPa 0,0 l/m 13,8 km/h (3 Bft) O-SO 107 2 min 0,000 mm 0,0 UV-I 85 W/m 3,6 C 3,4 C 19,3 km/h (3 Bft) 97,73 %
19.04.2019 06:54 8,2 C 11,7 C 6,1 C 73 % 1027,2 hPa 0,0 l/m 12,1 km/h (2 Bft) O-NO 66 2 min 0,000 mm 0,0 UV-I 85 W/m 3,7 C 4,4 C 16,1 km/h (3 Bft) 97,73 %
19.04.2019 06:56 8,2 C 11,7 C 6,1 C 73 % 1027,2 hPa 0,0 l/m 11,6 km/h (2 Bft) O 82 2 min 0,000 mm 0,0 UV-I 93 W/m 3,7 C 4,7 C 16,1 km/h (3 Bft) 97,87 %
19.04.2019 06:58 8,2 C 11,7 C 6,1 C 73 % 1027,2 hPa 0,0 l/m 11,6 km/h (2 Bft) O 88 2 min 0,000 mm 0,0 UV-I 98 W/m 3,7 C 4,7 C 17,7 km/h (3 Bft) 93,62 %
19.04.2019 07:00 8,3 C 11,7 C 6,1 C 73 % 1027,3 hPa 0,0 l/m 8,6 km/h (2 Bft) O-SO 104 2 min 0,051 mm 0,0 UV-I 103 W/m 3,8 C 6,6 C 12,9 km/h (3 Bft) 97,87 %
19.04.2019 07:02 8,3 C 11,7 C 6,1 C 73 % 1027,3 hPa 0,0 l/m 10,6 km/h (2 Bft) O 85 2 min 0,000 mm 0,0 UV-I 109 W/m 3,8 C 5,4 C 14,5 km/h (3 Bft) 97,87 %
19.04.2019 07:04 8,3 C 11,7 C 6,7 C 73 % 1027,3 hPa 0,0 l/m 9,8 km/h (2 Bft) O 94 2 min 0,000 mm 0,0 UV-I 113 W/m 3,8 C 5,8 C 14,5 km/h (3 Bft) 98,00 %
19.04.2019 07:06 8,4 C 11,7 C 6,1 C 73 % 1027,3 hPa 0,0 l/m 9,5 km/h (2 Bft) O 84 2 min 0,000 mm 0,0 UV-I 119 W/m 3,8 C 6,1 C 12,9 km/h (3 Bft) 97,73 %
19.04.2019 07:08 8,4 C 11,7 C 6,7 C 73 % 1027,3 hPa 0,0 l/m 11,0 km/h (2 Bft) O-SO 102 2 min 0,000 mm 0,0 UV-I 122 W/m 3,8 C 5,2 C 16,1 km/h (3 Bft) 98,00 %
19.04.2019 07:10 8,5 C 11,7 C 6,7 C 72 % 1027,3 hPa 0,0 l/m 11,2 km/h (2 Bft) O 90 2 min 0,000 mm 0,0 UV-I 127 W/m 3,7 C 5,2 C 14,5 km/h (3 Bft) 95,45 %
19.04.2019 07:12 8,6 C 11,7 C 6,7 C 72 % 1027,4 hPa 0,0 l/m 10,6 km/h (2 Bft) O-NO 73 2 min 0,000 mm 0,0 UV-I 133 W/m 3,8 C 5,7 C 14,5 km/h (3 Bft) 96,08 %
19.04.2019 07:14 8,7 C 11,7 C 6,7 C 72 % 1027,4 hPa 0,0 l/m 12,9 km/h (3 Bft) O-NO 72 2 min 0,000 mm 0,0 UV-I 139 W/m 3,9 C 4,6 C 16,1 km/h (3 Bft) 97,87 %
19.04.2019 07:16 8,8 C 11,7 C 7,2 C 72 % 1027,3 hPa 0,0 l/m 12,0 km/h (2 Bft) O-NO 71 2 min 0,000 mm 0,0 UV-I 144 W/m 4,0 C 5,1 C 17,7 km/h (3 Bft) 96,00 %
19.04.2019 07:18 8,9 C 11,7 C 7,2 C 71 % 1027,3 hPa 0,0 l/m 12,6 km/h (3 Bft) O-NO 77 2 min 0,000 mm 0,0 UV-I 149 W/m 3,9 C 4,9 C 19,3 km/h (3 Bft) 97,87 %
19.04.2019 07:20 9,1 C 11,7 C 7,2 C 71 % 1027,4 hPa 0,0 l/m 12,9 km/h (3 Bft) O-NO 65 2 min 0,000 mm 0,0 UV-I 154 W/m 4,1 C 5,0 C 16,1 km/h (3 Bft) 97,37 %
19.04.2019 07:22 9,1 C 11,7 C 7,8 C 70 % 1027,4 hPa 0,0 l/m 13,9 km/h (3 Bft) O 79 2 min 0,000 mm 0,0 UV-I 160 W/m 3,9 C 4,5 C 19,3 km/h (3 Bft) 96,00 %
19.04.2019 07:24 9,3 C 11,7 C 7,8 C 70 % 1027,4 hPa 0,0 l/m 12,9 km/h (3 Bft) O-NO 71 2 min 0,000 mm 0,0 UV-I 165 W/m 4,1 C 5,3 C 19,3 km/h (3 Bft) 98,00 %
19.04.2019 07:26 9,3 C 11,7 C 7,8 C 70 % 1027,4 hPa 0,0 l/m 14,4 km/h (3 Bft) O-NO 74 2 min 0,000 mm 0,0 UV-I 171 W/m 4,1 C 4,6 C 17,7 km/h (3 Bft) 97,37 %
19.04.2019 07:28 9,4 C 11,7 C 7,8 C 69 % 1027,3 hPa 0,0 l/m 14,1 km/h (3 Bft) O-NO 75 2 min 0,000 mm 0,0 UV-I 176 W/m 4,0 C 4,8 C 17,7 km/h (3 Bft) 95,74 %
19.04.2019 07:30 9,5 C 11,7 C 7,8 C 69 % 1027,4 hPa 0,0 l/m 14,9 km/h (3 Bft) O-NO 62 2 min 0,000 mm 0,0 UV-I 182 W/m 4,1 C 4,6 C 22,5 km/h (4 Bft) 98,00 %
19.04.2019 07:32 9,6 C 11,7 C 8,3 C 69 % 1027,4 hPa 0,0 l/m 16,6 km/h (3 Bft) O-NO 76 2 min 0,000 mm 0,0 UV-I 187 W/m 4,2 C 4,0 C 20,9 km/h (4 Bft) 100,00 %
19.04.2019 07:34 9,7 C 11,7 C 8,3 C 68 % 1027,5 hPa 0,0 l/m 16,9 km/h (3 Bft) O-NO 63 2 min 0,000 mm 0,0 UV-I 193 W/m 4,1 C 4,0 C 20,9 km/h (4 Bft) 98,00 %
19.04.2019 07:36 9,8 C 11,7 C 8,3 C 68 % 1027,4 hPa 0,0 l/m 16,8 km/h (3 Bft) O-NO 61 2 min 0,000 mm 0,0 UV-I 198 W/m 4,2 C 4,2 C 22,5 km/h (4 Bft) 100,00 %
19.04.2019 07:38 9,9 C 11,7 C 8,3 C 68 % 1027,4 hPa 0,0 l/m 15,9 km/h (3 Bft) O 99 2 min 0,000 mm 0,0 UV-I 204 W/m 4,3 C 4,6 C 22,5 km/h (4 Bft) 100,00 %
19.04.2019 07:40 10,1 C 11,7 C 8,3 C 68 % 1027,4 hPa 0,0 l/m 17,1 km/h (3 Bft) O 88 2 min 0,000 mm 0,0 UV-I 210 W/m 4,5 C 4,4 C 22,5 km/h (4 Bft) 98,18 %
19.04.2019 07:42 10,2 C 11,7 C 8,9 C 67 % 1027,5 hPa 0,0 l/m 15,6 km/h (3 Bft) O 90 2 min 0,000 mm 0,0 UV-I 215 W/m 4,4 C 5,1 C 19,3 km/h (3 Bft) 100,00 %
19.04.2019 07:44 10,2 C 11,7 C 8,9 C 67 % 1027,4 hPa 0,0 l/m 15,0 km/h (3 Bft) O 87 2 min 0,000 mm 0,0 UV-I 222 W/m 4,4 C 5,4 C 20,9 km/h (4 Bft) 97,87 %
19.04.2019 07:46 10,3 C 11,7 C 8,9 C 67 % 1027,5 hPa 0,0 l/m 13,6 km/h (3 Bft) O-NO 66 2 min 0,000 mm 0,0 UV-I 228 W/m 4,4 C 6,1 C 19,3 km/h (3 Bft) 100,00 %
19.04.2019 07:48 10,4 C 11,7 C 9,4 C 67 % 1027,5 hPa 0,0 l/m 14,6 km/h (3 Bft) O 85 2 min 0,000 mm 0,0 UV-I 234 W/m 4,5 C 5,8 C 20,9 km/h (4 Bft) 100,00 %
19.04.2019 07:50 10,5 C 11,7 C 9,4 C 67 % 1027,5 hPa 0,0 l/m 15,3 km/h (3 Bft) O-NO 60 2 min 0,000 mm 0,0 UV-I 239 W/m 4,6 C 5,6 C 20,9 km/h (4 Bft) 100,00 %
19.04.2019 07:52 10,6 C 11,7 C 9,4 C 66 % 1027,5 hPa 0,0 l/m 13,6 km/h (3 Bft) O 86 2 min 0,000 mm 0,0 UV-I 244 W/m 4,5 C 6,5 C 17,7 km/h (3 Bft) 100,00 %
19.04.2019 07:54 10,7 C 11,7 C 9,4 C 66 % 1027,5 hPa 0,0 l/m 15,6 km/h (3 Bft) O 85 2 min 0,000 mm 0,0 UV-I 251 W/m 4,6 C 5,7 C 20,9 km/h (4 Bft) 98,11 %
19.04.2019 07:56 10,8 C 11,7 C 10,0 C 66 % 1027,5 hPa 0,0 l/m 14,3 km/h (3 Bft) O-NO 74 2 min 0,000 mm 0,0 UV-I 256 W/m 4,7 C 6,4 C 22,5 km/h (4 Bft) 100,00 %
19.04.2019 07:58 10,9 C 11,7 C 10,0 C 65 % 1027,5 hPa 0,0 l/m 15,6 km/h (3 Bft) O-NO 69 2 min 0,000 mm 0,0 UV-I 263 W/m 4,6 C 6,0 C 20,9 km/h (4 Bft) 98,11 %
19.04.2019 08:00 10,9 C 11,7 C 10,0 C 65 % 1027,6 hPa 0,0 l/m 15,6 km/h (3 Bft) O 81 2 min 0,127 mm 0,0 UV-I 269 W/m 4,6 C 6,0 C 22,5 km/h (4 Bft) 97,56 %
19.04.2019 08:02 11,1 C 11,7 C 10,0 C 65 % 1027,5 hPa 0,0 l/m 15,9 km/h (3 Bft) O-NO 62 2 min 0,000 mm 0,3 UV-I 276 W/m 4,8 C 6,1 C 20,9 km/h (4 Bft) 100,00 %
19.04.2019 08:04 11,1 C 11,7 C 10,0 C 65 % 1027,6 hPa 0,0 l/m 13,7 km/h (3 Bft) O 80 2 min 0,000 mm 0,5 UV-I 282 W/m 4,8 C 7,0 C 20,9 km/h (4 Bft) 100,00 %
19.04.2019 08:06 11,2 C 11,7 C 10,0 C 65 % 1027,6 hPa 0,0 l/m 14,6 km/h (3 Bft) O-NO 71 2 min 0,000 mm 0,5 UV-I 288 W/m 4,9 C 6,7 C 19,3 km/h (3 Bft) 100,00 %
19.04.2019 08:08 11,3 C 11,7 C 10,6 C 65 % 1027,6 hPa 0,0 l/m 14,1 km/h (3 Bft) O-NO 62 2 min 0,000 mm 0,5 UV-I 293 W/m 5,0 C 7,1 C 17,7 km/h (3 Bft) 100,00 %
19.04.2019 08:10 11,4 C 11,7 C 10,6 C 64 % 1027,6 hPa 0,0 l/m 13,1 km/h (3 Bft) O-NO 71 2 min 0,000 mm 0,5 UV-I 299 W/m 4,8 C 7,6 C 17,7 km/h (3 Bft) 100,00 %
19.04.2019 08:12 11,4 C 11,7 C 10,6 C 63 % 1027,6 hPa 0,0 l/m 19,0 km/h (3 Bft) NO 50 2 min 0,000 mm 0,5 UV-I 305 W/m 4,6 C 5,4 C 25,7 km/h (4 Bft) 100,00 %
19.04.2019 08:14 11,5 C 11,7 C 10,6 C 63 % 1027,6 hPa 0,0 l/m 19,7 km/h (3 Bft) O-NO 66 2 min 0,000 mm 0,6 UV-I 311 W/m 4,7 C 5,3 C 27,4 km/h (4 Bft) 97,87 %
19.04.2019 08:16 11,6 C 11,7 C 10,6 C 63 % 1027,6 hPa 0,0 l/m 17,3 km/h (3 Bft) O 80 2 min 0,000 mm 0,6 UV-I 315 W/m 4,8 C 6,2 C 25,7 km/h (4 Bft) 100,00 %
19.04.2019 08:18 11,6 C 11,7 C 10,6 C 62 % 1027,6 hPa 0,0 l/m 19,1 km/h (3 Bft) O-NO 69 2 min 0,000 mm 0,6 UV-I 322 W/m 4,6 C 5,6 C 25,7 km/h (4 Bft) 100,00 %
19.04.2019 08:20 11,7 C 11,7 C 10,6 C 63 % 1027,6 hPa 0,0 l/m 16,5 km/h (3 Bft) O 95 2 min 0,000 mm 0,6 UV-I 328 W/m 4,9 C 6,6 C 25,7 km/h (4 Bft) 100,00 %
19.04.2019 08:22 11,8 C 11,7 C 10,6 C 63 % 1027,6 hPa 0,0 l/m 14,0 km/h (3 Bft) O-SO 109 2 min 0,000 mm 0,6 UV-I 335 W/m 5,0 C 7,7 C 22,5 km/h (4 Bft) 100,00 %
19.04.2019 08:24 11,8 C 11,7 C 11,1 C 62 % 1027,6 hPa 0,0 l/m 17,2 km/h (3 Bft) O 90 2 min 0,000 mm 0,7 UV-I 340 W/m 4,8 C 6,5 C 24,1 km/h (4 Bft) 100,00 %
19.04.2019 08:26 11,9 C 11,7 C 11,1 C 63 % 1027,6 hPa 0,0 l/m 14,7 km/h (3 Bft) O 90 2 min 0,000 mm 0,7 UV-I 346 W/m 5,1 C 7,6 C 22,5 km/h (4 Bft) 100,00 %
19.04.2019 08:28 12,0 C 11,7 C 11,1 C 62 % 1027,6 hPa 0,0 l/m 13,3 km/h (3 Bft) O-NO 58 2 min 0,000 mm 0,7 UV-I 352 W/m 4,9 C 8,2 C 19,3 km/h (3 Bft) 96,00 %
19.04.2019 08:30 12,1 C 11,7 C 11,1 C 62 % 1027,6 hPa 0,0 l/m 15,9 km/h (3 Bft) O 82 2 min 0,000 mm 0,7 UV-I 357 W/m 5,0 C 7,3 C 20,9 km/h (4 Bft) 96,00 %
19.04.2019 08:32 12,1 C 11,7 C 11,1 C 61 % 1027,6 hPa 0,0 l/m 17,1 km/h (3 Bft) O 84 2 min 0,000 mm 0,7 UV-I 363 W/m 4,8 C 6,9 C 25,7 km/h (4 Bft) 97,56 %
19.04.2019 08:34 12,1 C 11,7 C 11,1 C 61 % 1027,6 hPa 0,0 l/m 18,6 km/h (3 Bft) O 91 2 min 0,000 mm 0,8 UV-I 370 W/m 4,8 C 6,4 C 24,1 km/h (4 Bft) 96,23 %
19.04.2019 08:36 12,2 C 11,7 C 11,1 C 61 % 1027,6 hPa 0,0 l/m 19,7 km/h (3 Bft) O 88 2 min 0,000 mm 0,8 UV-I 375 W/m 4,9 C 6,2 C 27,4 km/h (4 Bft) 97,37 %
19.04.2019 08:38 12,2 C 11,7 C 11,1 C 61 % 1027,6 hPa 0,0 l/m 19,2 km/h (3 Bft) O 84 2 min 0,000 mm 0,8 UV-I 381 W/m 4,9 C 6,4 C 25,7 km/h (4 Bft) 95,74 %
19.04.2019 08:40 12,2 C 11,7 C 11,1 C 61 % 1027,7 hPa 0,0 l/m 18,8 km/h (3 Bft) O-NO 71 2 min 0,000 mm 0,8 UV-I 386 W/m 4,9 C 6,5 C 25,7 km/h (4 Bft) 95,74 %
19.04.2019 08:42 12,2 C 11,7 C 11,1 C 60 % 1027,6 hPa 0,0 l/m 20,5 km/h (4 Bft) O 92 2 min 0,000 mm 0,9 UV-I 393 W/m 4,7 C 6,0 C 27,4 km/h (4 Bft) 94,00 %
19.04.2019 08:44 12,3 C 11,7 C 11,7 C 60 % 1027,5 hPa 0,0 l/m 20,1 km/h (4 Bft) O 88 2 min 0,000 mm 0,9 UV-I 397 W/m 4,8 C 6,2 C 29,0 km/h (5 Bft) 96,15 %
19.04.2019 08:46 12,3 C 11,7 C 11,7 C 60 % 1027,6 hPa 0,0 l/m 20,4 km/h (4 Bft) O 101 2 min 0,000 mm 0,9 UV-I 405 W/m 4,8 C 6,1 C 29,0 km/h (5 Bft) 92,11 %
19.04.2019 08:48 12,5 C 11,7 C 11,7 C 60 % 1027,5 hPa 0,0 l/m 22,8 km/h (4 Bft) O 100 2 min 0,000 mm 0,9 UV-I 410 W/m 5,0 C 5,8 C 33,8 km/h (5 Bft) 96,00 %
19.04.2019 08:50 12,6 C 11,7 C 12,2 C 59 % 1027,5 hPa 0,0 l/m 21,9 km/h (4 Bft) O-NO 72 2 min 0,000 mm 1,0 UV-I 416 W/m 4,8 C 6,1 C 32,2 km/h (5 Bft) 95,45 %
19.04.2019 08:52 12,7 C 11,7 C 12,2 C 60 % 1027,6 hPa 0,0 l/m 22,3 km/h (4 Bft) O-SO 119 2 min 0,000 mm 1,0 UV-I 421 W/m 5,1 C 6,1 C 32,2 km/h (5 Bft) 96,43 %
19.04.2019 08:54 12,7 C 11,7 C 12,2 C 58 % 1027,6 hPa 0,0 l/m 22,2 km/h (4 Bft) O 97 2 min 0,000 mm 1,0 UV-I 426 W/m 4,7 C 6,2 C 33,8 km/h (5 Bft) 95,12 %
19.04.2019 08:56 12,8 C 11,7 C 12,8 C 59 % 1027,5 hPa 0,0 l/m 20,3 km/h (4 Bft) O-NO 72 2 min 0,000 mm 1,0 UV-I 432 W/m 5,0 C 6,8 C 29,0 km/h (5 Bft) 95,74 %
19.04.2019 08:58 12,9 C 11,7 C 13,3 C 58 % 1027,6 hPa 0,0 l/m 24,9 km/h (4 Bft) O 98 2 min 0,000 mm 1,1 UV-I 440 W/m 4,8 C 5,8 C 38,6 km/h (5 Bft) 95,12 %
19.04.2019 09:00 12,9 C 11,7 C 13,9 C 58 % 1027,6 hPa 0,0 l/m 21,0 km/h (4 Bft) O-NO 73 2 min 0,254 mm 1,1 UV-I 445 W/m 4,8 C 6,8 C 32,2 km/h (5 Bft) 94,64 %
19.04.2019 09:02 13,1 C 11,7 C 15,0 C 58 % 1027,5 hPa 0,0 l/m 25,7 km/h (4 Bft) O-SO 109 2 min 0,000 mm 1,1 UV-I 449 W/m 5,0 C 5,9 C 37,0 km/h (5 Bft) 94,87 %
19.04.2019 09:04 13,1 C 11,7 C 15,0 C 57 % 1027,6 hPa 0,0 l/m 24,6 km/h (4 Bft) O-SO 119 2 min 0,000 mm 1,1 UV-I 454 W/m 4,8 C 6,1 C 32,2 km/h (5 Bft) 95,12 %
19.04.2019 09:06 13,2 C 11,7 C 16,1 C 58 % 1027,6 hPa 0,0 l/m 18,7 km/h (3 Bft) O-SO 104 2 min 0,000 mm 1,2 UV-I 462 W/m 5,1 C 7,8 C 29,0 km/h (5 Bft) 94,64 %
19.04.2019 09:08 13,2 C 11,7 C 16,7 C 58 % 1027,6 hPa 0,0 l/m 20,4 km/h (4 Bft) O-NO 62 2 min 0,000 mm 1,2 UV-I 467 W/m 5,1 C 7,3 C 30,6 km/h (5 Bft) 97,56 %
19.04.2019 09:10 13,3 C 11,7 C 17,2 C 57 % 1027,5 hPa 0,0 l/m 21,9 km/h (4 Bft) O-NO 68 2 min 0,000 mm 1,2 UV-I 472 W/m 5,0 C 7,0 C 32,2 km/h (5 Bft) 100,00 %
19.04.2019 09:12 13,4 C 11,7 C 18,3 C 57 % 1027,6 hPa 0,0 l/m 20,7 km/h (4 Bft) O-SO 106 2 min 0,000 mm 1,3 UV-I 478 W/m 5,1 C 7,5 C 30,6 km/h (5 Bft) 96,61 %
19.04.2019 09:14 13,4 C 11,7 C 18,9 C 56 % 1027,5 hPa 0,0 l/m 20,4 km/h (4 Bft) O-SO 115 2 min 0,000 mm 1,3 UV-I 483 W/m 4,8 C 7,6 C 38,6 km/h (5 Bft) 98,00 %
19.04.2019 09:16 13,6 C 11,7 C 19,4 C 56 % 1027,6 hPa 0,0 l/m 23,9 km/h (4 Bft) O-NO 71 2 min 0,000 mm 1,3 UV-I 490 W/m 5,0 C 7,0 C 32,2 km/h (5 Bft) 95,74 %
19.04.2019 09:18 13,6 C 11,7 C 19,4 C 55 % 1027,7 hPa 0,0 l/m 27,0 km/h (4 Bft) O-NO 76 2 min 0,000 mm 1,3 UV-I 494 W/m 4,7 C 6,3 C 41,8 km/h (6 Bft) 97,37 %
19.04.2019 09:20 13,7 C 11,7 C 21,1 C 57 % 1027,6 hPa 0,0 l/m 18,4 km/h (3 Bft) O-SO 113 2 min 0,000 mm 1,4 UV-I 500 W/m 5,3 C 8,5 C 27,4 km/h (4 Bft) 96,36 %
19.04.2019 09:22 13,8 C 11,7 C 21,1 C 56 % 1027,6 hPa 0,0 l/m 20,8 km/h (4 Bft) O 82 2 min 0,000 mm 1,4 UV-I 505 W/m 5,2 C 8,0 C 30,6 km/h (5 Bft) 97,87 %
19.04.2019 09:24 13,9 C 11,7 C 21,1 C 56 % 1027,7 hPa 0,0 l/m 20,6 km/h (4 Bft) O-SO 119 2 min 0,000 mm 1,4 UV-I 511 W/m 5,3 C 8,2 C 25,7 km/h (4 Bft) 97,56 %
19.04.2019 09:26 14,1 C 11,7 C 22,2 C 56 % 1027,7 hPa 0,0 l/m 18,2 km/h (3 Bft) O-SO 108 2 min 0,000 mm 1,5 UV-I 516 W/m 5,5 C 9,1 C 29,0 km/h (5 Bft) 96,43 %
19.04.2019 09:28 14,2 C 12,2 C 22,2 C 55 % 1027,6 hPa 0,0 l/m 17,8 km/h (3 Bft) O-SO 104 2 min 0,000 mm 1,5 UV-I 521 W/m 5,3 C 9,3 C 25,7 km/h (4 Bft) 100,00 %
19.04.2019 09:30 14,3 C 11,7 C 22,8 C 55 % 1027,7 hPa 0,0 l/m 14,6 km/h (3 Bft) O-NO 73 2 min 0,000 mm 1,5 UV-I 525 W/m 5,4 C 10,5 C 24,1 km/h (4 Bft) 96,23 %
19.04.2019 09:32 14,4 C 11,7 C 23,3 C 55 % 1027,7 hPa 0,0 l/m 15,6 km/h (3 Bft) O-NO 60 2 min 0,000 mm 1,5 UV-I 531 W/m 5,5 C 10,3 C 20,9 km/h (4 Bft) 95,74 %
19.04.2019 09:34 14,5 C 11,7 C 23,9 C 55 % 1027,7 hPa 0,0 l/m 18,7 km/h (3 Bft) O 92 2 min 0,000 mm 1,6 UV-I 536 W/m 5,6 C 9,5 C 24,1 km/h (4 Bft) 97,56 %
19.04.2019 09:36 14,6 C 11,7 C 22,8 C 53 % 1027,7 hPa 0,0 l/m 22,4 km/h (4 Bft) O 80 2 min 0,000 mm 1,6 UV-I 541 W/m 5,1 C 8,6 C 30,6 km/h (5 Bft) 97,87 %
19.04.2019 09:38 14,6 C 11,7 C 22,8 C 54 % 1027,7 hPa 0,0 l/m 20,9 km/h (4 Bft) O-NO 61 2 min 0,000 mm 1,6 UV-I 547 W/m 5,4 C 9,0 C 25,7 km/h (4 Bft) 100,00 %
19.04.2019 09:40 14,7 C 11,7 C 23,3 C 54 % 1027,7 hPa 0,0 l/m 17,3 km/h (3 Bft) O 80 2 min 0,000 mm 1,7 UV-I 551 W/m 5,5 C 10,1 C 27,4 km/h (4 Bft) 97,62 %
19.04.2019 09:42 14,8 C 12,2 C 23,3 C 54 % 1027,8 hPa 0,0 l/m 21,9 km/h (4 Bft) O-NO 71 2 min 0,000 mm 1,7 UV-I 556 W/m 5,6 C 9,0 C 29,0 km/h (5 Bft) 100,00 %
19.04.2019 09:44 14,8 C 11,7 C 23,3 C 53 % 1027,8 hPa 0,0 l/m 18,9 km/h (3 Bft) O 85 2 min 0,000 mm 1,7 UV-I 561 W/m 5,3 C 9,8 C 25,7 km/h (4 Bft) 98,11 %
19.04.2019 09:46 14,9 C 12,2 C 23,3 C 53 % 1027,8 hPa 0,0 l/m 18,3 km/h (3 Bft) O-NO 57 2 min 0,000 mm 1,8 UV-I 565 W/m 5,4 C 10,1 C 27,4 km/h (4 Bft) 97,56 %
19.04.2019 09:48 15,0 C 12,2 C 23,9 C 53 % 1027,9 hPa 0,0 l/m 20,3 km/h (4 Bft) O-NO 67 2 min 0,000 mm 1,8 UV-I 570 W/m 5,5 C 9,7 C 25,7 km/h (4 Bft) 100,00 %
19.04.2019 09:50 15,1 C 12,2 C 23,3 C 52 % 1027,9 hPa 0,0 l/m 22,7 km/h (4 Bft) O 98 2 min 0,000 mm 1,8 UV-I 576 W/m 5,3 C 9,2 C 32,2 km/h (5 Bft) 98,00 %
19.04.2019 09:52 15,2 C 12,2 C 23,9 C 53 % 1027,8 hPa 0,0 l/m 18,8 km/h (3 Bft) O 92 2 min 0,000 mm 1,9 UV-I 581 W/m 5,7 C 10,3 C 24,1 km/h (4 Bft) 95,74 %
19.04.2019 09:54 15,3 C 12,2 C 24,4 C 53 % 1027,8 hPa 0,0 l/m 19,9 km/h (4 Bft) O-NO 67 2 min 0,000 mm 1,9 UV-I 586 W/m 5,8 C 10,2 C 24,1 km/h (4 Bft) 98,11 %
19.04.2019 09:56 15,4 C 12,2 C 24,4 C 52 % 1027,9 hPa 0,0 l/m 20,8 km/h (4 Bft) O 101 2 min 0,000 mm 1,9 UV-I 590 W/m 5,6 C 10,1 C 30,6 km/h (5 Bft) 97,37 %
19.04.2019 09:58 15,5 C 12,2 C 24,4 C 52 % 1027,9 hPa 0,0 l/m 19,3 km/h (3 Bft) O-NO 68 2 min 0,000 mm 2,0 UV-I 594 W/m 5,7 C 10,6 C 27,4 km/h (4 Bft) 98,00 %
19.04.2019 10:00 15,6 C 12,2 C 24,4 C 51 % 1027,9 hPa 0,0 l/m 21,3 km/h (4 Bft) O-SO 111 2 min 0,381 mm 2,0 UV-I 598 W/m 5,5 C 10,2 C 25,7 km/h (4 Bft) 94,34 %
19.04.2019 10:02 15,7 C 12,2 C 25,0 C 51 % 1027,9 hPa 0,0 l/m 16,8 km/h (3 Bft) O-SO 110 2 min 0,000 mm 2,0 UV-I 603 W/m 5,6 C 11,5 C 24,1 km/h (4 Bft) 97,37 %
19.04.2019 10:04 15,7 C 12,2 C 25,0 C 50 % 1027,9 hPa 0,0 l/m 20,1 km/h (4 Bft) O 84 2 min 0,000 mm 2,1 UV-I 608 W/m 5,3 C 10,6 C 29,0 km/h (5 Bft) 96,23 %
19.04.2019 10:06 15,8 C 12,2 C 24,4 C 50 % 1027,9 hPa 0,0 l/m 20,1 km/h (4 Bft) O-NO 77 2 min 0,000 mm 2,1 UV-I 611 W/m 5,4 C 10,8 C 29,0 km/h (5 Bft) 100,00 %
19.04.2019 10:08 15,8 C 12,2 C 24,4 C 50 % 1027,9 hPa 0,0 l/m 19,5 km/h (3 Bft) O-NO 74 2 min 0,000 mm 2,1 UV-I 616 W/m 5,4 C 10,9 C 25,7 km/h (4 Bft) 100,00 %
19.04.2019 10:10 15,8 C 12,2 C 24,4 C 50 % 1028,0 hPa 0,0 l/m 23,2 km/h (4 Bft) O 82 2 min 0,000 mm 2,2 UV-I 622 W/m 5,4 C 10,1 C 32,2 km/h (5 Bft) 96,23 %
19.04.2019 10:12 15,8 C 12,2 C 25,0 C 50 % 1027,9 hPa 0,0 l/m 19,7 km/h (3 Bft) O-NO 59 2 min 0,000 mm 2,2 UV-I 626 W/m 5,4 C 10,9 C 27,4 km/h (4 Bft) 97,56 %
19.04.2019 10:14 15,9 C 12,2 C 25,0 C 50 % 1027,9 hPa 0,0 l/m 18,3 km/h (3 Bft) O 96 2 min 0,000 mm 2,2 UV-I 629 W/m 5,5 C 11,3 C 27,4 km/h (4 Bft) 100,00 %
19.04.2019 10:16 16,0 C 12,2 C 25,6 C 50 % 1027,9 hPa 0,0 l/m 19,5 km/h (3 Bft) O 91 2 min 0,000 mm 2,3 UV-I 634 W/m 5,6 C 11,2 C 27,4 km/h (4 Bft) 98,00 %
19.04.2019 10:18 16,1 C 12,2 C 26,1 C 49 % 1027,9 hPa 0,0 l/m 18,0 km/h (3 Bft) O-NO 61 2 min 0,000 mm 2,3 UV-I 639 W/m 5,4 C 11,7 C 25,7 km/h (4 Bft) 100,00 %
19.04.2019 10:20 16,2 C 12,2 C 26,1 C 48 % 1027,8 hPa 0,0 l/m 22,7 km/h (4 Bft) N-NO 24 2 min 0,000 mm 2,3 UV-I 643 W/m 5,2 C 10,7 C 30,6 km/h (5 Bft) 100,00 %
19.04.2019 10:22 16,2 C 12,2 C 26,1 C 48 % 1027,9 hPa 0,0 l/m 22,0 km/h (4 Bft) O 84 2 min 0,000 mm 2,4 UV-I 647 W/m 5,2 C 10,8 C 32,2 km/h (5 Bft) 98,00 %
19.04.2019 10:24 16,3 C 12,2 C 26,1 C 48 % 1027,8 hPa 0,0 l/m 22,1 km/h (4 Bft) O 99 2 min 0,000 mm 2,4 UV-I 651 W/m 5,3 C 11,0 C 25,7 km/h (4 Bft) 97,56 %
19.04.2019 10:26 16,4 C 12,2 C 26,1 C 47 % 1027,8 hPa 0,0 l/m 22,1 km/h (4 Bft) O-NO 76 2 min 0,000 mm 2,5 UV-I 656 W/m 5,1 C 11,1 C 32,2 km/h (5 Bft) 97,73 %
19.04.2019 10:28 16,4 C 12,2 C 26,1 C 47 % 1027,9 hPa 0,0 l/m 22,1 km/h (4 Bft) O 90 2 min 0,000 mm 2,5 UV-I 659 W/m 5,1 C 11,1 C 30,6 km/h (5 Bft) 96,23 %
19.04.2019 10:30 16,6 C 12,2 C 26,1 C 46 % 1027,8 hPa 0,0 l/m 23,0 km/h (4 Bft) O-NO 78 2 min 0,000 mm 2,5 UV-I 662 W/m 4,9 C 11,2 C 30,6 km/h (5 Bft) 97,73 %
19.04.2019 10:32 16,6 C 12,2 C 25,6 C 45 % 1027,9 hPa 0,0 l/m 23,5 km/h (4 Bft) O-NO 74 2 min 0,000 mm 2,5 UV-I 667 W/m 4,6 C 11,1 C 35,4 km/h (5 Bft) 98,31 %
19.04.2019 10:34 16,6 C 12,2 C 25,6 C 45 % 1027,8 hPa 0,0 l/m 24,7 km/h (4 Bft) O-NO 61 2 min 0,000 mm 2,6 UV-I 671 W/m 4,6 C 10,8 C 33,8 km/h (5 Bft) 97,14 %
19.04.2019 10:36 16,7 C 12,2 C 26,1 C 46 % 1027,8 hPa 0,0 l/m 21,9 km/h (4 Bft) O 79 2 min 0,000 mm 2,6 UV-I 677 W/m 5,0 C 11,5 C 27,4 km/h (4 Bft) 98,11 %
19.04.2019 10:38 16,8 C 12,2 C 26,1 C 45 % 1027,8 hPa 0,0 l/m 22,6 km/h (4 Bft) O-NO 61 2 min 0,000 mm 2,7 UV-I 680 W/m 4,8 C 11,5 C 30,6 km/h (5 Bft) 94,74 %
19.04.2019 10:40 16,8 C 12,2 C 26,7 C 45 % 1027,9 hPa 0,0 l/m 20,0 km/h (4 Bft) O-NO 63 2 min 0,000 mm 2,7 UV-I 683 W/m 4,8 C 12,1 C 27,4 km/h (4 Bft) 96,23 %
19.04.2019 10:42 16,9 C 12,2 C 26,1 C 44 % 1027,8 hPa 0,0 l/m 22,7 km/h (4 Bft) O 94 2 min 0,000 mm 2,7 UV-I 687 W/m 4,6 C 11,6 C 29,0 km/h (5 Bft) 96,00 %
19.04.2019 10:44 16,9 C 12,2 C 27,2 C 45 % 1027,9 hPa 0,0 l/m 20,8 km/h (4 Bft) O-SO 121 2 min 0,000 mm 2,8 UV-I 692 W/m 4,9 C 12,0 C 30,6 km/h (5 Bft) 100,00 %
19.04.2019 10:46 17,1 C 12,2 C 27,2 C 44 % 1027,9 hPa 0,0 l/m 23,8 km/h (4 Bft) O-NO 70 2 min 0,000 mm 2,8 UV-I 695 W/m 4,8 C 11,7 C 30,6 km/h (5 Bft) 96,00 %
19.04.2019 10:48 17,1 C 12,2 C 27,2 C 44 % 1027,8 hPa 0,0 l/m 20,7 km/h (4 Bft) O 93 2 min 0,000 mm 2,8 UV-I 700 W/m 4,8 C 12,3 C 25,7 km/h (4 Bft) 97,22 %
19.04.2019 10:50 17,1 C 12,2 C 27,8 C 46 % 1027,8 hPa 0,0 l/m 22,1 km/h (4 Bft) O-SO 102 2 min 0,000 mm 2,9 UV-I 703 W/m 5,4 C 12,0 C 29,0 km/h (5 Bft) 98,44 %
19.04.2019 10:52 17,3 C 12,2 C 27,8 C 44 % 1027,9 hPa 0,0 l/m 24,6 km/h (4 Bft) O 98 2 min 0,000 mm 2,9 UV-I 708 W/m 4,9 C 11,8 C 33,8 km/h (5 Bft) 97,22 %
19.04.2019 10:54 17,4 C 12,2 C 27,8 C 43 % 1027,8 hPa 0,0 l/m 22,6 km/h (4 Bft) O-NO 76 2 min 0,000 mm 2,9 UV-I 709 W/m 4,7 C 12,3 C 29,0 km/h (5 Bft) 100,00 %
19.04.2019 10:56 17,4 C 12,2 C 27,8 C 42 % 1027,8 hPa 0,0 l/m 21,2 km/h (4 Bft) O-NO 67 2 min 0,000 mm 3,0 UV-I 712 W/m 4,4 C 12,6 C 27,4 km/h (4 Bft) 100,00 %
19.04.2019 10:58 17,5 C 12,2 C 27,8 C 43 % 1027,8 hPa 0,0 l/m 21,4 km/h (4 Bft) O-NO 64 2 min 0,000 mm 3,0 UV-I 717 W/m 4,8 C 12,7 C 29,0 km/h (5 Bft) 100,00 %
19.04.2019 11:00 17,6 C 12,2 C 27,8 C 44 % 1027,8 hPa 0,0 l/m 19,1 km/h (3 Bft) O-NO 63 2 min 0,508 mm 3,1 UV-I 719 W/m 5,2 C 13,3 C 27,4 km/h (4 Bft) 100,00 %
19.04.2019 11:02 17,7 C 12,2 C 28,3 C 43 % 1027,8 hPa 0,0 l/m 17,2 km/h (3 Bft) O-SO 110 2 min 0,000 mm 3,1 UV-I 722 W/m 5,0 C 13,9 C 22,5 km/h (4 Bft) 100,00 %
19.04.2019 11:04 17,8 C 12,2 C 28,9 C 42 % 1027,8 hPa 0,0 l/m 17,4 km/h (3 Bft) O-NO 78 2 min 0,000 mm 3,1 UV-I 722 W/m 4,7 C 14,0 C 27,4 km/h (4 Bft) 100,00 %
19.04.2019 11:06 17,8 C 12,2 C 28,9 C 42 % 1027,8 hPa 0,0 l/m 20,5 km/h (4 Bft) O-NO 78 2 min 0,000 mm 3,1 UV-I 725 W/m 4,7 C 13,3 C 27,4 km/h (4 Bft) 96,43 %
19.04.2019 11:08 17,8 C 12,2 C 27,8 C 42 % 1027,8 hPa 0,0 l/m 22,7 km/h (4 Bft) O-NO 76 2 min 0,000 mm 3,2 UV-I 730 W/m 4,7 C 12,8 C 29,0 km/h (5 Bft) 97,56 %
19.04.2019 11:10 17,8 C 12,2 C 27,8 C 43 % 1027,8 hPa 0,0 l/m 22,2 km/h (4 Bft) O-NO 59 2 min 0,000 mm 3,2 UV-I 735 W/m 5,1 C 12,9 C 35,4 km/h (5 Bft) 97,87 %
19.04.2019 11:12 17,9 C 12,2 C 27,2 C 42 % 1027,8 hPa 0,0 l/m 20,3 km/h (4 Bft) O-NO 72 2 min 0,000 mm 3,2 UV-I 739 W/m 4,8 C 13,4 C 27,4 km/h (4 Bft) 96,00 %
19.04.2019 11:14 17,9 C 12,2 C 27,2 C 43 % 1027,8 hPa 0,0 l/m 22,0 km/h (4 Bft) O-NO 66 2 min 0,000 mm 3,3 UV-I 741 W/m 5,1 C 13,1 C 27,4 km/h (4 Bft) 97,56 %
19.04.2019 11:16 17,9 C 12,2 C 27,2 C 41 % 1027,8 hPa 0,0 l/m 22,3 km/h (4 Bft) O 82 2 min 0,000 mm 3,3 UV-I 745 W/m 4,5 C 13,0 C 29,0 km/h (5 Bft) 96,00 %
19.04.2019 11:18 17,9 C 12,2 C 27,8 C 41 % 1027,8 hPa 0,0 l/m 22,4 km/h (4 Bft) O 96 2 min 0,000 mm 3,3 UV-I 749 W/m 4,5 C 13,0 C 32,2 km/h (5 Bft) 98,00 %
19.04.2019 11:20 17,9 C 12,2 C 27,8 C 41 % 1027,8 hPa 0,0 l/m 21,8 km/h (4 Bft) O-NO 67 2 min 0,000 mm 3,4 UV-I 751 W/m 4,5 C 13,1 C 30,6 km/h (5 Bft) 94,74 %
19.04.2019 11:22 17,9 C 12,2 C 28,3 C 42 % 1027,8 hPa 0,0 l/m 20,0 km/h (4 Bft) O 94 2 min 0,000 mm 3,4 UV-I 753 W/m 4,8 C 13,5 C 29,0 km/h (5 Bft) 98,00 %
19.04.2019 11:24 18,0 C 12,2 C 28,3 C 40 % 1027,8 hPa 0,0 l/m 24,0 km/h (4 Bft) O-NO 74 2 min 0,000 mm 3,4 UV-I 758 W/m 4,2 C 12,8 C 32,2 km/h (5 Bft) 97,87 %
19.04.2019 11:26 18,0 C 12,2 C 28,9 C 41 % 1027,8 hPa 0,0 l/m 20,8 km/h (4 Bft) O 100 2 min 0,000 mm 3,4 UV-I 760 W/m 4,6 C 13,5 C 30,6 km/h (5 Bft) 98,00 %
19.04.2019 11:28 18,1 C 12,2 C 28,9 C 41 % 1027,8 hPa 0,0 l/m 23,6 km/h (4 Bft) O 82 2 min 0,000 mm 3,5 UV-I 762 W/m 4,6 C 13,1 C 32,2 km/h (5 Bft) 97,44 %
19.04.2019 11:30 18,1 C 12,2 C 29,4 C 39 % 1027,8 hPa 0,0 l/m 14,7 km/h (3 Bft) O 94 2 min 0,000 mm 3,5 UV-I 763 W/m 3,9 C 15,0 C 24,1 km/h (4 Bft) 98,08 %
19.04.2019 11:32 18,2 C 12,2 C 29,4 C 42 % 1027,7 hPa 0,0 l/m 20,5 km/h (4 Bft) O-NO 66 2 min 0,000 mm 3,6 UV-I 765 W/m 5,1 C 13,8 C 30,6 km/h (5 Bft) 100,00 %
19.04.2019 11:34 18,3 C 12,2 C 29,4 C 41 % 1027,7 hPa 0,0 l/m 20,3 km/h (4 Bft) O-NO 77 2 min 0,000 mm 3,6 UV-I 767 W/m 4,8 C 13,9 C 30,6 km/h (5 Bft) 97,22 %
19.04.2019 11:36 18,3 C 12,2 C 29,4 C 43 % 1027,7 hPa 0,0 l/m 18,7 km/h (3 Bft) S-SO 165 2 min 0,000 mm 3,6 UV-I 769 W/m 5,5 C 14,3 C 22,5 km/h (4 Bft) 100,00 %
19.04.2019 11:38 18,6 C 12,2 C 30,6 C 41 % 1027,7 hPa 0,0 l/m 19,0 km/h (3 Bft) O-SO 104 2 min 0,000 mm 3,7 UV-I 774 W/m 5,1 C 14,6 C 27,4 km/h (4 Bft) 97,87 %
19.04.2019 11:40 18,7 C 12,2 C 31,1 C 39 % 1027,8 hPa 0,0 l/m 15,6 km/h (3 Bft) O-SO 111 2 min 0,000 mm 3,7 UV-I 776 W/m 4,5 C 15,5 C 25,7 km/h (4 Bft) 100,00 %
19.04.2019 11:42 18,8 C 12,2 C 31,7 C 38 % 1027,7 hPa 0,0 l/m 14,7 km/h (3 Bft) O-SO 111 2 min 0,000 mm 3,7 UV-I 778 W/m 4,2 C 15,9 C 19,3 km/h (3 Bft) 98,00 %
19.04.2019 11:44 18,8 C 12,2 C 31,7 C 40 % 1027,6 hPa 0,0 l/m 17,1 km/h (3 Bft) O 92 2 min 0,000 mm 3,8 UV-I 778 W/m 4,9 C 15,3 C 24,1 km/h (4 Bft) 100,00 %
19.04.2019 11:46 18,9 C 12,2 C 31,7 C 42 % 1027,7 hPa 0,0 l/m 16,8 km/h (3 Bft) O-NO 57 2 min 0,000 mm 3,8 UV-I 779 W/m 5,7 C 15,5 C 24,1 km/h (4 Bft) 100,00 %
19.04.2019 11:48 19,1 C 12,8 C 31,1 C 42 % 1027,6 hPa 0,0 l/m 17,8 km/h (3 Bft) O 87 2 min 0,000 mm 3,9 UV-I 781 W/m 5,9 C 15,5 C 25,7 km/h (4 Bft) 100,00 %
19.04.2019 11:50 19,2 C 12,8 C 30,6 C 41 % 1027,6 hPa 0,0 l/m 21,9 km/h (4 Bft) N-NO 24 2 min 0,000 mm 3,9 UV-I 781 W/m 5,6 C 14,8 C 29,0 km/h (5 Bft) 97,87 %
19.04.2019 11:52 19,2 C 12,8 C 31,1 C 40 % 1027,7 hPa 0,0 l/m 16,5 km/h (3 Bft) NO 55 2 min 0,000 mm 3,9 UV-I 784 W/m 5,3 C 15,9 C 32,2 km/h (5 Bft) 98,00 %
19.04.2019 11:54 19,2 C 12,8 C 31,1 C 39 % 1027,6 hPa 0,0 l/m 16,6 km/h (3 Bft) O-NO 62 2 min 0,000 mm 3,9 UV-I 784 W/m 4,9 C 15,9 C 22,5 km/h (4 Bft) 100,00 %
19.04.2019 11:56 19,1 C 12,8 C 31,1 C 40 % 1027,5 hPa 0,0 l/m 18,6 km/h (3 Bft) O 94 2 min 0,000 mm 4,0 UV-I 788 W/m 5,2 C 15,3 C 29,0 km/h (5 Bft) 100,00 %
19.04.2019 11:58 19,1 C 12,8 C 29,4 C 41 % 1027,5 hPa 0,0 l/m 19,5 km/h (3 Bft) NO 55 2 min 0,000 mm 4,0 UV-I 789 W/m 5,5 C 15,1 C 24,1 km/h (4 Bft) 98,00 %
19.04.2019 12:00 19,1 C 12,8 C 30,0 C 41 % 1027,5 hPa 0,0 l/m 17,0 km/h (3 Bft) O-NO 58 2 min 0,000 mm 4,0 UV-I 788 W/m 5,5 C 15,7 C 24,1 km/h (4 Bft) 100,00 %
19.04.2019 12:02 19,2 C 12,8 C 30,0 C 41 % 1027,6 hPa 0,0 l/m 17,3 km/h (3 Bft) O 81 2 min 0,584 mm 4,0 UV-I 795 W/m 5,6 C 15,7 C 24,1 km/h (4 Bft) 98,31 %
19.04.2019 12:04 19,2 C 12,8 C 30,6 C 40 % 1027,5 hPa 0,0 l/m 16,3 km/h (3 Bft) O-NO 65 2 min 0,000 mm 4,0 UV-I 799 W/m 5,3 C 16,0 C 24,1 km/h (4 Bft) 100,00 %
19.04.2019 12:06 19,2 C 12,8 C 30,6 C 39 % 1027,5 hPa 0,0 l/m 18,7 km/h (3 Bft) O 97 2 min 0,000 mm 4,1 UV-I 802 W/m 4,9 C 15,4 C 22,5 km/h (4 Bft) 100,00 %
19.04.2019 12:08 19,3 C 12,8 C 31,7 C 38 % 1027,5 hPa 0,0 l/m 17,0 km/h (3 Bft) O 101 2 min 0,000 mm 4,1 UV-I 801 W/m 4,6 C 15,9 C 24,1 km/h (4 Bft) 97,87 %
19.04.2019 12:10 19,3 C 12,8 C 32,2 C 38 % 1027,5 hPa 0,0 l/m 13,3 km/h (3 Bft) O-SO 106 2 min 0,000 mm 4,1 UV-I 800 W/m 4,6 C 16,8 C 22,5 km/h (4 Bft) 91,67 %
19.04.2019 12:12 19,4 C 12,8 C 32,2 C 39 % 1027,5 hPa 0,0 l/m 17,5 km/h (3 Bft) O-NO 60 2 min 0,000 mm 4,2 UV-I 799 W/m 5,1 C 15,9 C 29,0 km/h (5 Bft) 98,08 %
19.04.2019 12:14 19,4 C 12,8 C 32,8 C 41 % 1027,5 hPa 0,0 l/m 17,5 km/h (3 Bft) NO 41 2 min 0,000 mm 4,2 UV-I 803 W/m 5,8 C 15,9 C 25,7 km/h (4 Bft) 100,00 %
19.04.2019 12:16 19,6 C 12,8 C 31,1 C 40 % 1027,5 hPa 0,0 l/m 20,8 km/h (4 Bft) O-NO 76 2 min 0,000 mm 4,2 UV-I 804 W/m 5,6 C 15,5 C 25,7 km/h (4 Bft) 95,59 %
19.04.2019 12:18 19,6 C 12,8 C 31,1 C 40 % 1027,5 hPa 0,0 l/m 21,5 km/h (4 Bft) O-NO 70 2 min 0,000 mm 4,2 UV-I 806 W/m 5,6 C 15,4 C 29,0 km/h (5 Bft) 97,73 %
19.04.2019 12:20 19,5 C 12,8 C 30,6 C 38 % 1027,4 hPa 0,0 l/m 20,4 km/h (4 Bft) O-NO 74 2 min 0,000 mm 4,2 UV-I 806 W/m 4,8 C 15,5 C 29,0 km/h (5 Bft) 98,00 %
19.04.2019 12:22 19,6 C 12,8 C 30,6 C 42 % 1027,4 hPa 0,0 l/m 18,6 km/h (3 Bft) NO 46 2 min 0,000 mm 4,2 UV-I 810 W/m 6,3 C 16,0 C 25,7 km/h (4 Bft) 97,56 %
19.04.2019 12:24 19,7 C 12,8 C 30,6 C 41 % 1027,5 hPa 0,0 l/m 17,5 km/h (3 Bft) O-NO 66 2 min 0,000 mm 4,3 UV-I 812 W/m 6,1 C 16,3 C 24,1 km/h (4 Bft) 98,00 %
19.04.2019 12:26 19,8 C 12,8 C 31,1 C 38 % 1027,4 hPa 0,0 l/m 17,9 km/h (3 Bft) O-SO 105 2 min 0,000 mm 4,3 UV-I 815 W/m 5,1 C 16,4 C 29,0 km/h (5 Bft) 96,23 %
19.04.2019 12:29 19,8 C 12,8 C 31,7 C 36 % 1027,3 hPa 0,0 l/m 14,5 km/h (3 Bft) O 93 3 min 0,000 mm 4,3 UV-I 816 W/m 4,3 C 17,1 C 24,1 km/h (4 Bft) 95,52 %
19.04.2019 12:30 19,8 C 12,8 C 32,2 C 37 % 1027,3 hPa 0,0 l/m 19,3 km/h (3 Bft) O-NO 74 1 min 0,000 mm 4,3 UV-I 813 W/m 4,7 C 16,1 C 25,7 km/h (4 Bft) 93,33 %
19.04.2019 12:32 19,8 C 12,8 C 31,7 C 36 % 1027,4 hPa 0,0 l/m 20,7 km/h (4 Bft) O 96 2 min 0,000 mm 4,3 UV-I 816 W/m 4,3 C 15,8 C 30,6 km/h (5 Bft) 97,73 %
19.04.2019 12:34 19,8 C 12,8 C 31,1 C 35 % 1027,4 hPa 0,0 l/m 21,3 km/h (4 Bft) O 79 2 min 0,000 mm 4,4 UV-I 816 W/m 3,9 C 15,7 C 27,4 km/h (4 Bft) 95,12 %
19.04.2019 12:36 19,8 C 12,8 C 31,1 C 35 % 1027,4 hPa 0,0 l/m 18,9 km/h (3 Bft) O-SO 103 2 min 0,000 mm 4,4 UV-I 817 W/m 3,9 C 16,2 C 25,7 km/h (4 Bft) 95,16 %
19.04.2019 12:38 19,8 C 12,8 C 32,2 C 35 % 1027,4 hPa 0,0 l/m 13,5 km/h (3 Bft) SO 130 2 min 0,000 mm 4,4 UV-I 819 W/m 3,9 C 17,4 C 22,5 km/h (4 Bft) 100,00 %
19.04.2019 12:40 19,8 C 12,8 C 32,8 C 35 % 1027,4 hPa 0,0 l/m 12,7 km/h (3 Bft) O 82 2 min 0,000 mm 4,4 UV-I 816 W/m 3,9 C 17,6 C 20,9 km/h (4 Bft) 96,43 %
19.04.2019 12:42 19,9 C 12,8 C 32,8 C 38 % 1027,4 hPa 0,0 l/m 12,1 km/h (2 Bft) O 94 2 min 0,000 mm 4,4 UV-I 816 W/m 5,2 C 17,9 C 22,5 km/h (4 Bft) 97,73 %
19.04.2019 12:44 20,0 C 12,8 C 32,2 C 36 % 1027,3 hPa 0,0 l/m 18,4 km/h (3 Bft) O 98 2 min 0,000 mm 4,4 UV-I 817 W/m 4,5 C 16,5 C 27,4 km/h (4 Bft) 97,56 %
19.04.2019 12:46 19,9 C 12,8 C 32,2 C 35 % 1027,3 hPa 0,0 l/m 20,4 km/h (4 Bft) SO 128 2 min 0,000 mm 4,4 UV-I 820 W/m 4,0 C 16,0 C 29,0 km/h (5 Bft) 96,00 %
19.04.2019 12:48 19,9 C 12,8 C 32,2 C 37 % 1027,3 hPa 0,0 l/m 15,0 km/h (3 Bft) O 90 2 min 0,000 mm 4,4 UV-I 821 W/m 4,8 C 17,1 C 19,3 km/h (3 Bft) 98,00 %
19.04.2019 12:50 19,9 C 12,8 C 32,2 C 36 % 1027,2 hPa 0,0 l/m 13,8 km/h (3 Bft) O-NO 68 2 min 0,000 mm 4,4 UV-I 817 W/m 4,4 C 17,4 C 30,6 km/h (5 Bft) 95,74 %
19.04.2019 12:52 19,9 C 12,8 C 32,2 C 35 % 1027,3 hPa 0,0 l/m 17,5 km/h (3 Bft) SO 125 2 min 0,000 mm 4,5 UV-I 818 W/m 4,0 C 16,6 C 24,1 km/h (4 Bft) 97,78 %
19.04.2019 12:54 19,9 C 12,8 C 32,2 C 36 % 1027,3 hPa 0,0 l/m 17,0 km/h (3 Bft) O-NO 68 2 min 0,000 mm 4,5 UV-I 819 W/m 4,4 C 16,7 C 25,7 km/h (4 Bft) 98,08 %
19.04.2019 12:56 19,9 C 12,8 C 32,2 C 35 % 1027,2 hPa 0,0 l/m 17,0 km/h (3 Bft) O-NO 71 2 min 0,000 mm 4,5 UV-I 820 W/m 4,0 C 16,7 C 22,5 km/h (4 Bft) 97,44 %
19.04.2019 12:58 19,9 C 12,8 C 31,7 C 34 % 1027,2 hPa 0,0 l/m 16,8 km/h (3 Bft) O-NO 65 2 min 0,000 mm 4,5 UV-I 817 W/m 3,6 C 16,7 C 20,9 km/h (4 Bft) 98,00 %
19.04.2019 13:00 20,1 C 12,8 C 31,7 C 38 % 1027,2 hPa 0,0 l/m 17,4 km/h (3 Bft) N-NO 32 2 min 0,000 mm 4,5 UV-I 816 W/m 5,3 C 16,8 C 22,5 km/h (4 Bft) 100,00 %
19.04.2019 13:02 20,2 C 12,8 C 31,7 C 34 % 1027,2 hPa 0,0 l/m 23,3 km/h (4 Bft) O 98 2 min 0,609 mm 4,5 UV-I 819 W/m 3,8 C 15,9 C 32,2 km/h (5 Bft) 100,00 %
19.04.2019 13:04 20,2 C 12,8 C 32,2 C 33 % 1027,2 hPa 0,0 l/m 16,9 km/h (3 Bft) O-SO 113 2 min 0,000 mm 4,5 UV-I 818 W/m 3,4 C 17,1 C 25,7 km/h (4 Bft) 100,00 %
19.04.2019 13:06 20,2 C 12,8 C 32,8 C 32 % 1027,2 hPa 0,0 l/m 14,1 km/h (3 Bft) O 84 2 min 0,000 mm 4,5 UV-I 817 W/m 3,0 C 17,7 C 27,4 km/h (4 Bft) 100,00 %
19.04.2019 13:08 20,3 C 12,8 C 33,3 C 37 % 1027,1 hPa 0,0 l/m 17,6 km/h (3 Bft) O-SO 103 2 min 0,000 mm 4,5 UV-I 816 W/m 5,1 C 17,1 C 22,5 km/h (4 Bft) 100,00 %
19.04.2019 13:10 20,3 C 12,8 C 32,8 C 36 % 1027,2 hPa 0,0 l/m 13,3 km/h (3 Bft) O-NO 63 2 min 0,000 mm 4,4 UV-I 812 W/m 4,7 C 18,0 C 17,7 km/h (3 Bft) 97,14 %
19.04.2019 13:12 20,3 C 13,3 C 32,8 C 36 % 1027,2 hPa 0,0 l/m 14,8 km/h (3 Bft) O 86 2 min 0,000 mm 4,4 UV-I 811 W/m 4,7 C 17,7 C 25,7 km/h (4 Bft) 100,00 %
19.04.2019 13:14 20,4 C 13,3 C 32,8 C 35 % 1027,1 hPa 0,0 l/m 16,5 km/h (3 Bft) NO 49 2 min 0,000 mm 4,4 UV-I 813 W/m 4,4 C 17,4 C 24,1 km/h (4 Bft) 100,00 %
19.04.2019 13:16 20,3 C 12,8 C 32,2 C 35 % 1027,2 hPa 0,0 l/m 14,5 km/h (3 Bft) NO 46 2 min 0,000 mm 4,4 UV-I 812 W/m 4,3 C 17,7 C 22,5 km/h (4 Bft) 100,00 %
19.04.2019 13:18 20,2 C 13,3 C 31,1 C 38 % 1027,1 hPa 0,0 l/m 22,8 km/h (4 Bft) O-NO 58 2 min 0,000 mm 4,4 UV-I 813 W/m 5,4 C 16,0 C 32,2 km/h (5 Bft) 100,00 %
19.04.2019 13:20 20,2 C 13,3 C 30,6 C 36 % 1027,1 hPa 0,0 l/m 20,1 km/h (4 Bft) O-NO 69 2 min 0,000 mm 4,4 UV-I 813 W/m 4,7 C 16,4 C 25,7 km/h (4 Bft) 100,00 %
19.04.2019 13:22 20,3 C 13,3 C 31,1 C 36 % 1027,1 hPa 0,0 l/m 20,3 km/h (4 Bft) NO 51 2 min 0,000 mm 4,4 UV-I 811 W/m 4,7 C 16,5 C 25,7 km/h (4 Bft) 100,00 %
19.04.2019 13:24 20,3 C 13,3 C 31,1 C 33 % 1027,1 hPa 0,0 l/m 22,8 km/h (4 Bft) O-NO 76 2 min 0,000 mm 4,4 UV-I 810 W/m 3,5 C 16,1 C 29,0 km/h (5 Bft) 100,00 %
19.04.2019 13:26 20,3 C 13,3 C 31,1 C 34 % 1027,2 hPa 0,0 l/m 16,6 km/h (3 Bft) O-NO 65 2 min 0,000 mm 4,4 UV-I 809 W/m 3,9 C 17,3 C 22,5 km/h (4 Bft) 97,56 %
19.04.2019 13:28 20,3 C 13,3 C 31,7 C 36 % 1027,1 hPa 0,0 l/m 17,8 km/h (3 Bft) O-NO 57 2 min 0,000 mm 4,4 UV-I 808 W/m 4,7 C 17,0 C 24,1 km/h (4 Bft) 98,00 %
19.04.2019 13:30 20,3 C 13,3 C 32,2 C 34 % 1027,1 hPa 0,0 l/m 11,2 km/h (2 Bft) NO 46 2 min 0,000 mm 4,4 UV-I 807 W/m 3,9 C 18,6 C 16,1 km/h (3 Bft) 97,44 %
19.04.2019 13:32 20,6 C 13,3 C 31,7 C 36 % 1027,1 hPa 0,0 l/m 15,6 km/h (3 Bft) O 96 2 min 0,000 mm 4,3 UV-I 805 W/m 5,0 C 17,8 C 29,0 km/h (5 Bft) 98,00 %
19.04.2019 13:34 20,7 C 13,3 C 32,2 C 36 % 1027,1 hPa 0,0 l/m 17,4 km/h (3 Bft) O 81 2 min 0,000 mm 4,3 UV-I 804 W/m 5,1 C 17,6 C 27,4 km/h (4 Bft) 97,87 %
19.04.2019 13:36 20,8 C 13,3 C 32,2 C 36 % 1027,1 hPa 0,0 l/m 21,8 km/h (4 Bft) O 93 2 min 0,000 mm 4,3 UV-I 806 W/m 5,2 C 16,9 C 30,6 km/h (5 Bft) 97,87 %
19.04.2019 13:38 20,7 C 13,3 C 31,1 C 33 % 1027,1 hPa 0,0 l/m 20,4 km/h (4 Bft) O 79 2 min 0,000 mm 4,3 UV-I 803 W/m 3,9 C 17,0 C 29,0 km/h (5 Bft) 98,11 %
19.04.2019 13:40 20,6 C 13,3 C 31,1 C 33 % 1027,1 hPa 0,0 l/m 16,5 km/h (3 Bft) NO 54 2 min 0,000 mm 4,3 UV-I 800 W/m 3,8 C 17,7 C 25,7 km/h (4 Bft) 97,73 %
19.04.2019 13:42 20,5 C 13,3 C 30,6 C 36 % 1027,0 hPa 0,0 l/m 18,9 km/h (3 Bft) NO 53 2 min 0,000 mm 4,3 UV-I 800 W/m 4,9 C 17,1 C 22,5 km/h (4 Bft) 97,37 %
19.04.2019 13:44 20,5 C 13,3 C 30,6 C 39 % 1027,0 hPa 0,0 l/m 16,7 km/h (3 Bft) NO 56 2 min 0,000 mm 4,3 UV-I 797 W/m 6,1 C 17,5 C 22,5 km/h (4 Bft) 94,64 %
19.04.2019 13:46 20,6 C 13,3 C 30,0 C 37 % 1027,0 hPa 0,0 l/m 17,6 km/h (3 Bft) O-NO 57 2 min 0,000 mm 4,2 UV-I 795 W/m 5,4 C 17,4 C 27,4 km/h (4 Bft) 98,00 %
19.04.2019 13:48 20,7 C 13,3 C 30,6 C 37 % 1027,0 hPa 0,0 l/m 18,9 km/h (3 Bft) O-NO 63 2 min 0,000 mm 4,2 UV-I 794 W/m 5,5 C 17,3 C 25,7 km/h (4 Bft) 97,87 %
19.04.2019 13:50 20,8 C 13,3 C 31,1 C 35 % 1027,0 hPa 0,0 l/m 18,9 km/h (3 Bft) O 80 2 min 0,000 mm 4,2 UV-I 795 W/m 4,8 C 17,4 C 25,7 km/h (4 Bft) 97,73 %
19.04.2019 13:52 20,8 C 13,3 C 31,1 C 34 % 1027,0 hPa 0,0 l/m 20,9 km/h (4 Bft) O 82 2 min 0,000 mm 4,2 UV-I 795 W/m 4,4 C 17,1 C 32,2 km/h (5 Bft) 97,56 %
19.04.2019 13:54 20,8 C 13,3 C 31,1 C 34 % 1027,0 hPa 0,0 l/m 16,9 km/h (3 Bft) O-NO 76 2 min 0,000 mm 4,2 UV-I 795 W/m 4,4 C 17,8 C 24,1 km/h (4 Bft) 98,11 %
19.04.2019 13:56 20,7 C 13,3 C 31,1 C 34 % 1027,0 hPa 0,0 l/m 17,9 km/h (3 Bft) O-NO 67 2 min 0,000 mm 4,2 UV-I 793 W/m 4,3 C 17,5 C 25,7 km/h (4 Bft) 93,62 %
19.04.2019 13:58 20,6 C 13,3 C 31,7 C 34 % 1027,0 hPa 0,0 l/m 17,1 km/h (3 Bft) O-SO 106 2 min 0,000 mm 4,2 UV-I 790 W/m 4,2 C 17,5 C 25,7 km/h (4 Bft) 92,11 %
19.04.2019 14:00 20,7 C 13,3 C 32,2 C 35 % 1027,0 hPa 0,0 l/m 18,2 km/h (3 Bft) O 98 2 min 0,635 mm 4,2 UV-I 790 W/m 4,7 C 17,4 C 24,1 km/h (4 Bft) 93,62 %
19.04.2019 14:02 20,7 C 13,3 C 32,8 C 35 % 1027,0 hPa 0,0 l/m 15,0 km/h (3 Bft) O 80 2 min 0,000 mm 4,2 UV-I 789 W/m 4,7 C 18,1 C 20,9 km/h (4 Bft) 93,62 %
19.04.2019 14:04 20,7 C 13,3 C 32,2 C 35 % 1027,0 hPa 0,0 l/m 14,3 km/h (3 Bft) NO 55 2 min 0,000 mm 4,1 UV-I 785 W/m 4,7 C 18,3 C 19,3 km/h (3 Bft) 94,00 %
19.04.2019 14:06 20,8 C 13,3 C 32,2 C 35 % 1027,0 hPa 0,0 l/m 19,6 km/h (3 Bft) O 100 2 min 0,000 mm 4,1 UV-I 781 W/m 4,8 C 17,3 C 27,4 km/h (4 Bft) 92,45 %
19.04.2019 14:08 20,8 C 13,3 C 32,8 C 35 % 1027,0 hPa 0,0 l/m 15,7 km/h (3 Bft) O-SO 112 2 min 0,000 mm 4,1 UV-I 779 W/m 4,8 C 18,1 C 24,1 km/h (4 Bft) 94,87 %
19.04.2019 14:10 20,8 C 13,3 C 32,8 C 36 % 1027,0 hPa 0,0 l/m 15,8 km/h (3 Bft) O-SO 122 2 min 0,000 mm 4,1 UV-I 778 W/m 5,2 C 18,0 C 20,9 km/h (4 Bft) 91,49 %
19.04.2019 14:12 20,9 C 13,3 C 32,2 C 34 % 1026,9 hPa 0,0 l/m 19,1 km/h (3 Bft) O-SO 110 2 min 0,000 mm 4,0 UV-I 776 W/m 4,4 C 17,5 C 29,0 km/h (5 Bft) 92,00 %
19.04.2019 14:14 20,9 C 13,3 C 32,2 C 34 % 1026,9 hPa 0,0 l/m 20,6 km/h (4 Bft) O-NO 62 2 min 0,000 mm 4,0 UV-I 772 W/m 4,4 C 17,3 C 29,0 km/h (5 Bft) 92,68 %
19.04.2019 14:16 20,8 C 13,3 C 31,7 C 34 % 1027,0 hPa 0,0 l/m 17,7 km/h (3 Bft) O-NO 65 2 min 0,000 mm 4,0 UV-I 768 W/m 4,4 C 17,7 C 20,9 km/h (4 Bft) 96,43 %
19.04.2019 14:18 20,9 C 13,3 C 32,2 C 33 % 1027,0 hPa 0,0 l/m 14,1 km/h (3 Bft) O-NO 73 2 min 0,000 mm 4,0 UV-I 766 W/m 4,0 C 18,5 C 20,9 km/h (4 Bft) 88,46 %
19.04.2019 14:20 20,9 C 13,3 C 32,2 C 33 % 1026,9 hPa 0,0 l/m 15,6 km/h (3 Bft) O 86 2 min 0,000 mm 3,9 UV-I 765 W/m 4,0 C 18,2 C 25,7 km/h (4 Bft) 95,38 %
19.04.2019 14:22 21,0 C 13,3 C 32,2 C 34 % 1027,0 hPa 0,0 l/m 13,6 km/h (3 Bft) O-SO 113 2 min 0,000 mm 3,9 UV-I 765 W/m 4,5 C 18,8 C 20,9 km/h (4 Bft) 93,62 %
19.04.2019 14:24 21,1 C 13,3 C 32,2 C 35 % 1027,0 hPa 0,0 l/m 12,7 km/h (3 Bft) O 91 2 min 0,000 mm 3,9 UV-I 764 W/m 5,0 C 19,1 C 17,7 km/h (3 Bft) 90,00 %
19.04.2019 14:26 21,2 C 13,3 C 32,2 C 34 % 1026,9 hPa 0,0 l/m 16,3 km/h (3 Bft) O 83 2 min 0,000 mm 3,9 UV-I 758 W/m 4,7 C 18,4 C 22,5 km/h (4 Bft) 92,11 %
19.04.2019 14:28 21,3 C 13,3 C 31,1 C 35 % 1026,9 hPa 0,0 l/m 18,7 km/h (3 Bft) O 88 2 min 0,000 mm 3,8 UV-I 754 W/m 5,2 C 18,1 C 27,4 km/h (4 Bft) 98,11 %
19.04.2019 14:30 21,2 C 13,3 C 32,2 C 35 % 1026,9 hPa 0,0 l/m 13,6 km/h (3 Bft) N-NO 26 2 min 0,000 mm 3,8 UV-I 750 W/m 5,1 C 19,0 C 19,3 km/h (3 Bft) 94,00 %
19.04.2019 14:32 21,4 C 13,3 C 31,7 C 37 % 1026,9 hPa 0,0 l/m 18,1 km/h (3 Bft) NO 55 2 min 0,000 mm 3,8 UV-I 749 W/m 6,1 C 18,3 C 25,7 km/h (4 Bft) 97,37 %
19.04.2019 14:34 21,4 C 13,9 C 31,1 C 34 % 1026,9 hPa 0,0 l/m 20,0 km/h (4 Bft) O 99 2 min 0,000 mm 3,8 UV-I 748 W/m 4,9 C 18,0 C 27,4 km/h (4 Bft) 98,21 %
19.04.2019 14:36 21,3 C 13,9 C 31,1 C 37 % 1026,7 hPa 0,0 l/m 17,8 km/h (3 Bft) NO 37 2 min 0,000 mm 3,7 UV-I 745 W/m 6,0 C 18,3 C 27,4 km/h (4 Bft) 97,73 %
19.04.2019 14:38 21,4 C 13,9 C 31,7 C 35 % 1026,9 hPa 0,0 l/m 16,2 km/h (3 Bft) O-NO 77 2 min 0,000 mm 3,7 UV-I 742 W/m 5,3 C 18,7 C 24,1 km/h (4 Bft) 98,00 %
19.04.2019 14:40 21,4 C 13,9 C 31,1 C 32 % 1026,8 hPa 0,0 l/m 17,3 km/h (3 Bft) O-NO 64 2 min 0,000 mm 3,7 UV-I 739 W/m 4,0 C 18,5 C 22,5 km/h (4 Bft) 97,37 %
19.04.2019 14:42 21,3 C 13,9 C 31,7 C 32 % 1026,7 hPa 0,0 l/m 12,8 km/h (3 Bft) NO 48 2 min 0,000 mm 3,7 UV-I 738 W/m 3,9 C 19,3 C 17,7 km/h (3 Bft) 98,21 %
19.04.2019 14:44 21,3 C 13,9 C 31,7 C 34 % 1026,7 hPa 0,0 l/m 20,2 km/h (4 Bft) O 85 2 min 0,000 mm 3,6 UV-I 735 W/m 4,8 C 17,9 C 30,6 km/h (5 Bft) 97,44 %
19.04.2019 14:46 21,3 C 13,9 C 31,1 C 36 % 1026,7 hPa 0,0 l/m 21,1 km/h (4 Bft) NO 47 2 min 0,000 mm 3,6 UV-I 733 W/m 5,6 C 17,7 C 30,6 km/h (5 Bft) 98,08 %
19.04.2019 14:48 21,3 C 13,9 C 30,6 C 34 % 1026,8 hPa 0,0 l/m 22,9 km/h (4 Bft) O 86 2 min 0,000 mm 3,6 UV-I 729 W/m 4,8 C 17,4 C 30,6 km/h (5 Bft) 97,78 %
19.04.2019 14:50 21,2 C 13,9 C 30,6 C 32 % 1026,8 hPa 0,0 l/m 18,8 km/h (3 Bft) O 88 2 min 0,000 mm 3,5 UV-I 726 W/m 3,8 C 18,0 C 25,7 km/h (4 Bft) 97,87 %
19.04.2019 14:52 21,3 C 13,9 C 31,7 C 33 % 1026,7 hPa 0,0 l/m 17,4 km/h (3 Bft) O-SO 103 2 min 0,000 mm 3,5 UV-I 723 W/m 4,4 C 18,3 C 24,1 km/h (4 Bft) 95,74 %
19.04.2019 14:54 21,4 C 13,9 C 32,8 C 33 % 1026,7 hPa 0,0 l/m 16,3 km/h (3 Bft) O-NO 73 2 min 0,000 mm 3,5 UV-I 721 W/m 4,5 C 18,7 C 24,1 km/h (4 Bft) 96,00 %
19.04.2019 14:56 21,4 C 13,9 C 31,7 C 31 % 1026,7 hPa 0,0 l/m 21,3 km/h (4 Bft) O 96 2 min 0,000 mm 3,5 UV-I 718 W/m 3,6 C 17,8 C 27,4 km/h (4 Bft) 97,37 %
19.04.2019 14:58 21,3 C 13,9 C 31,7 C 31 % 1026,7 hPa 0,0 l/m 17,2 km/h (3 Bft) O 83 2 min 0,000 mm 3,4 UV-I 715 W/m 3,5 C 18,4 C 22,5 km/h (4 Bft) 98,00 %
19.04.2019 15:00 21,3 C 13,9 C 31,1 C 32 % 1026,7 hPa 0,0 l/m 16,3 km/h (3 Bft) O-NO 73 2 min 0,610 mm 3,4 UV-I 711 W/m 3,9 C 18,6 C 20,9 km/h (4 Bft) 98,11 %
19.04.2019 15:02 21,3 C 13,9 C 31,7 C 34 % 1026,7 hPa 0,0 l/m 15,6 km/h (3 Bft) O-NO 59 2 min 0,000 mm 3,4 UV-I 709 W/m 4,8 C 18,7 C 20,9 km/h (4 Bft) 97,56 %
19.04.2019 15:04 21,3 C 13,9 C 31,1 C 35 % 1026,6 hPa 0,0 l/m 11,1 km/h (2 Bft) O-NO 63 2 min 0,000 mm 3,3 UV-I 704 W/m 5,2 C 19,8 C 17,7 km/h (3 Bft) 98,00 %
19.04.2019 15:06 21,3 C 13,9 C 30,6 C 35 % 1026,5 hPa 0,0 l/m 15,2 km/h (3 Bft) NO 46 2 min 0,000 mm 3,3 UV-I 701 W/m 5,2 C 18,8 C 22,5 km/h (4 Bft) 97,87 %
19.04.2019 15:08 21,3 C 13,9 C 30,6 C 35 % 1026,6 hPa 0,0 l/m 18,1 km/h (3 Bft) O 88 2 min 0,000 mm 3,2 UV-I 697 W/m 5,2 C 18,2 C 29,0 km/h (5 Bft) 100,00 %
19.04.2019 15:10 21,4 C 13,9 C 31,1 C 32 % 1026,5 hPa 0,0 l/m 19,4 km/h (3 Bft) O-NO 76 2 min 0,000 mm 3,2 UV-I 692 W/m 4,0 C 18,1 C 25,7 km/h (4 Bft) 100,00 %
19.04.2019 15:12 21,4 C 13,9 C 31,1 C 32 % 1026,5 hPa 0,0 l/m 15,8 km/h (3 Bft) O-SO 111 2 min 0,000 mm 3,2 UV-I 688 W/m 4,0 C 18,8 C 22,5 km/h (4 Bft) 97,87 %
19.04.2019 15:14 21,4 C 13,9 C 32,2 C 33 % 1026,4 hPa 0,0 l/m 14,1 km/h (3 Bft) O-NO 59 2 min 0,000 mm 3,1 UV-I 686 W/m 4,5 C 19,1 C 20,9 km/h (4 Bft) 100,00 %
19.04.2019 15:16 21,5 C 13,9 C 32,2 C 33 % 1026,5 hPa 0,0 l/m 14,1 km/h (3 Bft) O 98 2 min 0,000 mm 3,1 UV-I 684 W/m 4,5 C 19,3 C 27,4 km/h (4 Bft) 100,00 %
19.04.2019 15:18 21,5 C 13,9 C 31,7 C 32 % 1026,4 hPa 0,0 l/m 17,4 km/h (3 Bft) O-SO 110 2 min 0,000 mm 3,1 UV-I 679 W/m 4,1 C 18,6 C 25,7 km/h (4 Bft) 100,00 %
19.04.2019 15:20 21,5 C 13,9 C 31,7 C 32 % 1026,4 hPa 0,0 l/m 16,7 km/h (3 Bft) O 84 2 min 0,000 mm 3,1 UV-I 675 W/m 4,1 C 18,7 C 29,0 km/h (5 Bft) 100,00 %
19.04.2019 15:22 21,4 C 13,9 C 31,1 C 31 % 1026,4 hPa 0,0 l/m 15,6 km/h (3 Bft) O-NO 67 2 min 0,000 mm 3,0 UV-I 671 W/m 3,6 C 18,8 C 22,5 km/h (4 Bft) 100,00 %
19.04.2019 15:24 21,4 C 13,9 C 30,6 C 35 % 1026,4 hPa 0,0 l/m 20,7 km/h (4 Bft) O-NO 73 2 min 0,000 mm 3,0 UV-I 667 W/m 5,3 C 17,9 C 29,0 km/h (5 Bft) 100,00 %
19.04.2019 15:26 21,4 C 13,9 C 31,1 C 33 % 1026,4 hPa 0,0 l/m 17,3 km/h (3 Bft) O 82 2 min 0,000 mm 3,0 UV-I 661 W/m 4,5 C 18,5 C 24,1 km/h (4 Bft) 96,00 %
19.04.2019 15:28 21,4 C 13,9 C 31,1 C 34 % 1026,4 hPa 0,0 l/m 14,9 km/h (3 Bft) NO 44 2 min 0,000 mm 2,9 UV-I 658 W/m 4,9 C 19,0 C 20,9 km/h (4 Bft) 97,87 %
19.04.2019 15:30 21,3 C 13,9 C 31,1 C 36 % 1026,3 hPa 0,0 l/m 10,3 km/h (2 Bft) N-NO 16 2 min 0,000 mm 2,9 UV-I 654 W/m 5,6 C 20,0 C 17,7 km/h (3 Bft) 97,87 %
19.04.2019 15:32 21,4 C 13,9 C 30,6 C 37 % 1026,3 hPa 0,0 l/m 16,5 km/h (3 Bft) NO 38 2 min 0,000 mm 2,8 UV-I 649 W/m 6,1 C 18,6 C 22,5 km/h (4 Bft) 97,87 %
19.04.2019 15:34 21,6 C 13,9 C 30,6 C 34 % 1026,3 hPa 0,0 l/m 15,4 km/h (3 Bft) NO 47 2 min 0,000 mm 2,8 UV-I 645 W/m 5,1 C 19,1 C 24,1 km/h (4 Bft) 97,87 %
19.04.2019 15:36 21,6 C 13,9 C 30,6 C 34 % 1026,2 hPa 0,0 l/m 20,3 km/h (4 Bft) NO 47 2 min 0,000 mm 2,7 UV-I 640 W/m 5,1 C 18,2 C 27,4 km/h (4 Bft) 97,87 %
19.04.2019 15:38 21,6 C 13,9 C 31,1 C 34 % 1026,2 hPa 0,0 l/m 15,7 km/h (3 Bft) NO 42 2 min 0,000 mm 2,7 UV-I 638 W/m 5,1 C 19,0 C 24,1 km/h (4 Bft) 97,87 %
19.04.2019 15:40 21,6 C 13,9 C 30,0 C 32 % 1026,3 hPa 0,0 l/m 20,8 km/h (4 Bft) O-NO 57 2 min 0,000 mm 2,7 UV-I 634 W/m 4,2 C 18,1 C 27,4 km/h (4 Bft) 98,00 %
19.04.2019 15:42 21,6 C 13,9 C 30,6 C 32 % 1026,2 hPa 0,0 l/m 18,7 km/h (3 Bft) O 97 2 min 0,000 mm 2,7 UV-I 631 W/m 4,2 C 18,5 C 25,7 km/h (4 Bft) 97,87 %
19.04.2019 15:44 21,6 C 13,9 C 31,1 C 33 % 1026,2 hPa 0,0 l/m 11,1 km/h (2 Bft) O-NO 69 2 min 0,000 mm 2,6 UV-I 626 W/m 4,6 C 20,1 C 19,3 km/h (3 Bft) 97,37 %
19.04.2019 15:46 21,6 C 13,9 C 31,1 C 34 % 1026,1 hPa 0,0 l/m 18,0 km/h (3 Bft) N 5 2 min 0,000 mm 2,6 UV-I 621 W/m 5,1 C 18,6 C 27,4 km/h (4 Bft) 97,87 %
19.04.2019 15:48 21,7 C 13,9 C 31,1 C 34 % 1026,1 hPa 0,0 l/m 16,4 km/h (3 Bft) O-NO 71 2 min 0,000 mm 2,5 UV-I 615 W/m 5,2 C 19,0 C 29,0 km/h (5 Bft) 93,62 %
19.04.2019 15:50 21,6 C 13,9 C 31,1 C 32 % 1026,2 hPa 0,0 l/m 17,4 km/h (3 Bft) O-NO 72 2 min 0,000 mm 2,5 UV-I 611 W/m 4,2 C 18,7 C 25,7 km/h (4 Bft) 91,49 %
19.04.2019 15:52 21,6 C 13,9 C 31,7 C 32 % 1026,2 hPa 0,0 l/m 17,1 km/h (3 Bft) O 98 2 min 0,000 mm 2,5 UV-I 606 W/m 4,2 C 18,8 C 24,1 km/h (4 Bft) 93,62 %
19.04.2019 15:54 21,6 C 13,9 C 31,1 C 32 % 1026,1 hPa 0,0 l/m 17,0 km/h (3 Bft) O 96 2 min 0,000 mm 2,4 UV-I 598 W/m 4,2 C 18,8 C 25,7 km/h (4 Bft) 92,00 %
19.04.2019 15:56 21,6 C 13,9 C 30,6 C 32 % 1026,1 hPa 0,0 l/m 21,8 km/h (4 Bft) O 88 2 min 0,000 mm 2,4 UV-I 598 W/m 4,2 C 18,0 C 27,4 km/h (4 Bft) 96,00 %
19.04.2019 15:58 21,5 C 13,9 C 30,6 C 33 % 1026,1 hPa 0,0 l/m 14,9 km/h (3 Bft) NO 39 2 min 0,000 mm 2,3 UV-I 593 W/m 4,5 C 19,1 C 22,5 km/h (4 Bft) 97,87 %
19.04.2019 16:00 21,5 C 13,9 C 31,1 C 32 % 1026,1 hPa 0,0 l/m 13,1 km/h (3 Bft) O-NO 68 2 min 0,533 mm 2,3 UV-I 589 W/m 4,1 C 19,5 C 19,3 km/h (3 Bft) 98,00 %
19.04.2019 16:02 21,6 C 13,9 C 31,1 C 34 % 1026,0 hPa 0,0 l/m 14,9 km/h (3 Bft) O-NO 59 2 min 0,000 mm 2,3 UV-I 585 W/m 5,1 C 19,2 C 24,1 km/h (4 Bft) 97,44 %
19.04.2019 16:04 21,6 C 13,9 C 30,0 C 32 % 1026,0 hPa 0,0 l/m 18,1 km/h (3 Bft) O-SO 110 2 min 0,000 mm 2,3 UV-I 581 W/m 4,2 C 18,6 C 25,7 km/h (4 Bft) 97,87 %
19.04.2019 16:06 21,6 C 13,9 C 30,6 C 33 % 1026,0 hPa 0,0 l/m 13,2 km/h (3 Bft) O 79 2 min 0,000 mm 2,2 UV-I 576 W/m 4,6 C 19,6 C 20,9 km/h (4 Bft) 97,87 %
19.04.2019 16:08 21,7 C 13,9 C 30,6 C 32 % 1026,0 hPa 0,0 l/m 15,2 km/h (3 Bft) O-NO 66 2 min 0,000 mm 2,2 UV-I 571 W/m 4,3 C 19,3 C 22,5 km/h (4 Bft) 97,87 %
19.04.2019 16:10 21,7 C 13,9 C 31,1 C 35 % 1026,0 hPa 0,0 l/m 15,7 km/h (3 Bft) NO 43 2 min 0,000 mm 2,2 UV-I 566 W/m 5,6 C 19,2 C 20,9 km/h (4 Bft) 96,23 %
19.04.2019 16:12 21,7 C 13,9 C 30,0 C 34 % 1026,0 hPa 0,0 l/m 16,5 km/h (3 Bft) O-NO 68 2 min 0,000 mm 2,1 UV-I 560 W/m 5,2 C 19,0 C 22,5 km/h (4 Bft) 97,87 %
19.04.2019 16:14 21,7 C 13,9 C 30,0 C 32 % 1026,0 hPa 0,0 l/m 13,8 km/h (3 Bft) O-NO 72 2 min 0,000 mm 2,1 UV-I 554 W/m 4,3 C 19,6 C 22,5 km/h (4 Bft) 97,87 %
19.04.2019 16:16 21,8 C 13,9 C 30,0 C 33 % 1026,0 hPa 0,0 l/m 19,1 km/h (3 Bft) NO 39 2 min 0,000 mm 2,0 UV-I 550 W/m 4,8 C 18,7 C 29,0 km/h (5 Bft) 97,87 %
19.04.2019 16:18 21,6 C 13,9 C 28,3 C 33 % 1026,0 hPa 0,0 l/m 19,0 km/h (3 Bft) NO 37 2 min 0,000 mm 2,0 UV-I 546 W/m 4,6 C 18,4 C 25,7 km/h (4 Bft) 93,62 %
19.04.2019 16:20 21,4 C 13,9 C 28,3 C 35 % 1026,0 hPa 0,0 l/m 18,0 km/h (3 Bft) NO 45 2 min 0,000 mm 2,0 UV-I 541 W/m 5,3 C 18,4 C 25,7 km/h (4 Bft) 93,62 %
19.04.2019 16:22 21,4 C 13,9 C 28,3 C 33 % 1026,0 hPa 0,0 l/m 22,2 km/h (4 Bft) O-NO 77 2 min 0,000 mm 1,9 UV-I 536 W/m 4,5 C 17,7 C 30,6 km/h (5 Bft) 100,00 %
19.04.2019 16:24 21,4 C 13,9 C 28,3 C 32 % 1026,0 hPa 0,0 l/m 21,1 km/h (4 Bft) NO 55 2 min 0,000 mm 1,9 UV-I 529 W/m 4,0 C 17,8 C 27,4 km/h (4 Bft) 100,00 %
19.04.2019 16:26 21,4 C 13,9 C 28,3 C 32 % 1026,0 hPa 0,0 l/m 18,7 km/h (3 Bft) O 97 2 min 0,000 mm 1,9 UV-I 524 W/m 4,0 C 18,2 C 24,1 km/h (4 Bft) 98,00 %
19.04.2019 16:28 21,4 C 13,9 C 28,9 C 31 % 1025,9 hPa 0,0 l/m 18,2 km/h (3 Bft) O-NO 66 2 min 0,000 mm 1,8 UV-I 521 W/m 3,6 C 18,3 C 25,7 km/h (4 Bft) 100,00 %
19.04.2019 16:30 21,4 C 13,9 C 28,9 C 32 % 1025,9 hPa 0,0 l/m 22,8 km/h (4 Bft) O 81 2 min 0,000 mm 1,8 UV-I 515 W/m 4,0 C 17,6 C 33,8 km/h (5 Bft) 97,87 %
19.04.2019 16:32 21,4 C 13,9 C 28,9 C 32 % 1026,0 hPa 0,0 l/m 16,5 km/h (3 Bft) O 82 2 min 0,000 mm 1,8 UV-I 512 W/m 4,0 C 18,6 C 25,7 km/h (4 Bft) 100,00 %
19.04.2019 16:34 21,4 C 13,9 C 29,4 C 32 % 1025,9 hPa 0,0 l/m 12,3 km/h (3 Bft) O 97 2 min 0,000 mm 1,7 UV-I 506 W/m 4,0 C 19,6 C 24,1 km/h (4 Bft) 100,00 %
19.04.2019 16:36 21,4 C 13,9 C 29,4 C 32 % 1025,9 hPa 0,0 l/m 20,6 km/h (4 Bft) O-NO 63 2 min 0,000 mm 1,7 UV-I 501 W/m 4,0 C 17,9 C 30,6 km/h (5 Bft) 97,87 %
19.04.2019 16:38 21,4 C 14,4 C 28,9 C 32 % 1025,8 hPa 0,0 l/m 24,8 km/h (4 Bft) O-NO 67 2 min 0,000 mm 1,7 UV-I 496 W/m 4,0 C 17,3 C 35,4 km/h (5 Bft) 100,00 %
19.04.2019 16:40 21,4 C 14,4 C 29,4 C 32 % 1025,9 hPa 0,0 l/m 19,5 km/h (3 Bft) O 90 2 min 0,000 mm 1,6 UV-I 491 W/m 4,0 C 18,1 C 24,1 km/h (4 Bft) 100,00 %
19.04.2019 16:42 21,4 C 14,4 C 28,9 C 33 % 1025,9 hPa 0,0 l/m 20,7 km/h (4 Bft) O-NO 67 2 min 0,000 mm 1,6 UV-I 484 W/m 4,5 C 17,9 C 29,0 km/h (5 Bft) 100,00 %
19.04.2019 16:44 21,4 C 14,4 C 29,4 C 34 % 1025,8 hPa 0,0 l/m 16,8 km/h (3 Bft) O-NO 69 2 min 0,000 mm 1,6 UV-I 480 W/m 4,9 C 18,6 C 27,4 km/h (4 Bft) 98,00 %
19.04.2019 16:46 21,4 C 14,4 C 29,4 C 35 % 1025,8 hPa 0,0 l/m 19,0 km/h (3 Bft) NO 36 2 min 0,000 mm 1,5 UV-I 475 W/m 5,3 C 18,2 C 25,7 km/h (4 Bft) 100,00 %
19.04.2019 16:48 21,5 C 14,4 C 30,0 C 35 % 1025,8 hPa 0,0 l/m 11,7 km/h (2 Bft) O-NO 60 2 min 0,000 mm 1,5 UV-I 469 W/m 5,4 C 19,8 C 19,3 km/h (3 Bft) 100,00 %
19.04.2019 16:50 21,5 C 14,4 C 30,0 C 33 % 1025,8 hPa 0,0 l/m 20,8 km/h (4 Bft) O-NO 77 2 min 0,000 mm 1,5 UV-I 464 W/m 4,5 C 18,0 C 29,0 km/h (5 Bft) 97,87 %
19.04.2019 16:52 21,4 C 14,4 C 29,4 C 32 % 1025,8 hPa 0,0 l/m 16,5 km/h (3 Bft) NO 52 2 min 0,000 mm 1,4 UV-I 458 W/m 4,0 C 18,6 C 20,9 km/h (4 Bft) 97,87 %
19.04.2019 16:54 21,4 C 14,4 C 28,9 C 32 % 1025,8 hPa 0,0 l/m 17,9 km/h (3 Bft) NO 54 2 min 0,000 mm 1,4 UV-I 452 W/m 4,0 C 18,4 C 25,7 km/h (4 Bft) 100,00 %
19.04.2019 16:56 21,4 C 14,4 C 28,9 C 32 % 1025,8 hPa 0,0 l/m 17,8 km/h (3 Bft) O-NO 61 2 min 0,000 mm 1,4 UV-I 446 W/m 4,0 C 18,4 C 29,0 km/h (5 Bft) 100,00 %
19.04.2019 16:58 21,4 C 14,4 C 28,9 C 32 % 1025,8 hPa 0,0 l/m 18,9 km/h (3 Bft) O-NO 61 2 min 0,000 mm 1,3 UV-I 442 W/m 4,0 C 18,2 C 27,4 km/h (4 Bft) 100,00 %
19.04.2019 17:00 21,3 C 14,4 C 28,9 C 31 % 1025,8 hPa 0,0 l/m 13,0 km/h (3 Bft) O-NO 59 2 min 0,483 mm 1,3 UV-I 437 W/m 3,5 C 19,3 C 20,9 km/h (4 Bft) 100,00 %
19.04.2019 17:02 21,4 C 14,4 C 29,4 C 34 % 1025,8 hPa 0,0 l/m 12,4 km/h (3 Bft) NO 47 2 min 0,000 mm 1,3 UV-I 429 W/m 4,9 C 19,5 C 17,7 km/h (3 Bft) 98,00 %
19.04.2019 17:04 21,4 C 14,4 C 28,9 C 36 % 1025,8 hPa 0,0 l/m 19,1 km/h (3 Bft) O-NO 70 2 min 0,000 mm 1,3 UV-I 423 W/m 5,7 C 18,2 C 24,1 km/h (4 Bft) 97,87 %
19.04.2019 17:06 21,3 C 14,4 C 27,8 C 36 % 1025,8 hPa 0,0 l/m 18,9 km/h (3 Bft) N-NO 33 2 min 0,000 mm 1,2 UV-I 418 W/m 5,6 C 18,1 C 24,1 km/h (4 Bft) 97,87 %
19.04.2019 17:08 21,3 C 14,4 C 28,3 C 34 % 1025,8 hPa 0,0 l/m 15,8 km/h (3 Bft) O 86 2 min 0,000 mm 1,2 UV-I 414 W/m 4,8 C 18,7 C 22,5 km/h (4 Bft) 95,74 %
19.04.2019 17:10 21,3 C 14,4 C 28,3 C 34 % 1025,8 hPa 0,0 l/m 18,2 km/h (3 Bft) O 79 2 min 0,000 mm 1,2 UV-I 410 W/m 4,8 C 18,2 C 22,5 km/h (4 Bft) 97,37 %
19.04.2019 17:12 21,4 C 14,4 C 28,9 C 33 % 1025,8 hPa 0,0 l/m 13,6 km/h (3 Bft) O-NO 67 2 min 0,000 mm 1,2 UV-I 404 W/m 4,5 C 19,3 C 20,9 km/h (4 Bft) 98,11 %
19.04.2019 17:14 21,4 C 14,4 C 28,3 C 34 % 1025,8 hPa 0,0 l/m 20,8 km/h (4 Bft) NO 55 2 min 0,000 mm 1,1 UV-I 398 W/m 4,9 C 17,9 C 27,4 km/h (4 Bft) 94,00 %
19.04.2019 17:16 21,3 C 14,4 C 28,3 C 34 % 1025,8 hPa 0,0 l/m 18,6 km/h (3 Bft) NO 44 2 min 0,000 mm 1,1 UV-I 393 W/m 4,8 C 18,1 C 25,7 km/h (4 Bft) 97,87 %
19.04.2019 17:18 21,2 C 14,4 C 28,3 C 34 % 1025,8 hPa 0,0 l/m 13,3 km/h (3 Bft) O-NO 62 2 min 0,000 mm 1,1 UV-I 387 W/m 4,7 C 19,1 C 22,5 km/h (4 Bft) 95,74 %
19.04.2019 17:20 21,2 C 14,4 C 28,3 C 33 % 1025,7 hPa 0,0 l/m 20,5 km/h (4 Bft) NO 36 2 min 0,000 mm 1,0 UV-I 382 W/m 4,3 C 17,7 C 30,6 km/h (5 Bft) 97,92 %
19.04.2019 17:22 21,2 C 14,4 C 28,3 C 33 % 1025,7 hPa 0,0 l/m 17,7 km/h (3 Bft) O 81 2 min 0,000 mm 1,0 UV-I 376 W/m 4,3 C 18,2 C 24,1 km/h (4 Bft) 97,87 %
19.04.2019 17:24 21,2 C 14,4 C 27,8 C 33 % 1025,8 hPa 0,0 l/m 17,0 km/h (3 Bft) O-NO 71 2 min 0,000 mm 1,0 UV-I 369 W/m 4,3 C 18,3 C 25,7 km/h (4 Bft) 95,74 %
19.04.2019 17:26 21,3 C 14,4 C 28,3 C 32 % 1025,7 hPa 0,0 l/m 16,9 km/h (3 Bft) O-NO 73 2 min 0,000 mm 1,0 UV-I 363 W/m 3,9 C 18,4 C 22,5 km/h (4 Bft) 100,00 %
19.04.2019 17:28 21,2 C 14,4 C 27,8 C 32 % 1025,7 hPa 0,0 l/m 18,6 km/h (3 Bft) O-NO 70 2 min 0,000 mm 0,9 UV-I 358 W/m 3,8 C 18,0 C 22,5 km/h (4 Bft) 97,06 %
19.04.2019 17:30 21,1 C 14,4 C 27,8 C 31 % 1025,7 hPa 0,0 l/m 18,8 km/h (3 Bft) O 84 2 min 0,000 mm 0,9 UV-I 353 W/m 3,3 C 17,8 C 25,7 km/h (4 Bft) 100,00 %
19.04.2019 17:32 21,1 C 14,4 C 26,7 C 31 % 1025,7 hPa 0,0 l/m 19,1 km/h (3 Bft) O 82 2 min 0,000 mm 0,9 UV-I 347 W/m 3,3 C 17,8 C 24,1 km/h (4 Bft) 98,11 %
19.04.2019 17:34 21,1 C 14,4 C 26,1 C 32 % 1025,7 hPa 0,0 l/m 15,3 km/h (3 Bft) O 84 2 min 0,000 mm 0,9 UV-I 342 W/m 3,8 C 18,5 C 19,3 km/h (3 Bft) 100,00 %
19.04.2019 17:36 21,1 C 14,4 C 27,2 C 34 % 1025,7 hPa 0,0 l/m 18,0 km/h (3 Bft) O 96 2 min 0,000 mm 0,8 UV-I 335 W/m 4,6 C 18,0 C 22,5 km/h (4 Bft) 100,00 %
19.04.2019 17:38 21,1 C 14,4 C 26,7 C 33 % 1025,7 hPa 0,0 l/m 16,7 km/h (3 Bft) O-NO 76 2 min 0,000 mm 0,8 UV-I 329 W/m 4,2 C 18,2 C 22,5 km/h (4 Bft) 95,12 %
19.04.2019 17:40 21,1 C 14,4 C 26,1 C 32 % 1025,7 hPa 0,0 l/m 17,5 km/h (3 Bft) O 91 2 min 0,000 mm 0,8 UV-I 323 W/m 3,8 C 18,1 C 25,7 km/h (4 Bft) 95,74 %
19.04.2019 17:42 21,1 C 14,4 C 25,0 C 32 % 1025,7 hPa 0,0 l/m 18,2 km/h (3 Bft) O-NO 75 2 min 0,000 mm 0,8 UV-I 318 W/m 3,8 C 17,9 C 24,1 km/h (4 Bft) 93,62 %
19.04.2019 17:44 21,0 C 14,4 C 24,4 C 33 % 1025,7 hPa 0,0 l/m 18,4 km/h (3 Bft) O-NO 65 2 min 0,000 mm 0,7 UV-I 312 W/m 4,1 C 17,8 C 25,7 km/h (4 Bft) 97,87 %
19.04.2019 17:46 20,9 C 14,4 C 24,4 C 33 % 1025,7 hPa 0,0 l/m 17,6 km/h (3 Bft) O-NO 78 2 min 0,000 mm 0,7 UV-I 306 W/m 4,0 C 17,8 C 24,1 km/h (4 Bft) 93,62 %
19.04.2019 17:48 20,9 C 14,4 C 23,3 C 34 % 1025,7 hPa 0,0 l/m 16,8 km/h (3 Bft) O-NO 64 2 min 0,000 mm 0,7 UV-I 300 W/m 4,4 C 18,0 C 22,5 km/h (4 Bft) 97,87 %
19.04.2019 17:50 20,9 C 14,4 C 23,3 C 34 % 1025,7 hPa 0,0 l/m 14,2 km/h (3 Bft) O-NO 57 2 min 0,000 mm 0,7 UV-I 295 W/m 4,4 C 18,5 C 20,9 km/h (4 Bft) 97,87 %
19.04.2019 17:52 21,0 C 14,4 C 23,3 C 34 % 1025,6 hPa 0,0 l/m 11,8 km/h (2 Bft) O 83 2 min 0,000 mm 0,6 UV-I 288 W/m 4,5 C 19,2 C 19,3 km/h (3 Bft) 98,00 %
19.04.2019 17:54 20,9 C 14,4 C 23,3 C 33 % 1025,6 hPa 0,0 l/m 19,7 km/h (3 Bft) O-NO 73 2 min 0,000 mm 0,6 UV-I 282 W/m 4,0 C 17,4 C 25,7 km/h (4 Bft) 97,44 %
19.04.2019 17:56 20,9 C 14,4 C 22,8 C 33 % 1025,7 hPa 0,0 l/m 18,5 km/h (3 Bft) O-NO 67 2 min 0,000 mm 0,6 UV-I 277 W/m 4,0 C 17,6 C 24,1 km/h (4 Bft) 96,08 %
19.04.2019 17:58 20,9 C 14,4 C 22,8 C 33 % 1025,7 hPa 0,0 l/m 17,1 km/h (3 Bft) O 87 2 min 0,000 mm 0,6 UV-I 272 W/m 4,0 C 17,9 C 24,1 km/h (4 Bft) 97,87 %
19.04.2019 18:00 20,8 C 14,4 C 22,2 C 34 % 1025,7 hPa 0,0 l/m 15,4 km/h (3 Bft) O 88 2 min 0,381 mm 0,6 UV-I 267 W/m 4,4 C 18,1 C 20,9 km/h (4 Bft) 97,87 %
19.04.2019 18:02 20,9 C 14,4 C 21,7 C 33 % 1025,7 hPa 0,0 l/m 18,4 km/h (3 Bft) O-SO 109 2 min 0,000 mm 0,5 UV-I 261 W/m 4,0 C 17,7 C 25,7 km/h (4 Bft) 97,87 %
19.04.2019 18:04 20,9 C 14,4 C 21,7 C 33 % 1025,7 hPa 0,0 l/m 16,8 km/h (3 Bft) O-NO 68 2 min 0,000 mm 0,5 UV-I 255 W/m 4,0 C 18,0 C 22,5 km/h (4 Bft) 98,00 %
19.04.2019 18:06 20,8 C 14,4 C 21,1 C 32 % 1025,7 hPa 0,0 l/m 15,3 km/h (3 Bft) O 90 2 min 0,000 mm 0,5 UV-I 249 W/m 3,5 C 18,2 C 20,9 km/h (4 Bft) 97,87 %
19.04.2019 18:08 20,8 C 14,4 C 20,6 C 33 % 1025,6 hPa 0,0 l/m 17,5 km/h (3 Bft) O-NO 72 2 min 0,000 mm 0,5 UV-I 243 W/m 3,9 C 17,7 C 24,1 km/h (4 Bft) 95,74 %
19.04.2019 18:10 20,8 C 14,4 C 20,0 C 34 % 1025,7 hPa 0,0 l/m 14,9 km/h (3 Bft) O-NO 70 2 min 0,000 mm 0,5 UV-I 238 W/m 4,4 C 18,2 C 22,5 km/h (4 Bft) 97,37 %
19.04.2019 18:12 20,8 C 14,4 C 20,0 C 33 % 1025,7 hPa 0,0 l/m 16,0 km/h (3 Bft) O-NO 65 2 min 0,000 mm 0,4 UV-I 232 W/m 3,9 C 18,0 C 22,5 km/h (4 Bft) 97,87 %
19.04.2019 18:14 20,7 C 14,4 C 19,4 C 34 % 1025,7 hPa 0,0 l/m 16,8 km/h (3 Bft) O 82 2 min 0,000 mm 0,0 UV-I 227 W/m 4,3 C 17,7 C 20,9 km/h (4 Bft) 98,08 %
19.04.2019 18:16 20,7 C 14,4 C 19,4 C 34 % 1025,7 hPa 0,0 l/m 15,9 km/h (3 Bft) O-NO 69 2 min 0,000 mm 0,0 UV-I 221 W/m 4,3 C 17,9 C 22,5 km/h (4 Bft) 100,00 %
19.04.2019 18:18 20,6 C 14,4 C 19,4 C 34 % 1025,7 hPa 0,0 l/m 18,0 km/h (3 Bft) O-NO 77 2 min 0,000 mm 0,0 UV-I 215 W/m 4,2 C 17,3 C 22,5 km/h (4 Bft) 100,00 %
19.04.2019 18:20 20,6 C 14,4 C 19,4 C 34 % 1025,7 hPa 0,0 l/m 16,1 km/h (3 Bft) O-NO 64 2 min 0,000 mm 0,0 UV-I 210 W/m 4,2 C 17,7 C 20,9 km/h (4 Bft) 97,87 %
19.04.2019 18:22 20,5 C 14,4 C 19,4 C 35 % 1025,7 hPa 0,0 l/m 14,9 km/h (3 Bft) O 94 2 min 0,000 mm 0,0 UV-I 205 W/m 4,5 C 17,9 C 17,7 km/h (3 Bft) 100,00 %
19.04.2019 18:24 20,5 C 14,4 C 18,9 C 34 % 1025,6 hPa 0,0 l/m 19,2 km/h (3 Bft) O-NO 66 2 min 0,000 mm 0,0 UV-I 199 W/m 4,1 C 17,0 C 27,4 km/h (4 Bft) 96,00 %
19.04.2019 18:26 20,4 C 14,4 C 18,9 C 34 % 1025,6 hPa 0,0 l/m 15,0 km/h (3 Bft) NO 56 2 min 0,000 mm 0,0 UV-I 194 W/m 4,0 C 17,7 C 22,5 km/h (4 Bft) 100,00 %
19.04.2019 18:28 20,4 C 14,4 C 18,9 C 34 % 1025,6 hPa 0,0 l/m 14,5 km/h (3 Bft) O-SO 107 2 min 0,000 mm 0,0 UV-I 187 W/m 4,0 C 17,9 C 22,5 km/h (4 Bft) 98,00 %
19.04.2019 18:30 20,4 C 14,4 C 18,9 C 34 % 1025,6 hPa 0,0 l/m 16,5 km/h (3 Bft) O-NO 72 2 min 0,000 mm 0,0 UV-I 182 W/m 4,0 C 17,4 C 20,9 km/h (4 Bft) 100,00 %
19.04.2019 18:32 20,3 C 14,4 C 18,9 C 35 % 1025,6 hPa 0,0 l/m 15,0 km/h (3 Bft) O-NO 71 2 min 0,000 mm 0,0 UV-I 177 W/m 4,3 C 17,6 C 20,9 km/h (4 Bft) 100,00 %
19.04.2019 18:34 20,3 C 14,4 C 18,9 C 36 % 1025,7 hPa 0,0 l/m 12,9 km/h (3 Bft) O-NO 71 2 min 0,000 mm 0,0 UV-I 172 W/m 4,7 C 18,1 C 22,5 km/h (4 Bft) 96,00 %
19.04.2019 18:36 20,3 C 14,4 C 18,9 C 34 % 1025,6 hPa 0,0 l/m 15,4 km/h (3 Bft) O 88 2 min 0,000 mm 0,0 UV-I 167 W/m 3,9 C 17,5 C 22,5 km/h (4 Bft) 94,00 %
19.04.2019 18:38 20,3 C 14,4 C 18,9 C 34 % 1025,6 hPa 0,0 l/m 15,9 km/h (3 Bft) O-NO 58 2 min 0,000 mm 0,0 UV-I 161 W/m 3,9 C 17,4 C 20,9 km/h (4 Bft) 97,87 %
19.04.2019 18:40 20,2 C 14,4 C 18,3 C 35 % 1025,7 hPa 0,0 l/m 15,2 km/h (3 Bft) O-NO 72 2 min 0,000 mm 0,0 UV-I 156 W/m 4,2 C 17,4 C 22,5 km/h (4 Bft) 95,74 %
19.04.2019 18:42 20,2 C 14,4 C 18,3 C 34 % 1025,7 hPa 0,0 l/m 15,4 km/h (3 Bft) NO 55 2 min 0,000 mm 0,0 UV-I 152 W/m 3,8 C 17,4 C 20,9 km/h (4 Bft) 97,87 %
19.04.2019 18:44 20,2 C 14,4 C 18,3 C 34 % 1025,6 hPa 0,0 l/m 14,6 km/h (3 Bft) O-NO 65 2 min 0,000 mm 0,0 UV-I 147 W/m 3,8 C 17,6 C 20,9 km/h (4 Bft) 97,87 %
19.04.2019 18:46 20,1 C 14,4 C 18,3 C 35 % 1025,7 hPa 0,0 l/m 14,5 km/h (3 Bft) O-NO 72 2 min 0,000 mm 0,0 UV-I 141 W/m 4,2 C 17,5 C 17,7 km/h (3 Bft) 95,74 %
19.04.2019 18:48 20,1 C 14,4 C 18,3 C 36 % 1025,7 hPa 0,0 l/m 11,1 km/h (2 Bft) O 89 2 min 0,000 mm 0,0 UV-I 136 W/m 4,6 C 18,4 C 16,1 km/h (3 Bft) 91,49 %
19.04.2019 18:50 20,0 C 14,4 C 17,8 C 36 % 1025,7 hPa 0,0 l/m 12,2 km/h (2 Bft) O-NO 64 2 min 0,000 mm 0,0 UV-I 133 W/m 4,5 C 18,0 C 17,7 km/h (3 Bft) 95,74 %
19.04.2019 18:52 20,0 C 14,4 C 17,8 C 36 % 1025,7 hPa 0,0 l/m 12,8 km/h (3 Bft) O-NO 65 2 min 0,000 mm 0,0 UV-I 128 W/m 4,5 C 17,8 C 24,1 km/h (4 Bft) 92,11 %
19.04.2019 18:54 19,9 C 14,4 C 17,8 C 35 % 1025,7 hPa 0,0 l/m 16,0 km/h (3 Bft) O 93 2 min 0,000 mm 0,0 UV-I 123 W/m 4,0 C 16,9 C 24,1 km/h (4 Bft) 91,49 %
19.04.2019 18:56 19,9 C 14,4 C 17,8 C 35 % 1025,7 hPa 0,0 l/m 15,5 km/h (3 Bft) O 90 2 min 0,000 mm 0,0 UV-I 119 W/m 4,0 C 17,0 C 20,9 km/h (4 Bft) 95,74 %
19.04.2019 18:58 19,9 C 14,4 C 17,8 C 35 % 1025,7 hPa 0,0 l/m 12,2 km/h (2 Bft) O 86 2 min 0,000 mm 0,0 UV-I 114 W/m 4,0 C 17,9 C 17,7 km/h (3 Bft) 93,62 %
19.04.2019 19:00 19,8 C 14,4 C 17,8 C 36 % 1025,8 hPa 0,0 l/m 9,1 km/h (2 Bft) O-SO 108 2 min 0,254 mm 0,0 UV-I 110 W/m 4,3 C 18,7 C 14,5 km/h (3 Bft) 97,87 %
19.04.2019 19:02 19,7 C 14,4 C 17,2 C 36 % 1025,7 hPa 0,0 l/m 9,5 km/h (2 Bft) O 79 2 min 0,000 mm 0,0 UV-I 106 W/m 4,2 C 18,5 C 16,1 km/h (3 Bft) 97,87 %
19.04.2019 19:04 19,7 C 14,4 C 17,2 C 36 % 1025,7 hPa 0,0 l/m 10,5 km/h (2 Bft) O 96 2 min 0,000 mm 0,0 UV-I 102 W/m 4,2 C 18,1 C 17,7 km/h (3 Bft) 97,22 %
19.04.2019 19:06 19,6 C 14,4 C 17,2 C 37 % 1025,8 hPa 0,0 l/m 9,7 km/h (2 Bft) O 90 2 min 0,000 mm 0,0 UV-I 99 W/m 4,5 C 18,3 C 12,9 km/h (3 Bft) 96,72 %
19.04.2019 19:08 19,5 C 14,4 C 17,2 C 37 % 1025,7 hPa 0,0 l/m 10,7 km/h (2 Bft) O 90 2 min 0,000 mm 0,0 UV-I 93 W/m 4,4 C 17,9 C 14,5 km/h (3 Bft) 96,23 %
19.04.2019 19:10 19,4 C 14,4 C 16,7 C 37 % 1025,8 hPa 0,0 l/m 10,7 km/h (2 Bft) O-SO 104 2 min 0,000 mm 0,0 UV-I 90 W/m 4,3 C 17,7 C 16,1 km/h (3 Bft) 100,00 %
19.04.2019 19:12 19,4 C 14,4 C 16,7 C 38 % 1025,8 hPa 0,0 l/m 11,5 km/h (2 Bft) O 94 2 min 0,000 mm 0,0 UV-I 85 W/m 4,7 C 17,5 C 19,3 km/h (3 Bft) 93,62 %
19.04.2019 19:14 19,2 C 14,4 C 16,7 C 38 % 1025,7 hPa 0,0 l/m 10,6 km/h (2 Bft) O 90 2 min 0,000 mm 0,0 UV-I 81 W/m 4,5 C 17,6 C 16,1 km/h (3 Bft) 97,87 %
19.04.2019 19:16 19,2 C 14,4 C 16,7 C 37 % 1025,7 hPa 0,0 l/m 12,7 km/h (3 Bft) O 81 2 min 0,000 mm 0,0 UV-I 78 W/m 4,2 C 16,9 C 16,1 km/h (3 Bft) 95,74 %
19.04.2019 19:18 19,2 C 14,4 C 16,7 C 38 % 1025,8 hPa 0,0 l/m 11,6 km/h (2 Bft) O 82 2 min 0,000 mm 0,0 UV-I 75 W/m 4,5 C 17,2 C 19,3 km/h (3 Bft) 97,73 %
19.04.2019 19:20 19,2 C 14,4 C 16,7 C 38 % 1025,8 hPa 0,0 l/m 11,6 km/h (2 Bft) O-SO 108 2 min 0,000 mm 0,0 UV-I 71 W/m 4,5 C 17,2 C 17,7 km/h (3 Bft) 95,74 %
19.04.2019 19:22 19,1 C 14,4 C 16,1 C 38 % 1025,8 hPa 0,0 l/m 10,2 km/h (2 Bft) O-SO 107 2 min 0,000 mm 0,0 UV-I 67 W/m 4,4 C 17,6 C 16,1 km/h (3 Bft) 95,74 %
19.04.2019 19:24 18,9 C 14,4 C 16,1 C 39 % 1025,8 hPa 0,0 l/m 9,1 km/h (2 Bft) O-SO 106 2 min 0,000 mm 0,0 UV-I 64 W/m 4,6 C 17,8 C 12,9 km/h (3 Bft) 93,62 %
19.04.2019 19:26 18,8 C 14,4 C 15,6 C 39 % 1025,9 hPa 0,0 l/m 10,5 km/h (2 Bft) O 92 2 min 0,000 mm 0,0 UV-I 60 W/m 4,6 C 17,1 C 14,5 km/h (3 Bft) 97,87 %
19.04.2019 19:29 18,7 C 14,4 C 15,6 C 40 % 1025,8 hPa 0,0 l/m 9,4 km/h (2 Bft) O-SO 103 3 min 0,000 mm 0,0 UV-I 56 W/m 4,8 C 17,4 C 12,9 km/h (3 Bft) 96,34 %
19.04.2019 19:30 18,6 C 14,4 C 15,6 C 40 % 1025,8 hPa 0,0 l/m 9,3 km/h (2 Bft) O 96 1 min 0,000 mm 0,0 UV-I 53 W/m 4,7 C 17,4 C 14,5 km/h (3 Bft) 91,67 %
19.04.2019 19:32 18,5 C 14,4 C 15,6 C 40 % 1025,9 hPa 0,0 l/m 8,8 km/h (2 Bft) O 87 2 min 0,000 mm 0,0 UV-I 51 W/m 4,6 C 17,4 C 12,9 km/h (3 Bft) 97,87 %
19.04.2019 19:34 18,4 C 14,4 C 15,6 C 40 % 1025,9 hPa 0,0 l/m 9,0 km/h (2 Bft) O 96 2 min 0,000 mm 0,0 UV-I 47 W/m 4,6 C 17,3 C 12,9 km/h (3 Bft) 95,74 %
19.04.2019 19:36 18,4 C 14,4 C 15,0 C 40 % 1025,8 hPa 0,0 l/m 9,2 km/h (2 Bft) O 97 2 min 0,000 mm 0,0 UV-I 45 W/m 4,6 C 17,2 C 14,5 km/h (3 Bft) 93,62 %
19.04.2019 19:38 18,4 C 14,4 C 15,0 C 40 % 1025,9 hPa 0,0 l/m 10,0 km/h (2 Bft) O 98 2 min 0,000 mm 0,0 UV-I 40 W/m 4,6 C 16,9 C 14,5 km/h (3 Bft) 95,74 %
19.04.2019 19:40 18,3 C 14,4 C 15,0 C 40 % 1025,9 hPa 0,0 l/m 10,3 km/h (2 Bft) O-SO 113 2 min 0,000 mm 0,0 UV-I 37 W/m 4,5 C 16,7 C 16,1 km/h (3 Bft) 94,00 %
19.04.2019 19:42 18,2 C 14,4 C 14,4 C 41 % 1025,9 hPa 0,0 l/m 11,1 km/h (2 Bft) O 97 2 min 0,000 mm 0,0 UV-I 33 W/m 4,7 C 16,3 C 14,5 km/h (3 Bft) 93,62 %
19.04.2019 19:44 18,1 C 14,4 C 14,4 C 41 % 1025,9 hPa 0,0 l/m 10,9 km/h (2 Bft) O-SO 115 2 min 0,000 mm 0,0 UV-I 30 W/m 4,6 C 16,2 C 14,5 km/h (3 Bft) 93,62 %
19.04.2019 19:46 18,0 C 14,4 C 14,4 C 41 % 1025,9 hPa 0,0 l/m 11,2 km/h (2 Bft) O 101 2 min 0,000 mm 0,0 UV-I 26 W/m 4,6 C 16,0 C 16,1 km/h (3 Bft) 97,92 %
19.04.2019 19:48 18,0 C 14,4 C 14,4 C 41 % 1026,0 hPa 0,0 l/m 10,7 km/h (2 Bft) O 81 2 min 0,000 mm 0,0 UV-I 22 W/m 4,6 C 16,2 C 14,5 km/h (3 Bft) 95,74 %
19.04.2019 19:50 18,0 C 14,4 C 14,4 C 41 % 1026,0 hPa 0,0 l/m 10,1 km/h (2 Bft) O-SO 105 0 min 0,000 mm 0,0 UV-I 19 W/m 4,6 C 16,4 C 12,9 km/h (3 Bft) 91,49 %
19.04.2019 19:52 17,9 C 14,4 C 13,9 C 41 % 1026,0 hPa 0,0 l/m 11,2 km/h (2 Bft) O 83 0 min 0,000 mm 0,0 UV-I 17 W/m 4,5 C 15,9 C 14,5 km/h (3 Bft) 95,74 %
19.04.2019 19:54 17,8 C 14,4 C 13,9 C 42 % 1026,0 hPa 0,0 l/m 10,3 km/h (2 Bft) O 91 0 min 0,000 mm 0,0 UV-I 14 W/m 4,7 C 16,1 C 14,5 km/h (3 Bft) 92,00 %
19.04.2019 19:56 17,8 C 14,4 C 13,9 C 42 % 1026,0 hPa 0,0 l/m 9,9 km/h (2 Bft) O-SO 106 0 min 0,000 mm 0,0 UV-I 11 W/m 4,7 C 16,2 C 14,5 km/h (3 Bft) 95,74 %
19.04.2019 19:58 17,7 C 14,4 C 13,3 C 42 % 1026,0 hPa 0,0 l/m 9,9 km/h (2 Bft) O 93 0 min 0,000 mm 0,0 UV-I 11 W/m 4,6 C 16,1 C 16,1 km/h (3 Bft) 93,62 %
19.04.2019 20:00 17,7 C 14,4 C 13,9 C 42 % 1026,1 hPa 0,0 l/m 9,2 km/h (2 Bft) O-SO 117 0 min 0,000 mm 0,0 UV-I 9 W/m 4,6 C 16,4 C 14,5 km/h (3 Bft) 95,12 %
19.04.2019 20:02 17,7 C 14,4 C 13,9 C 42 % 1026,1 hPa 0,0 l/m 11,7 km/h (2 Bft) SO 131 0 min 0,127 mm 0,0 UV-I 9 W/m 4,6 C 15,5 C 16,1 km/h (3 Bft) 97,87 %
19.04.2019 20:04 17,7 C 14,4 C 13,9 C 42 % 1026,1 hPa 0,0 l/m 9,3 km/h (2 Bft) SO 128 0 min 0,000 mm 0,0 UV-I 7 W/m 4,6 C 16,4 C 14,5 km/h (3 Bft) 93,62 %
19.04.2019 20:06 17,6 C 14,4 C 13,3 C 43 % 1026,1 hPa 0,0 l/m 10,2 km/h (2 Bft) O-SO 118 0 min 0,000 mm 0,0 UV-I 7 W/m 4,9 C 15,9 C 14,5 km/h (3 Bft) 95,74 %
19.04.2019 20:09 17,3 C 14,4 C 13,3 C 43 % 1026,1 hPa 0,0 l/m 9,7 km/h (2 Bft) O 95 0 min 0,000 mm 0,0 UV-I 6 W/m 4,6 C 15,8 C 14,5 km/h (3 Bft) 97,30 %
19.04.2019 20:10 17,3 C 14,4 C 13,3 C 43 % 1026,1 hPa 0,0 l/m 11,0 km/h (2 Bft) O-SO 113 0 min 0,000 mm 0,0 UV-I 5 W/m 4,6 C 15,3 C 16,1 km/h (3 Bft) 95,65 %
19.04.2019 20:12 17,3 C 13,9 C 13,3 C 43 % 1026,2 hPa 0,0 l/m 9,3 km/h (2 Bft) O 98 0 min 0,000 mm 0,0 UV-I 5 W/m 4,6 C 15,9 C 16,1 km/h (3 Bft) 94,74 %
19.04.2019 20:14 17,2 C 14,4 C 13,3 C 44 % 1026,2 hPa 0,0 l/m 11,6 km/h (2 Bft) O-SO 113 0 min 0,000 mm 0,0 UV-I 5 W/m 4,8 C 14,9 C 16,1 km/h (3 Bft) 97,87 %
19.04.2019 20:16 17,1 C 14,4 C 12,8 C 44 % 1026,2 hPa 0,0 l/m 10,3 km/h (2 Bft) O-SO 115 0 min 0,000 mm 0,0 UV-I 5 W/m 4,8 C 15,3 C 17,7 km/h (3 Bft) 95,74 %
19.04.2019 20:18 17,2 C 14,4 C 12,8 C 43 % 1026,2 hPa 0,0 l/m 10,8 km/h (2 Bft) O-NO 75 0 min 0,000 mm 0,0 UV-I 0 W/m 4,5 C 15,2 C 16,1 km/h (3 Bft) 95,74 %
19.04.2019 20:20 17,1 C 14,4 C 12,8 C 43 % 1026,2 hPa 0,0 l/m 13,2 km/h (3 Bft) SO 134 0 min 0,000 mm 0,0 UV-I 0 W/m 4,4 C 14,3 C 20,9 km/h (4 Bft) 96,23 %
19.04.2019 20:22 17,2 C 13,9 C 13,3 C 43 % 1026,3 hPa 0,0 l/m 10,2 km/h (2 Bft) O-SO 123 0 min 0,000 mm 0,0 UV-I 0 W/m 4,5 C 15,5 C 16,1 km/h (3 Bft) 98,00 %
19.04.2019 20:24 17,2 C 13,9 C 13,3 C 43 % 1026,3 hPa 0,0 l/m 13,6 km/h (3 Bft) SO 127 0 min 0,000 mm 0,0 UV-I 0 W/m 4,5 C 14,3 C 17,7 km/h (3 Bft) 95,74 %
19.04.2019 20:26 17,2 C 13,9 C 13,3 C 42 % 1026,3 hPa 0,0 l/m 13,3 km/h (3 Bft) O-SO 119 0 min 0,000 mm 0,0 UV-I 0 W/m 4,2 C 14,4 C 20,9 km/h (4 Bft) 95,74 %
19.04.2019 20:28 17,2 C 13,9 C 13,3 C 42 % 1026,3 hPa 0,0 l/m 13,0 km/h (3 Bft) SO 126 0 min 0,000 mm 0,0 UV-I 0 W/m 4,2 C 14,5 C 17,7 km/h (3 Bft) 97,92 %
19.04.2019 20:30 17,1 C 13,9 C 13,3 C 43 % 1026,4 hPa 0,0 l/m 14,0 km/h (3 Bft) O 101 0 min 0,000 mm 0,0 UV-I 0 W/m 4,4 C 14,0 C 20,9 km/h (4 Bft) 97,87 %
19.04.2019 20:32 16,9 C 13,9 C 13,3 C 43 % 1026,4 hPa 0,0 l/m 13,5 km/h (3 Bft) O 94 0 min 0,000 mm 0,0 UV-I 0 W/m 4,2 C 14,0 C 19,3 km/h (3 Bft) 94,74 %
19.04.2019 20:34 16,8 C 13,9 C 12,8 C 43 % 1026,4 hPa 0,0 l/m 13,3 km/h (3 Bft) O-SO 116 0 min 0,000 mm 0,0 UV-I 0 W/m 4,2 C 13,9 C 17,7 km/h (3 Bft) 98,11 %
19.04.2019 20:36 16,7 C 13,9 C 12,8 C 43 % 1026,5 hPa 0,0 l/m 12,3 km/h (3 Bft) O 88 0 min 0,000 mm 0,0 UV-I 0 W/m 4,1 C 14,1 C 16,1 km/h (3 Bft) 95,74 %
19.04.2019 20:38 16,6 C 13,9 C 12,8 C 44 % 1026,5 hPa 0,0 l/m 12,4 km/h (3 Bft) O-SO 103 0 min 0,000 mm 0,0 UV-I 0 W/m 4,3 C 14,0 C 17,7 km/h (3 Bft) 100,00 %
19.04.2019 20:40 16,6 C 13,9 C 12,8 C 44 % 1026,5 hPa 0,0 l/m 11,6 km/h (2 Bft) SO 128 0 min 0,000 mm 0,0 UV-I 0 W/m 4,3 C 14,3 C 14,5 km/h (3 Bft) 100,00 %
19.04.2019 20:42 16,4 C 13,9 C 12,8 C 44 % 1026,6 hPa 0,0 l/m 11,5 km/h (2 Bft) O-SO 109 0 min 0,000 mm 0,0 UV-I 0 W/m 4,1 C 14,1 C 19,3 km/h (3 Bft) 95,74 %
19.04.2019 20:44 16,4 C 13,9 C 12,8 C 44 % 1026,6 hPa 0,0 l/m 10,8 km/h (2 Bft) O 92 0 min 0,000 mm 0,0 UV-I 0 W/m 4,1 C 14,3 C 14,5 km/h (3 Bft) 95,74 %
19.04.2019 20:46 16,3 C 13,9 C 12,2 C 44 % 1026,6 hPa 0,0 l/m 11,3 km/h (2 Bft) O-SO 120 0 min 0,000 mm 0,0 UV-I 0 W/m 4,0 C 14,0 C 14,5 km/h (3 Bft) 96,00 %
19.04.2019 20:49 16,2 C 13,9 C 12,2 C 45 % 1026,7 hPa 0,0 l/m 9,7 km/h (2 Bft) O 83 0 min 0,000 mm 0,0 UV-I 0 W/m 4,3 C 14,6 C 14,5 km/h (3 Bft) 98,65 %
19.04.2019 20:50 16,2 C 13,9 C 12,2 C 45 % 1026,7 hPa 0,0 l/m 11,3 km/h (2 Bft) O 101 0 min 0,000 mm 0,0 UV-I 0 W/m 4,3 C 13,9 C 14,5 km/h (3 Bft) 95,65 %
19.04.2019 20:52 16,1 C 13,9 C 12,2 C 45 % 1026,7 hPa 0,0 l/m 11,3 km/h (2 Bft) O-SO 106 0 min 0,000 mm 0,0 UV-I 0 W/m 4,2 C 13,8 C 16,1 km/h (3 Bft) 97,87 %
19.04.2019 20:54 16,0 C 13,9 C 12,2 C 45 % 1026,7 hPa 0,0 l/m 13,8 km/h (3 Bft) O 101 0 min 0,000 mm 0,0 UV-I 0 W/m 4,1 C 12,8 C 19,3 km/h (3 Bft) 100,00 %
19.04.2019 20:56 16,1 C 13,9 C 12,2 C 44 % 1026,7 hPa 0,0 l/m 14,4 km/h (3 Bft) O-SO 110 0 min 0,000 mm 0,0 UV-I 0 W/m 3,8 C 12,7 C 20,9 km/h (4 Bft) 100,00 %
19.04.2019 20:58 16,1 C 13,9 C 12,2 C 44 % 1026,8 hPa 0,0 l/m 12,8 km/h (3 Bft) O-SO 105 0 min 0,000 mm 0,0 UV-I 0 W/m 3,8 C 13,2 C 17,7 km/h (3 Bft) 98,00 %
19.04.2019 21:00 16,1 C 13,9 C 12,8 C 44 % 1026,7 hPa 0,0 l/m 13,5 km/h (3 Bft) SO 125 0 min 0,102 mm 0,0 UV-I 0 W/m 3,8 C 13,0 C 19,3 km/h (3 Bft) 100,00 %
19.04.2019 21:02 15,9 C 13,9 C 12,2 C 44 % 1026,8 hPa 0,0 l/m 11,3 km/h (2 Bft) O-SO 105 0 min 0,000 mm 0,0 UV-I 0 W/m 3,7 C 13,6 C 16,1 km/h (3 Bft) 100,00 %
19.04.2019 21:04 15,9 C 13,9 C 12,2 C 44 % 1026,8 hPa 0,0 l/m 14,3 km/h (3 Bft) O 92 0 min 0,000 mm 0,0 UV-I 0 W/m 3,7 C 12,5 C 19,3 km/h (3 Bft) 100,00 %
19.04.2019 21:06 15,8 C 13,9 C 12,2 C 44 % 1026,8 hPa 0,0 l/m 12,8 km/h (3 Bft) O 82 0 min 0,000 mm 0,0 UV-I 0 W/m 3,6 C 12,9 C 20,9 km/h (4 Bft) 98,00 %
19.04.2019 21:08 15,8 C 13,9 C 12,2 C 44 % 1026,8 hPa 0,0 l/m 14,2 km/h (3 Bft) O-SO 110 0 min 0,000 mm 0,0 UV-I 0 W/m 3,6 C 12,4 C 17,7 km/h (3 Bft) 97,87 %
19.04.2019 21:10 15,7 C 13,9 C 12,2 C 44 % 1026,8 hPa 0,0 l/m 12,6 km/h (3 Bft) O 92 0 min 0,000 mm 0,0 UV-I 0 W/m 3,5 C 12,9 C 17,7 km/h (3 Bft) 100,00 %
19.04.2019 21:12 15,7 C 13,9 C 12,2 C 44 % 1026,8 hPa 0,0 l/m 11,9 km/h (2 Bft) O 97 0 min 0,000 mm 0,0 UV-I 0 W/m 3,5 C 13,1 C 16,1 km/h (3 Bft) 97,87 %
19.04.2019 21:14 15,7 C 13,9 C 12,2 C 45 % 1026,8 hPa 0,0 l/m 11,6 km/h (2 Bft) O 84 0 min 0,000 mm 0,0 UV-I 0 W/m 3,8 C 13,2 C 16,1 km/h (3 Bft) 100,00 %
19.04.2019 21:16 15,5 C 13,9 C 12,2 C 45 % 1026,8 hPa 0,0 l/m 12,2 km/h (2 Bft) O 83 0 min 0,000 mm 0,0 UV-I 0 W/m 3,6 C 12,8 C 16,1 km/h (3 Bft) 100,00 %
19.04.2019 21:18 15,4 C 13,9 C 12,2 C 45 % 1026,9 hPa 0,0 l/m 11,5 km/h (2 Bft) O 101 0 min 0,000 mm 0,0 UV-I 0 W/m 3,5 C 12,9 C 16,1 km/h (3 Bft) 100,00 %
19.04.2019 21:20 15,4 C 13,9 C 12,2 C 45 % 1026,9 hPa 0,0 l/m 11,2 km/h (2 Bft) O-SO 107 0 min 0,000 mm 0,0 UV-I 0 W/m 3,5 C 13,0 C 16,1 km/h (3 Bft) 97,87 %
19.04.2019 21:22 15,3 C 13,9 C 11,7 C 45 % 1026,9 hPa 0,0 l/m 11,1 km/h (2 Bft) O 84 0 min 0,000 mm 0,0 UV-I 0 W/m 3,4 C 13,0 C 14,5 km/h (3 Bft) 100,00 %
19.04.2019 21:24 15,2 C 13,9 C 11,7 C 46 % 1027,0 hPa 0,0 l/m 8,3 km/h (2 Bft) O 95 0 min 0,000 mm 0,0 UV-I 0 W/m 3,7 C 14,2 C 12,9 km/h (3 Bft) 100,00 %
19.04.2019 21:26 15,1 C 13,9 C 11,7 C 46 % 1027,0 hPa 0,0 l/m 6,1 km/h (2 Bft) O 96 0 min 0,000 mm 0,0 UV-I 0 W/m 3,6 C 15,1 C 11,3 km/h (2 Bft) 100,00 %
19.04.2019 21:28 14,9 C 13,9 C 11,7 C 46 % 1026,9 hPa 0,0 l/m 5,7 km/h (1 Bft) O-NO 69 0 min 0,000 mm 0,0 UV-I 0 W/m 3,4 C 14,9 C 9,7 km/h (2 Bft) 97,87 %
19.04.2019 21:30 14,7 C 13,9 C 11,1 C 47 % 1027,0 hPa 0,0 l/m 6,5 km/h (2 Bft) O-NO 74 0 min 0,000 mm 0,0 UV-I 0 W/m 3,5 C 14,7 C 11,3 km/h (2 Bft) 95,74 %
19.04.2019 21:32 14,5 C 13,9 C 10,6 C 47 % 1027,0 hPa 0,0 l/m 7,2 km/h (2 Bft) O 84 0 min 0,000 mm 0,0 UV-I 0 W/m 3,3 C 14,0 C 11,3 km/h (2 Bft) 97,87 %
19.04.2019 21:34 14,4 C 13,9 C 10,6 C 48 % 1027,0 hPa 0,0 l/m 5,3 km/h (1 Bft) O-NO 66 0 min 0,000 mm 0,0 UV-I 0 W/m 3,5 C 14,4 C 9,7 km/h (2 Bft) 97,56 %
19.04.2019 21:36 14,3 C 13,9 C 10,0 C 48 % 1027,0 hPa 0,0 l/m 7,5 km/h (2 Bft) O-NO 67 0 min 0,000 mm 0,0 UV-I 0 W/m 3,4 C 13,7 C 12,9 km/h (3 Bft) 95,83 %
19.04.2019 21:38 14,2 C 13,9 C 10,0 C 49 % 1027,0 hPa 0,0 l/m 6,7 km/h (2 Bft) O-NO 60 0 min 0,000 mm 0,0 UV-I 0 W/m 3,6 C 14,0 C 11,3 km/h (2 Bft) 95,74 %
19.04.2019 21:40 14,0 C 13,9 C 10,0 C 48 % 1027,0 hPa 0,0 l/m 6,8 km/h (2 Bft) O 90 0 min 0,000 mm 0,0 UV-I 0 W/m 3,2 C 13,8 C 8,0 km/h (2 Bft) 95,74 %
19.04.2019 21:42 13,9 C 13,9 C 10,0 C 49 % 1027,0 hPa 0,0 l/m 5,3 km/h (1 Bft) O-NO 67 0 min 0,000 mm 0,0 UV-I 0 W/m 3,4 C 13,9 C 9,7 km/h (2 Bft) 93,62 %
19.04.2019 21:44 13,8 C 13,9 C 9,4 C 49 % 1027,0 hPa 0,0 l/m 5,6 km/h (1 Bft) O 81 0 min 0,000 mm 0,0 UV-I 0 W/m 3,3 C 13,8 C 8,0 km/h (2 Bft) 95,74 %
19.04.2019 21:46 13,8 C 13,9 C 9,4 C 49 % 1027,0 hPa 0,0 l/m 5,0 km/h (1 Bft) O-NO 71 0 min 0,000 mm 0,0 UV-I 0 W/m 3,3 C 13,8 C 8,0 km/h (2 Bft) 93,62 %
19.04.2019 21:48 13,7 C 13,9 C 8,9 C 50 % 1027,0 hPa 0,0 l/m 5,4 km/h (1 Bft) O-NO 67 0 min 0,000 mm 0,0 UV-I 0 W/m 3,5 C 13,7 C 9,7 km/h (2 Bft) 96,00 %
19.04.2019 21:50 13,6 C 13,9 C 8,9 C 50 % 1027,0 hPa 0,0 l/m 4,6 km/h (1 Bft) O-NO 65 0 min 0,000 mm 0,0 UV-I 0 W/m 3,4 C 13,6 C 6,4 km/h (2 Bft) 95,74 %
19.04.2019 21:52 13,5 C 13,9 C 8,9 C 50 % 1027,0 hPa 0,0 l/m 4,9 km/h (1 Bft) O-NO 71 0 min 0,000 mm 0,0 UV-I 0 W/m 3,3 C 13,5 C 6,4 km/h (2 Bft) 97,87 %
19.04.2019 21:54 13,4 C 13,9 C 8,3 C 50 % 1027,0 hPa 0,0 l/m 4,4 km/h (1 Bft) O-NO 76 0 min 0,000 mm 0,0 UV-I 0 W/m 3,2 C 13,4 C 8,0 km/h (2 Bft) 97,87 %
19.04.2019 21:56 13,3 C 13,9 C 7,8 C 50 % 1027,0 hPa 0,0 l/m 5,2 km/h (1 Bft) O 79 0 min 0,000 mm 0,0 UV-I 0 W/m 3,1 C 13,3 C 8,0 km/h (2 Bft) 95,74 %
19.04.2019 21:58 13,3 C 13,9 C 8,3 C 51 % 1027,0 hPa 0,0 l/m 5,1 km/h (1 Bft) O 80 0 min 0,000 mm 0,0 UV-I 0 W/m 3,4 C 13,3 C 8,0 km/h (2 Bft) 96,00 %
19.04.2019 22:00 13,4 C 13,9 C 8,9 C 50 % 1027,0 hPa 0,0 l/m 6,0 km/h (2 Bft) O-NO 71 0 min 0,050 mm 0,0 UV-I 0 W/m 3,2 C 13,4 C 8,0 km/h (2 Bft) 95,74 %
19.04.2019 22:02 13,4 C 13,9 C 8,9 C 50 % 1027,0 hPa 0,0 l/m 5,6 km/h (1 Bft) O-NO 73 0 min 0,000 mm 0,0 UV-I 0 W/m 3,2 C 13,4 C 9,7 km/h (2 Bft) 93,62 %
19.04.2019 22:04 13,4 C 13,9 C 9,4 C 50 % 1027,0 hPa 0,0 l/m 7,5 km/h (2 Bft) O-NO 71 0 min 0,000 mm 0,0 UV-I 0 W/m 3,2 C 12,7 C 12,9 km/h (3 Bft) 95,74 %
19.04.2019 22:06 13,3 C 13,9 C 9,4 C 50 % 1027,0 hPa 0,0 l/m 8,6 km/h (2 Bft) O-NO 70 0 min 0,000 mm 0,0 UV-I 0 W/m 3,1 C 12,0 C 11,3 km/h (2 Bft) 97,37 %
19.04.2019 22:08 13,3 C 13,9 C 9,4 C 50 % 1027,0 hPa 0,0 l/m 6,4 km/h (2 Bft) O 96 0 min 0,000 mm 0,0 UV-I 0 W/m 3,1 C 13,3 C 11,3 km/h (2 Bft) 95,74 %
19.04.2019 22:10 13,2 C 13,9 C 9,4 C 50 % 1027,0 hPa 0,0 l/m 9,5 km/h (2 Bft) O-SO 117 0 min 0,000 mm 0,0 UV-I 0 W/m 3,0 C 11,4 C 12,9 km/h (3 Bft) 100,00 %
19.04.2019 22:12 13,3 C 13,9 C 9,4 C 50 % 1027,0 hPa 0,0 l/m 7,2 km/h (2 Bft) O 97 0 min 0,000 mm 0,0 UV-I 0 W/m 3,1 C 12,8 C 11,3 km/h (2 Bft) 98,11 %
19.04.2019 22:14 13,3 C 13,9 C 9,4 C 50 % 1027,0 hPa 0,0 l/m 8,5 km/h (2 Bft) O-NO 77 0 min 0,000 mm 0,0 UV-I 0 W/m 3,1 C 12,0 C 12,9 km/h (3 Bft) 100,00 %
19.04.2019 22:16 13,4 C 13,9 C 9,4 C 50 % 1027,0 hPa 0,0 l/m 9,2 km/h (2 Bft) O-SO 102 0 min 0,000 mm 0,0 UV-I 0 W/m 3,2 C 11,8 C 14,5 km/h (3 Bft) 97,87 %
19.04.2019 22:18 13,4 C 13,9 C 9,4 C 49 % 1027,0 hPa 0,0 l/m 9,4 km/h (2 Bft) O-SO 104 0 min 0,000 mm 0,0 UV-I 0 W/m 2,9 C 11,7 C 12,9 km/h (3 Bft) 100,00 %
19.04.2019 22:20 13,6 C 13,9 C 9,4 C 49 % 1027,0 hPa 0,0 l/m 9,9 km/h (2 Bft) O 100 0 min 0,000 mm 0,0 UV-I 0 W/m 3,1 C 11,6 C 12,9 km/h (3 Bft) 100,00 %
19.04.2019 22:22 13,6 C 13,9 C 9,4 C 49 % 1027,0 hPa 0,0 l/m 7,8 km/h (2 Bft) O 93 0 min 0,000 mm 0,0 UV-I 0 W/m 3,1 C 12,7 C 12,9 km/h (3 Bft) 97,87 %
19.04.2019 22:24 13,6 C 13,9 C 9,4 C 49 % 1027,0 hPa 0,0 l/m 6,9 km/h (2 Bft) O 85 0 min 0,000 mm 0,0 UV-I 0 W/m 3,1 C 13,3 C 9,7 km/h (2 Bft) 97,87 %
19.04.2019 22:26 13,4 C 13,9 C 9,4 C 49 % 1027,0 hPa 0,0 l/m 6,4 km/h (2 Bft) O-NO 74 0 min 0,000 mm 0,0 UV-I 0 W/m 2,9 C 13,4 C 11,3 km/h (2 Bft) 97,87 %
19.04.2019 22:28 13,4 C 13,9 C 9,4 C 49 % 1027,0 hPa 0,0 l/m 8,9 km/h (2 Bft) O-NO 74 0 min 0,000 mm 0,0 UV-I 0 W/m 2,9 C 11,9 C 12,9 km/h (3 Bft) 100,00 %
19.04.2019 22:30 13,3 C 13,9 C 9,4 C 50 % 1027,0 hPa 0,0 l/m 10,8 km/h (2 Bft) O-NO 67 0 min 0,000 mm 0,0 UV-I 0 W/m 3,1 C 10,9 C 12,9 km/h (3 Bft) 95,74 %
19.04.2019 22:32 13,2 C 13,9 C 10,0 C 50 % 1027,0 hPa 0,0 l/m 10,2 km/h (2 Bft) O-NO 69 0 min 0,000 mm 0,0 UV-I 0 W/m 3,0 C 11,0 C 14,5 km/h (3 Bft) 100,00 %
19.04.2019 22:34 13,1 C 13,9 C 10,0 C 51 % 1027,0 hPa 0,0 l/m 10,8 km/h (2 Bft) O-NO 66 0 min 0,000 mm 0,0 UV-I 0 W/m 3,2 C 10,6 C 12,9 km/h (3 Bft) 100,00 %
19.04.2019 22:36 13,1 C 13,9 C 10,0 C 51 % 1027,0 hPa 0,0 l/m 8,8 km/h (2 Bft) O-NO 74 0 min 0,000 mm 0,0 UV-I 0 W/m 3,2 C 11,7 C 14,5 km/h (3 Bft) 100,00 %
19.04.2019 22:38 13,1 C 13,9 C 10,0 C 51 % 1027,0 hPa 0,0 l/m 9,2 km/h (2 Bft) O-NO 71 0 min 0,000 mm 0,0 UV-I 0 W/m 3,2 C 11,4 C 12,9 km/h (3 Bft) 96,00 %
19.04.2019 22:40 13,0 C 13,9 C 10,0 C 51 % 1027,0 hPa 0,0 l/m 10,6 km/h (2 Bft) O-NO 60 0 min 0,000 mm 0,0 UV-I 0 W/m 3,1 C 10,6 C 12,9 km/h (3 Bft) 97,87 %
19.04.2019 22:42 12,9 C 13,9 C 10,0 C 51 % 1027,1 hPa 0,0 l/m 9,1 km/h (2 Bft) O-NO 71 0 min 0,000 mm 0,0 UV-I 0 W/m 3,0 C 11,3 C 14,5 km/h (3 Bft) 100,00 %
19.04.2019 22:44 12,9 C 13,9 C 10,0 C 51 % 1027,1 hPa 0,0 l/m 9,2 km/h (2 Bft) O 83 0 min 0,000 mm 0,0 UV-I 0 W/m 3,0 C 11,2 C 14,5 km/h (3 Bft) 100,00 %
19.04.2019 22:46 12,9 C 13,9 C 10,0 C 51 % 1027,1 hPa 0,0 l/m 8,3 km/h (2 Bft) O 94 0 min 0,000 mm 0,0 UV-I 0 W/m 3,0 C 11,7 C 12,9 km/h (3 Bft) 100,00 %
19.04.2019 22:48 12,9 C 13,9 C 10,0 C 51 % 1027,1 hPa 0,0 l/m 7,8 km/h (2 Bft) O 87 0 min 0,000 mm 0,0 UV-I 0 W/m 3,0 C 12,0 C 11,3 km/h (2 Bft) 97,87 %
19.04.2019 22:50 12,9 C 13,9 C 9,4 C 50 % 1027,1 hPa 0,0 l/m 7,0 km/h (2 Bft) O 92 0 min 0,000 mm 0,0 UV-I 0 W/m 2,7 C 12,5 C 11,3 km/h (2 Bft) 97,87 %
19.04.2019 22:52 13,0 C 13,9 C 9,4 C 50 % 1027,1 hPa 0,0 l/m 8,0 km/h (2 Bft) O-SO 105 0 min 0,000 mm 0,0 UV-I 0 W/m 2,8 C 12,0 C 11,3 km/h (2 Bft) 97,87 %
19.04.2019 22:54 13,1 C 13,9 C 9,4 C 50 % 1027,1 hPa 0,0 l/m 7,2 km/h (2 Bft) O-SO 109 0 min 0,000 mm 0,0 UV-I 0 W/m 2,9 C 12,6 C 11,3 km/h (2 Bft) 95,74 %
19.04.2019 22:56 13,2 C 13,9 C 9,4 C 49 % 1027,1 hPa 0,0 l/m 7,5 km/h (2 Bft) O-SO 107 0 min 0,000 mm 0,0 UV-I 0 W/m 2,7 C 12,5 C 11,3 km/h (2 Bft) 92,31 %
19.04.2019 22:58 13,3 C 13,9 C 9,4 C 49 % 1027,1 hPa 0,0 l/m 5,4 km/h (1 Bft) O 99 0 min 0,000 mm 0,0 UV-I 0 W/m 2,8 C 13,3 C 9,7 km/h (2 Bft) 95,74 %
19.04.2019 23:00 13,3 C 13,9 C 9,4 C 48 % 1027,1 hPa 0,0 l/m 4,8 km/h (1 Bft) O 96 0 min 0,000 mm 0,0 UV-I 0 W/m 2,5 C 13,3 C 6,4 km/h (2 Bft) 91,49 %
19.04.2019 23:02 13,3 C 13,9 C 8,9 C 48 % 1027,1 hPa 0,0 l/m 4,7 km/h (1 Bft) O 101 0 min 0,051 mm 0,0 UV-I 0 W/m 2,5 C 13,3 C 6,4 km/h (2 Bft) 93,62 %
19.04.2019 23:04 13,2 C 13,9 C 8,9 C 49 % 1027,1 hPa 0,0 l/m 4,0 km/h (1 Bft) O 98 0 min 0,000 mm 0,0 UV-I 0 W/m 2,7 C 13,2 C 6,4 km/h (2 Bft) 95,74 %
19.04.2019 23:06 13,2 C 13,9 C 8,3 C 49 % 1027,1 hPa 0,0 l/m 3,9 km/h (1 Bft) O 98 0 min 0,000 mm 0,0 UV-I 0 W/m 2,7 C 13,2 C 4,8 km/h (1 Bft) 95,74 %
19.04.2019 23:08 13,2 C 13,9 C 8,3 C 49 % 1027,1 hPa 0,0 l/m 4,3 km/h (1 Bft) O 95 0 min 0,000 mm 0,0 UV-I 0 W/m 2,7 C 13,2 C 6,4 km/h (2 Bft) 94,00 %
19.04.2019 23:10 13,1 C 13,9 C 8,3 C 49 % 1027,1 hPa 0,0 l/m 2,9 km/h (1 Bft) O 95 0 min 0,000 mm 0,0 UV-I 0 W/m 2,6 C 13,1 C 4,8 km/h (1 Bft) 93,62 %
19.04.2019 23:12 12,9 C 13,9 C 7,8 C 50 % 1027,2 hPa 0,0 l/m 4,1 km/h (1 Bft) O 95 0 min 0,000 mm 0,0 UV-I 0 W/m 2,7 C 12,9 C 4,8 km/h (1 Bft) 94,00 %
19.04.2019 23:14 12,8 C 13,9 C 7,2 C 50 % 1027,2 hPa 0,0 l/m 5,4 km/h (1 Bft) O 85 0 min 0,000 mm 0,0 UV-I 0 W/m 2,6 C 12,8 C 6,4 km/h (2 Bft) 97,87 %
19.04.2019 23:16 12,8 C 13,9 C 7,2 C 50 % 1027,2 hPa 0,0 l/m 6,2 km/h (2 Bft) O-NO 72 0 min 0,000 mm 0,0 UV-I 0 W/m 2,6 C 12,8 C 8,0 km/h (2 Bft) 97,87 %
19.04.2019 23:18 12,8 C 13,9 C 7,2 C 50 % 1027,2 hPa 0,0 l/m 5,6 km/h (1 Bft) O 84 0 min 0,000 mm 0,0 UV-I 0 W/m 2,6 C 12,8 C 8,0 km/h (2 Bft) 97,87 %
19.04.2019 23:20 12,8 C 13,9 C 7,8 C 50 % 1027,2 hPa 0,0 l/m 5,1 km/h (1 Bft) O 89 0 min 0,000 mm 0,0 UV-I 0 W/m 2,6 C 12,8 C 8,0 km/h (2 Bft) 94,74 %
19.04.2019 23:22 12,7 C 13,9 C 7,8 C 50 % 1027,2 hPa 0,0 l/m 4,7 km/h (1 Bft) O-NO 78 0 min 0,000 mm 0,0 UV-I 0 W/m 2,6 C 12,7 C 8,0 km/h (2 Bft) 97,87 %
19.04.2019 23:24 12,7 C 13,9 C 7,8 C 51 % 1027,2 hPa 0,0 l/m 6,0 km/h (2 Bft) O-NO 76 0 min 0,000 mm 0,0 UV-I 0 W/m 2,8 C 12,7 C 8,0 km/h (2 Bft) 97,87 %
19.04.2019 23:26 12,7 C 13,9 C 7,8 C 51 % 1027,2 hPa 0,0 l/m 5,3 km/h (1 Bft) O 81 0 min 0,000 mm 0,0 UV-I 0 W/m 2,8 C 12,7 C 8,0 km/h (2 Bft) 98,00 %
19.04.2019 23:29 12,6 C 13,9 C 7,2 C 51 % 1027,2 hPa 0,0 l/m 4,8 km/h (1 Bft) O-NO 71 0 min 0,000 mm 0,0 UV-I 0 W/m 2,7 C 12,6 C 6,4 km/h (2 Bft) 97,18 %
19.04.2019 23:30 12,6 C 13,9 C 7,2 C 51 % 1027,2 hPa 0,0 l/m 4,7 km/h (1 Bft) O-NO 71 0 min 0,000 mm 0,0 UV-I 0 W/m 2,7 C 12,6 C 6,4 km/h (2 Bft) 95,83 %
19.04.2019 23:32 12,4 C 13,9 C 6,7 C 51 % 1027,2 hPa 0,0 l/m 4,1 km/h (1 Bft) O-NO 71 0 min 0,000 mm 0,0 UV-I 0 W/m 2,6 C 12,4 C 6,4 km/h (2 Bft) 97,87 %
19.04.2019 23:34 12,3 C 13,9 C 6,7 C 52 % 1027,2 hPa 0,0 l/m 4,8 km/h (1 Bft) O-NO 76 0 min 0,000 mm 0,0 UV-I 0 W/m 2,7 C 12,3 C 8,0 km/h (2 Bft) 97,87 %
19.04.2019 23:36 12,3 C 13,9 C 6,7 C 52 % 1027,2 hPa 0,0 l/m 5,8 km/h (2 Bft) O-NO 78 0 min 0,000 mm 0,0 UV-I 0 W/m 2,7 C 12,3 C 8,0 km/h (2 Bft) 97,87 %
19.04.2019 23:38 12,2 C 13,9 C 7,2 C 52 % 1027,2 hPa 0,0 l/m 6,6 km/h (2 Bft) O 88 0 min 0,000 mm 0,0 UV-I 0 W/m 2,6 C 12,1 C 12,9 km/h (3 Bft) 96,23 %
19.04.2019 23:40 12,2 C 13,9 C 7,2 C 52 % 1027,2 hPa 0,0 l/m 6,5 km/h (2 Bft) O-NO 66 0 min 0,000 mm 0,0 UV-I 0 W/m 2,6 C 12,2 C 9,7 km/h (2 Bft) 94,74 %
19.04.2019 23:42 12,1 C 13,9 C 7,8 C 53 % 1027,2 hPa 0,0 l/m 5,7 km/h (1 Bft) O-NO 76 0 min 0,000 mm 0,0 UV-I 0 W/m 2,8 C 12,1 C 9,7 km/h (2 Bft) 94,00 %
19.04.2019 23:44 11,9 C 13,9 C 7,8 C 53 % 1027,3 hPa 0,0 l/m 6,0 km/h (2 Bft) O 81 0 min 0,000 mm 0,0 UV-I 0 W/m 2,6 C 11,9 C 11,3 km/h (2 Bft) 96,00 %
19.04.2019 23:46 11,8 C 13,9 C 7,8 C 53 % 1027,2 hPa 0,0 l/m 8,1 km/h (2 Bft) O-NO 70 0 min 0,000 mm 0,0 UV-I 0 W/m 2,5 C 10,7 C 12,9 km/h (3 Bft) 95,74 %
19.04.2019 23:49 11,8 C 13,9 C 8,3 C 53 % 1027,2 hPa 0,0 l/m 8,2 km/h (2 Bft) O-NO 64 0 min 0,000 mm 0,0 UV-I 0 W/m 2,5 C 10,6 C 12,9 km/h (3 Bft) 94,29 %
19.04.2019 23:50 11,8 C 13,9 C 8,3 C 53 % 1027,2 hPa 0,0 l/m 8,9 km/h (2 Bft) O 79 0 min 0,000 mm 0,0 UV-I 0 W/m 2,5 C 10,2 C 11,3 km/h (2 Bft) 95,83 %
19.04.2019 23:52 11,7 C 13,9 C 8,3 C 54 % 1027,2 hPa 0,0 l/m 7,7 km/h (2 Bft) O-SO 103 0 min 0,000 mm 0,0 UV-I 0 W/m 2,7 C 10,8 C 12,9 km/h (3 Bft) 95,74 %
19.04.2019 23:54 11,7 C 13,9 C 8,3 C 54 % 1027,3 hPa 0,0 l/m 8,5 km/h (2 Bft) O 80 0 min 0,000 mm 0,0 UV-I 0 W/m 2,7 C 10,3 C 12,9 km/h (3 Bft) 97,14 %
19.04.2019 23:56 11,6 C 13,9 C 8,3 C 54 % 1027,2 hPa 0,0 l/m 9,5 km/h (2 Bft) O 85 0 min 0,000 mm 0,0 UV-I 0 W/m 2,6 C 9,6 C 16,1 km/h (3 Bft) 94,00 %
19.04.2019 23:58 11,6 C 13,9 C 8,3 C 54 % 1027,3 hPa 0,0 l/m 9,3 km/h (2 Bft) O 85 0 min 0,000 mm 0,0 UV-I 0 W/m 2,6 C 9,8 C 12,9 km/h (3 Bft) 95,74 %
_ Min-Zeit 05:56 04:42 06:00 14:56 17:52 - 05:54 - - - - - - 05:16 05:16 05:52 14:18
Minimum _ 6,6 C 11,7 C 1,7 C 31 % 1025,6 hPa - 0,6 km/h (0 Bft) - - - - - - 2,0 C 1,7 C 1,6 km/h (1 Bft) 88,46 %
_ Max-Zeit 16:16 16:38 13:08 06:00 10:10 00:00 09:18 - - 12:29 14:00 12:52 12:48 12:22 15:44 09:18 00:00
Maximum _ 21,8 C 14,4 C 33,3 C 75 % 1028,0 hPa 0,0 l/m 27,0 km/h
O-NO (4 Bft)
- - 3 min 0,635 mm 4,5 UV-I 821 W/m 6,3 C 20,1 C 41,8 km/h
O (6 Bft)
100,00 %
Durchschnitt _ 14,6 C 12,9 C 16,2 C 51 % 1026,7 hPa #0,0 l/m 13,3 km/h (3 Bft) O - #13:22 h #5,918 mm 2,6 UV-I 461 W/m 3,9 C 11,8 C 19,0 km/h (3 Bft) 97,33 %